[[{"header":{"parameterUnit":"m.s-1","parameterCategory":1,"la1":31.0,"la2":29.5877,"lo1":-88.7671,"lo2":-86.6584,"dy":0.0162,"dx":0.0185,"nx":115,"ny":88,"refTime":"2026-03-03T00:00:00:Z","depth":0,"parameterNumber":2,"parameterNumberName":"U-component_of_WINDS"},"data":[0.0,0.0,0.0,0.0,0.0,0.0,0.0,0.0,0.0,0.0,0.0,0.0,0.0,0.0,0.0,0.0,0.0,0.0,0.0,0.0,0.0,0.0,0.0,0.0,0.0,0.0,0.0,0.0,0.0,0.0,0.0,0.0,0.0,0.0,0.0,0.0,0.0,0.0,0.0,0.0,0.0,0.0,0.0,0.0,0.0,0.0,0.0,0.0,0.0,0.0,0.0,0.0,0.0,0.0,0.0,0.0,0.0,0.0,0.0,0.0,0.0,0.0,0.0,0.0,0.0,0.0,0.0,0.0,0.0,0.0,0.0,0.0,0.0,0.0,0.0,0.0,0.0,0.0,0.0,0.0,0.0,0.0,0.0,0.0,0.0,0.0,0.0,0.0,0.0,0.0,0.0,0.0,0.0,0.0,0.0,0.0,0.0,0.0,0.0,0.0,0.0,0.0,0.0,0.0,0.0,0.0,0.0,0.0,0.0,0.0,0.0,0.0,0.0,0.0,0.0,0.0,0.0,0.0,0.0,0.0,0.0,0.0,0.0,0.0,0.0,0.0,0.0,0.0,0.0,0.0,0.0,0.0,0.0,0.0,0.0,0.0,0.0,0.0,0.0,0.0,0.0,0.0,0.0,0.0,0.0,0.0,0.0,0.0,0.0,0.0,0.0,0.0,0.0,0.0,0.0,0.0,0.0,0.0,0.0,0.0,0.0,0.0,0.0,0.0,0.0,0.0,0.0,0.0,0.0,0.0,0.0,0.0,0.0,0.0,0.0,0.0,0.0,0.0,0.0,0.0,0.0,0.0,0.0,0.0,0.0,0.0,0.0,0.0,0.0,0.0,0.0,0.0,0.0,0.0,0.0,0.0,0.0,0.0,0.0,0.0,0.0,0.0,0.0,0.0,0.0,0.0,0.0,0.0,0.0,0.0,0.0,0.0,0.0,0.0,0.0,0.0,0.0,0.0,0.0,0.0,0.0,0.0,0.0,0.0,0.0,0.0,0.0,0.0,0.0,0.0,0.0,0.0,0.0,0.0,0.0,0.0,0.0,0.0,0.0,0.0,0.0,0.0,0.0,0.0,0.0,0.0,0.0,0.0,0.0,0.0,0.0,0.0,0.0,0.0,0.0,0.0,0.0,0.0,0.0,0.0,0.0,0.0,0.0,0.0,0.0,0.0,0.0,0.0,0.0,0.0,0.0,0.0,0.0,0.0,0.0,0.0,0.0,0.0,0.0,0.0,0.0,0.0,0.0,0.0,0.0,0.0,0.0,0.0,0.0,0.0,0.0,0.0,0.0,0.0,0.0,0.0,0.0,0.0,0.0,0.0,0.0,0.0,0.0,0.0,0.0,0.0,0.0,0.0,0.0,0.0,0.0,0.0,0.0,0.0,0.0,0.0,0.0,0.0,0.0,0.0,0.0,0.0,0.0,0.0,0.0,0.0,0.0,0.0,0.0,0.0,0.0,0.0,0.0,0.0,0.0,0.0,0.0,0.0,0.0,0.0,0.0,0.0,0.0,0.0,0.0,0.0,0.0,0.0,0.0,0.0,0.0,0.0,0.0,0.0,0.0,0.0,0.0,0.0,0.0,0.0,0.0,0.0,0.0,0.0,0.0,0.0,0.0,0.0,0.0,0.0,0.0,0.0,0.0,0.0,0.0,0.0,0.0,0.0,0.0,0.0,0.0,0.0,0.0,0.0,0.0,0.0,0.0,0.0,0.0,0.0,0.0,0.0,0.0,0.0,0.0,0.0,0.0,0.0,0.0,0.0,0.0,0.0,0.0,0.0,0.0,0.0,0.0,0.0,0.0,0.0,0.0,0.0,0.0,0.0,0.0,0.0,0.0,0.0,0.0,0.0,0.0,0.0,0.0,0.0,0.0,0.0,0.0,0.0,0.0,0.0,0.0,0.0,0.0,0.0,0.0,0.0,0.0,0.0,0.0,0.0,0.0,0.0,0.0,0.0,0.0,0.0,0.0,0.0,0.0,0.0,0.0,0.0,0.0,0.0,0.0,0.0,0.0,0.0,0.0,0.0,0.0,0.0,0.0,0.0,0.0,0.0,0.0,0.0,0.0,0.0,0.0,0.0,0.0,0.0,0.0,0.0,0.0,0.0,0.0,0.0,0.0,0.0,0.0,0.0,0.0,0.0,0.0,0.0,0.0,0.0,0.0,0.0,0.0,0.0,0.0,0.0,0.0,0.0,0.0,0.0,0.0,0.0,0.0,0.0,0.0,0.0,0.0,0.0,0.0,0.0,0.0,0.0,0.0,0.0,0.0,0.0,0.0,0.0,0.0,0.0,0.0,0.0,0.0,0.0,0.0,0.0,0.0,0.0,0.0,0.0,0.0,0.0,0.0,0.0,0.0,0.0,0.0,0.0,0.0,0.0,0.0,0.0,0.0,0.0,0.0,0.0,0.0,0.0,0.0,0.0,0.0,0.0,0.0,0.0,0.0,0.0,0.0,0.0,0.0,0.0,0.0,0.0,0.0,0.0,0.0,0.0,0.0,0.0,0.0,0.0,0.0,0.0,0.0,0.0,0.0,0.0,0.0,0.0,0.0,0.0,0.0,0.0,0.0,0.0,0.0,0.0,0.0,0.0,0.0,0.0,0.0,0.0,0.0,0.0,0.0,0.0,0.0,0.0,0.0,0.0,0.0,0.0,0.0,0.0,0.0,0.0,0.0,0.0,0.0,0.0,0.0,0.0,0.0,0.0,0.0,0.0,0.0,0.0,0.0,0.0,0.0,0.0,0.0,0.0,0.0,0.0,0.0,0.0,0.0,0.0,0.0,0.0,0.0,0.0,0.0,0.0,0.0,0.0,0.0,0.0,0.0,0.0,0.0,0.0,0.0,0.0,0.0,0.0,0.0,0.0,0.0,0.0,0.0,0.0,0.0,0.0,0.0,0.0,0.0,0.0,0.0,0.0,0.0,0.0,0.0,0.0,0.0,0.0,0.0,0.0,0.0,0.0,0.0,0.0,0.0,0.0,0.0,0.0,0.0,0.0,0.0,0.0,0.0,0.0,0.0,0.0,0.0,0.0,0.0,0.0,0.0,0.0,0.0,0.0,0.0,0.0,0.0,0.0,0.0,0.0,0.0,0.0,0.0,0.0,0.0,0.0,0.0,0.0,0.0,0.0,0.0,0.0,0.0,0.0,0.0,0.0,0.0,0.0,0.0,0.0,0.0,0.0,0.0,0.0,0.0,0.0,0.0,0.0,0.0,0.0,0.0,0.0,0.0,0.0,0.0,0.0,0.0,0.0,0.0,0.0,0.0,0.0,0.0,0.0,0.0,0.0,0.0,0.0,0.0,0.0,0.0,0.0,0.0,0.0,0.0,0.0,0.0,0.0,0.0,0.0,0.0,0.0,0.0,0.0,0.0,0.0,0.0,0.0,0.0,0.0,0.0,0.0,0.0,0.0,0.0,0.0,0.0,0.0,0.0,0.0,0.0,0.0,0.0,0.0,0.0,0.0,0.0,0.0,0.0,0.0,0.0,0.0,0.0,0.0,0.0,0.0,0.0,0.0,0.0,0.0,0.0,0.0,0.0,0.0,0.0,0.0,0.0,0.0,0.0,0.0,0.0,0.0,0.0,0.0,0.0,0.0,0.0,0.0,0.0,0.0,0.0,0.0,0.0,0.0,0.0,0.0,0.0,0.0,0.0,0.0,0.0,0.0,0.0,0.0,0.0,0.0,0.0,0.0,0.0,0.0,0.0,0.0,0.0,0.0,0.0,0.0,0.0,0.0,0.0,0.0,0.0,0.0,0.0,0.0,0.0,0.0,0.0,0.0,0.0,0.0,0.0,0.0,0.0,0.0,0.0,0.0,0.0,0.0,0.0,0.0,0.0,0.0,0.0,0.0,0.0,0.0,0.0,0.0,0.0,0.0,0.0,0.0,0.0,0.0,0.0,0.0,0.0,0.0,0.0,0.0,0.0,0.0,0.0,0.0,0.0,0.0,0.0,0.0,0.0,0.0,0.0,0.0,0.0,0.0,0.0,0.0,0.0,0.0,0.0,0.0,0.0,0.0,0.0,0.0,0.0,0.0,0.0,0.0,0.0,0.0,0.0,0.0,0.0,0.0,0.0,0.0,0.0,0.0,0.0,0.0,0.0,0.0,0.0,0.0,0.0,0.0,0.0,0.0,0.0,0.0,0.0,0.0,0.0,0.0,0.0,0.0,0.0,0.0,0.0,0.0,0.0,0.0,0.0,0.0,0.0,0.0,0.0,0.0,0.0,0.0,0.0,0.0,0.0,0.0,0.0,0.0,-1.9723,0.0,0.0,0.0,0.0,0.0,0.0,0.0,0.0,0.0,0.0,0.0,0.0,0.0,0.0,0.0,0.0,0.0,0.0,0.0,0.0,0.0,0.0,0.0,0.0,0.0,0.0,0.0,0.0,0.0,0.0,0.0,0.0,0.0,0.0,0.0,0.0,0.0,0.0,0.0,0.0,0.0,0.0,0.0,0.0,0.0,0.0,0.0,0.0,0.0,0.0,0.0,0.0,0.0,0.0,0.0,0.0,0.0,0.0,0.0,0.0,0.0,0.0,0.0,0.0,0.0,0.0,0.0,0.0,0.0,0.0,0.0,0.0,0.0,0.0,0.0,0.0,0.0,0.0,0.0,0.0,0.0,0.0,0.0,0.0,0.0,0.0,0.0,0.0,0.0,0.0,0.0,0.0,0.0,0.0,0.0,0.0,0.0,0.0,0.0,0.0,0.0,0.0,0.0,0.0,0.0,0.0,0.0,0.0,0.0,0.0,-1.9723,-1.9723,-1.9723,-1.9723,-1.9723,0.0,0.0,0.0,0.0,0.0,0.0,0.0,0.0,0.0,0.0,0.0,0.0,0.0,0.0,0.0,0.0,0.0,0.0,0.0,0.0,0.0,0.0,0.0,0.0,0.0,0.0,0.0,0.0,0.0,0.0,0.0,0.0,0.0,0.0,0.0,0.0,0.0,0.0,0.0,0.0,0.0,0.0,0.0,0.0,0.0,0.0,0.0,0.0,0.0,0.0,0.0,0.0,0.0,0.0,0.0,0.0,0.0,0.0,0.0,0.0,0.0,0.0,0.0,0.0,0.0,0.0,0.0,0.0,0.0,0.0,0.0,0.0,0.0,0.0,0.0,0.0,0.0,0.0,0.0,0.0,0.0,0.0,0.0,0.0,0.0,0.0,0.0,0.0,0.0,0.0,0.0,0.0,0.0,0.0,0.0,0.0,0.0,0.0,0.0,0.0,0.0,0.0,0.0,0.0,0.0,0.0,0.0,0.0,0.0,0.0,0.0,0.0,-1.9768,-1.9723,-1.9723,0.0,0.0,0.0,0.0,0.0,0.0,0.0,0.0,0.0,0.0,0.0,0.0,0.0,0.0,0.0,0.0,0.0,0.0,0.0,0.0,0.0,0.0,0.0,0.0,0.0,0.0,0.0,0.0,0.0,0.0,0.0,0.0,0.0,0.0,0.0,0.0,0.0,0.0,0.0,0.0,0.0,0.0,0.0,0.0,0.0,0.0,0.0,0.0,0.0,0.0,0.0,0.0,0.0,0.0,0.0,0.0,0.0,0.0,0.0,0.0,0.0,0.0,0.0,0.0,0.0,0.0,0.0,0.0,0.0,0.0,0.0,0.0,0.0,0.0,0.0,0.0,0.0,0.0,0.0,0.0,0.0,0.0,0.0,0.0,0.0,0.0,0.0,0.0,0.0,0.0,0.0,0.0,0.0,0.0,0.0,0.0,0.0,0.0,0.0,0.0,0.0,0.0,0.0,0.0,0.0,0.0,0.0,0.0,0.0,0.0,-1.9989,-2.0583,-2.0019,0.0,-1.9723,0.0,0.0,0.0,0.0,0.0,0.0,0.0,0.0,0.0,0.0,0.0,0.0,0.0,0.0,0.0,0.0,0.0,0.0,0.0,0.0,0.0,0.0,0.0,0.0,0.0,0.0,0.0,0.0,0.0,0.0,0.0,0.0,0.0,0.0,0.0,0.0,0.0,0.0,0.0,0.0,0.0,0.0,0.0,0.0,0.0,0.0,0.0,0.0,0.0,0.0,0.0,0.0,0.0,0.0,0.0,0.0,0.0,0.0,0.0,0.0,0.0,0.0,0.0,0.0,0.0,0.0,0.0,0.0,0.0,0.0,0.0,0.0,0.0,0.0,0.0,0.0,0.0,0.0,0.0,0.0,0.0,0.0,0.0,0.0,0.0,0.0,0.0,0.0,0.0,0.0,0.0,0.0,0.0,0.0,0.0,0.0,0.0,0.0,0.0,0.0,0.0,0.0,0.0,0.0,0.0,0.0,0.0,0.0,0.0,0.0,0.0,-2.0094,-1.9857,-1.9723,0.0,0.0,0.0,0.0,0.0,0.0,0.0,0.0,0.0,0.0,0.0,0.0,0.0,0.0,0.0,0.0,0.0,0.0,0.0,0.0,0.0,0.0,0.0,0.0,0.0,0.0,0.0,0.0,0.0,0.0,0.0,0.0,0.0,0.0,0.0,0.0,0.0,0.0,0.0,0.0,0.0,0.0,0.0,0.0,0.0,0.0,0.0,0.0,0.0,0.0,0.0,0.0,0.0,0.0,0.0,0.0,0.0,0.0,0.0,0.0,0.0,0.0,0.0,0.0,0.0,0.0,0.0,0.0,0.0,0.0,0.0,0.0,0.0,0.0,0.0,0.0,0.0,0.0,0.0,0.0,0.0,0.0,0.0,0.0,0.0,0.0,0.0,0.0,0.0,0.0,0.0,0.0,0.0,0.0,0.0,0.0,0.0,0.0,0.0,0.0,0.0,0.0,0.0,0.0,0.0,0.0,0.0,0.0,0.0,0.0,-1.9798,0.0,-1.9723,-1.9723,-1.9723,-1.9723,0.0,0.0,0.0,0.0,0.0,0.0,0.0,0.0,0.0,0.0,0.0,0.0,0.0,0.0,0.0,0.0,0.0,0.0,0.0,0.0,0.0,0.0,0.0,0.0,0.0,0.0,0.0,0.0,0.0,0.0,0.0,0.0,0.0,0.0,0.0,0.0,0.0,0.0,0.0,0.0,0.0,0.0,0.0,0.0,0.0,0.0,0.0,0.0,0.0,0.0,0.0,0.0,0.0,0.0,0.0,0.0,0.0,0.0,0.0,0.0,0.0,0.0,0.0,0.0,0.0,0.0,0.0,0.0,0.0,0.0,0.0,0.0,0.0,0.0,0.0,0.0,0.0,0.0,0.0,0.0,0.0,0.0,0.0,0.0,0.0,0.0,0.0,0.0,0.0,0.0,0.0,0.0,0.0,0.0,0.0,0.0,0.0,0.0,0.0,0.0,0.0,0.0,0.0,0.0,0.0,0.0,0.0,0.0,0.0,-2.0019,-1.969,-1.9672,-1.9723,-1.9708,0.0,0.0,0.0,0.0,0.0,0.0,0.0,0.0,0.0,0.0,0.0,0.0,0.0,0.0,0.0,0.0,0.0,0.0,0.0,0.0,0.0,0.0,0.0,0.0,0.0,0.0,0.0,0.0,0.0,0.0,0.0,0.0,0.0,0.0,0.0,0.0,0.0,0.0,0.0,0.0,0.0,0.0,0.0,0.0,0.0,0.0,0.0,0.0,0.0,0.0,0.0,0.0,0.0,0.0,0.0,0.0,0.0,0.0,0.0,0.0,0.0,0.0,0.0,0.0,0.0,0.0,0.0,0.0,0.0,0.0,0.0,0.0,0.0,0.0,0.0,0.0,0.0,0.0,0.0,0.0,0.0,0.0,0.0,0.0,0.0,0.0,0.0,0.0,0.0,0.0,0.0,0.0,0.0,0.0,0.0,0.0,0.0,0.0,0.0,0.0,0.0,0.0,0.0,0.0,0.0,0.0,0.0,0.0,0.0,-1.9543,-1.9305,-1.9039,-1.8708,-1.9317,-1.9548,0.0,0.0,0.0,0.0,0.0,0.0,0.0,0.0,0.0,0.0,0.0,0.0,0.0,0.0,0.0,0.0,0.0,0.0,0.0,0.0,0.0,0.0,0.0,0.0,0.0,0.0,0.0,0.0,0.0,0.0,0.0,0.0,0.0,0.0,0.0,0.0,0.0,0.0,0.0,0.0,0.0,0.0,0.0,0.0,0.0,0.0,0.0,0.0,0.0,0.0,0.0,0.0,0.0,0.0,0.0,0.0,0.0,0.0,0.0,0.0,0.0,0.0,0.0,0.0,0.0,0.0,0.0,0.0,0.0,0.0,0.0,0.0,0.0,0.0,0.0,0.0,0.0,0.0,0.0,0.0,0.0,0.0,0.0,0.0,0.0,0.0,0.0,0.0,0.0,0.0,0.0,0.0,0.0,0.0,0.0,0.0,0.0,0.0,0.0,0.0,0.0,0.0,0.0,0.0,0.0,0.0,0.0,0.0,0.0,-1.865,0.0,-1.8477,0.0,-1.8803,-1.9006,0.0,0.0,0.0,0.0,0.0,0.0,0.0,0.0,0.0,0.0,0.0,0.0,0.0,0.0,0.0,0.0,0.0,0.0,0.0,0.0,0.0,0.0,0.0,0.0,0.0,0.0,0.0,0.0,0.0,0.0,0.0,0.0,0.0,0.0,0.0,0.0,0.0,0.0,0.0,0.0,0.0,0.0,0.0,0.0,0.0,0.0,0.0,0.0,0.0,0.0,0.0,0.0,0.0,0.0,0.0,0.0,0.0,0.0,0.0,0.0,0.0,0.0,0.0,0.0,0.0,0.0,0.0,0.0,0.0,0.0,0.0,0.0,0.0,0.0,0.0,0.0,0.0,0.0,0.0,0.0,0.0,0.0,0.0,0.0,0.0,0.0,0.0,0.0,0.0,0.0,0.0,0.0,0.0,0.0,0.0,0.0,0.0,0.0,0.0,0.0,0.0,0.0,0.0,0.0,0.0,0.0,0.0,0.0,-1.8092,-1.8106,-1.8092,-1.808,-1.8086,-1.8139,-1.8125,0.0,0.0,0.0,0.0,0.0,0.0,0.0,0.0,0.0,0.0,0.0,0.0,0.0,0.0,0.0,0.0,0.0,0.0,0.0,0.0,0.0,0.0,0.0,0.0,0.0,0.0,0.0,0.0,0.0,0.0,0.0,0.0,0.0,0.0,0.0,0.0,0.0,0.0,0.0,0.0,0.0,0.0,0.0,0.0,0.0,0.0,0.0,0.0,0.0,0.0,0.0,0.0,0.0,0.0,0.0,0.0,0.0,0.0,0.0,0.0,0.0,0.0,0.0,0.0,0.0,0.0,0.0,0.0,0.0,0.0,0.0,0.0,0.0,0.0,0.0,0.0,0.0,0.0,0.0,0.0,0.0,0.0,0.0,0.0,0.0,0.0,0.0,0.0,0.0,0.0,0.0,0.0,0.0,0.0,0.0,0.0,0.0,0.0,0.0,0.0,0.0,0.0,0.0,0.0,0.0,0.0,0.0,0.0,0.0,-1.7544,-1.7544,-1.7572,-1.7605,-1.7923,-1.8119,0.0,0.0,0.0,0.0,0.0,0.0,0.0,0.0,0.0,0.0,0.0,0.0,0.0,0.0,0.0,0.0,0.0,0.0,0.0,0.0,0.0,0.0,0.0,0.0,0.0,0.0,0.0,0.0,0.0,0.0,0.0,0.0,0.0,0.0,0.0,0.0,0.0,0.0,0.0,0.0,0.0,0.0,0.0,0.0,0.0,0.0,0.0,0.0,0.0,0.0,0.0,0.0,0.0,0.0,0.0,0.0,0.0,0.0,0.0,0.0,0.0,0.0,0.0,0.0,0.0,0.0,0.0,0.0,0.0,0.0,0.0,0.0,0.0,0.0,0.0,0.0,0.0,0.0,0.0,0.0,0.0,0.0,0.0,0.0,0.0,0.0,0.0,0.0,0.0,0.0,0.0,0.0,0.0,0.0,0.0,0.0,0.0,0.0,0.0,0.0,0.0,0.0,0.0,0.0,0.0,0.0,0.0,0.0,0.0,-1.7329,-1.7329,-1.7359,-1.7398,-1.7682,-1.7742,-1.7579,0.0,0.0,0.0,0.0,0.0,0.0,0.0,0.0,0.0,0.0,0.0,0.0,0.0,0.0,0.0,0.0,0.0,0.0,0.0,0.0,0.0,0.0,0.0,0.0,0.0,0.0,0.0,0.0,0.0,0.0,0.0,0.0,0.0,0.0,0.0,0.0,0.0,0.0,0.0,0.0,0.0,0.0,0.0,0.0,0.0,0.0,0.0,0.0,0.0,0.0,0.0,0.0,0.0,0.0,0.0,0.0,0.0,0.0,0.0,0.0,0.0,0.0,0.0,0.0,0.0,0.0,0.0,0.0,0.0,0.0,0.0,0.0,0.0,0.0,0.0,0.0,0.0,0.0,0.0,0.0,0.0,0.0,0.0,0.0,0.0,0.0,0.0,0.0,0.0,0.0,0.0,0.0,0.0,0.0,0.0,0.0,0.0,0.0,0.0,0.0,0.0,0.0,0.0,0.0,0.0,0.0,0.0,0.0,-1.7463,-1.7486,-1.7486,-1.7461,-1.7423,-1.7124,0.0,0.0,0.0,0.0,0.0,0.0,0.0,0.0,0.0,0.0,0.0,0.0,0.0,0.0,0.0,0.0,0.0,0.0,0.0,0.0,0.0,0.0,0.0,0.0,0.0,0.0,0.0,0.0,0.0,0.0,0.0,0.0,0.0,0.0,0.0,0.0,0.0,0.0,0.0,0.0,0.0,0.0,0.0,0.0,0.0,0.0,0.0,0.0,0.0,0.0,0.0,0.0,0.0,0.0,0.0,0.0,0.0,0.0,0.0,0.0,0.0,0.0,0.0,0.0,0.0,0.0,0.0,0.0,0.0,0.0,0.0,0.0,0.0,0.0,0.0,0.0,0.0,0.0,0.0,0.0,0.0,0.0,0.0,0.0,0.0,0.0,0.0,0.0,0.0,0.0,0.0,0.0,0.0,0.0,0.0,0.0,0.0,0.0,0.0,0.0,0.0,0.0,0.0,0.0,0.0,0.0,0.0,0.0,0.0,-1.8531,-1.8581,-1.8368,-1.8003,-1.7589,-1.7335,0.0,0.0,0.0,0.0,0.0,0.0,0.0,0.0,0.0,0.0,0.0,0.0,0.0,0.0,0.0,0.0,0.0,0.0,0.0,0.0,0.0,0.0,0.0,0.0,0.0,0.0,0.0,0.0,0.0,0.0,0.0,0.0,0.0,0.0,0.0,0.0,0.0,0.0,0.0,0.0,0.0,0.0,0.0,0.0,0.0,0.0,0.0,0.0,0.0,0.0,0.0,0.0,0.0,0.0,0.0,0.0,0.0,0.0,0.0,0.0,0.0,0.0,0.0,0.0,0.0,0.0,0.0,0.0,0.0,0.0,0.0,0.0,0.0,0.0,0.0,0.0,0.0,0.0,0.0,0.0,0.0,0.0,0.0,0.0,0.0,0.0,0.0,0.0,0.0,0.0,0.0,0.0,0.0,0.0,0.0,0.0,0.0,0.0,0.0,0.0,0.0,0.0,0.0,0.0,0.0,0.0,0.0,0.0,-1.8254,-1.9334,-1.9597,-1.9447,-1.8894,-1.8355,-1.7852,0.0,0.0,0.0,0.0,0.0,0.0,0.0,0.0,0.0,0.0,0.0,0.0,0.0,0.0,0.0,0.0,0.0,0.0,0.0,0.0,0.0,0.0,0.0,0.0,0.0,0.0,0.0,0.0,0.0,0.0,0.0,0.0,0.0,0.0,0.0,0.0,0.0,0.0,0.0,0.0,0.0,0.0,0.0,0.0,0.0,0.0,0.0,0.0,0.0,0.0,0.0,0.0,0.0,0.0,0.0,0.0,0.0,0.0,0.0,0.0,0.0,0.0,0.0,0.0,0.0,0.0,0.0,0.0,0.0,0.0,0.0,0.0,0.0,0.0,0.0,0.0,0.0,0.0,0.0,0.0,0.0,0.0,0.0,0.0,0.0,0.0,0.0,0.0,0.0,0.0,0.0,0.0,0.0,0.0,0.0,0.0,0.0,0.0,0.0,0.0,0.0,0.0,0.0,0.0,0.0,0.0,0.0,0.0,-1.8622,-1.9861,-2.0256,-2.0254,-1.9911,-1.9384,-1.8531,0.0,0.0,0.0,0.0,0.0,0.0,0.0,0.0,0.0,0.0,0.0,0.0,0.0,0.0,0.0,0.0,0.0,0.0,0.0,0.0,0.0,0.0,0.0,0.0,0.0,0.0,0.0,0.0,0.0,0.0,0.0,0.0,0.0,0.0,0.0,0.0,0.0,0.0,0.0,0.0,0.0,0.0,0.0,0.0,0.0,0.0,0.0,0.0,0.0,0.0,0.0,0.0,0.0,0.0,0.0,0.0,0.0,0.0,0.0,0.0,0.0,0.0,0.0,0.0,0.0,0.0,0.0,0.0,0.0,0.0,0.0,0.0,0.0,0.0,0.0,0.0,0.0,0.0,0.0,0.0,0.0,0.0,0.0,0.0,0.0,0.0,0.0,0.0,0.0,0.0,0.0,0.0,0.0,0.0,0.0,0.0,0.0,0.0,0.0,0.0,0.0,0.0,0.0,0.0,0.0,0.0,0.0,0.0,-1.7882,-2.0399,-1.9408,-1.9353,-2.0489,-1.9936,-1.892,0.0,0.0,0.0,0.0,0.0,0.0,0.0,0.0,0.0,0.0,0.0,0.0,0.0,0.0,0.0,0.0,0.0,0.0,0.0,0.0,0.0,0.0,0.0,0.0,0.0,0.0,0.0,0.0,0.0,0.0,0.0,0.0,0.0,0.0,0.0,0.0,0.0,0.0,0.0,0.0,0.0,0.0,0.0,0.0,0.0,0.0,0.0,0.0,-1.6824,0.0,0.0,0.0,0.0,0.0,0.0,0.0,0.0,0.0,0.0,0.0,0.0,0.0,0.0,0.0,0.0,0.0,0.0,0.0,0.0,0.0,0.0,0.0,0.0,0.0,0.0,0.0,0.0,0.0,0.0,0.0,0.0,0.0,0.0,0.0,0.0,0.0,0.0,0.0,0.0,0.0,0.0,0.0,0.0,0.0,0.0,0.0,0.0,0.0,0.0,0.0,0.0,0.0,0.0,0.0,0.0,0.0,0.0,0.0,-1.7828,-1.986,-1.9296,-1.9278,-1.992,-1.9634,-1.8936,0.0,0.0,0.0,0.0,0.0,0.0,0.0,0.0,0.0,0.0,0.0,0.0,0.0,0.0,0.0,0.0,0.0,0.0,0.0,0.0,0.0,0.0,0.0,0.0,0.0,0.0,0.0,0.0,0.0,0.0,0.0,0.0,0.0,0.0,0.0,0.0,0.0,0.0,0.0,0.0,0.0,0.0,0.0,0.0,0.0,0.0,0.0,0.0,0.0,0.0,0.0,0.0,0.0,0.0,0.0,0.0,0.0,0.0,0.0,0.0,0.0,0.0,0.0,0.0,0.0,0.0,0.0,0.0,0.0,0.0,0.0,0.0,0.0,0.0,0.0,0.0,0.0,0.0,0.0,0.0,0.0,0.0,0.0,0.0,0.0,0.0,0.0,0.0,0.0,0.0,0.0,0.0,0.0,0.0,0.0,0.0,0.0,0.0,0.0,0.0,0.0,0.0,0.0,0.0,0.0,0.0,0.0,-1.6785,-1.7737,-1.9048,-1.921,-1.919,-1.9093,-1.8885,-1.8508,-1.792,0.0,0.0,0.0,0.0,0.0,0.0,0.0,0.0,0.0,0.0,0.0,0.0,0.0,0.0,0.0,0.0,0.0,0.0,0.0,0.0,0.0,0.0,0.0,0.0,0.0,0.0,0.0,0.0,0.0,0.0,0.0,0.0,0.0,0.0,0.0,0.0,0.0,0.0,-1.5708,-1.6784,0.0,0.0,0.0,0.0,0.0,0.0,0.0,0.0,-1.7266,0.0,0.0,0.0,0.0,0.0,0.0,0.0,0.0,0.0,0.0,0.0,0.0,0.0,0.0,0.0,0.0,0.0,0.0,0.0,0.0,0.0,0.0,0.0,0.0,0.0,0.0,0.0,0.0,0.0,0.0,0.0,0.0,0.0,0.0,0.0,0.0,0.0,0.0,0.0,0.0,0.0,0.0,0.0,0.0,0.0,0.0,0.0,0.0,0.0,0.0,0.0,0.0,0.0,0.0,0.0,0.0,-1.5924,-1.5478,-1.6477,-1.8978,-1.7843,-1.7781,-1.9011,-1.8073,-1.7192,-1.6603,0.0,0.0,0.0,0.0,0.0,0.0,0.0,0.0,0.0,0.0,0.0,0.0,0.0,0.0,0.0,0.0,0.0,0.0,0.0,0.0,0.0,0.0,0.0,0.0,0.0,0.0,0.0,0.0,0.0,0.0,0.0,0.0,0.0,0.0,0.0,0.0,0.0,0.0,0.0,-1.764,-1.81,0.0,0.0,0.0,0.0,0.0,0.0,0.0,0.0,-1.6594,0.0,0.0,0.0,0.0,0.0,0.0,0.0,0.0,0.0,0.0,0.0,0.0,0.0,0.0,0.0,0.0,0.0,0.0,0.0,0.0,0.0,0.0,0.0,0.0,0.0,0.0,0.0,0.0,0.0,0.0,0.0,0.0,0.0,0.0,0.0,0.0,0.0,0.0,0.0,0.0,0.0,0.0,0.0,0.0,0.0,0.0,0.0,0.0,0.0,0.0,0.0,0.0,0.0,0.0,0.0,-1.529,-1.5614,-1.6577,-1.8124,-1.7468,-1.7326,-1.7801,-1.6837,-1.6069,0.0,0.0,0.0,0.0,0.0,0.0,0.0,0.0,0.0,0.0,0.0,0.0,0.0,0.0,0.0,0.0,0.0,0.0,0.0,0.0,0.0,0.0,0.0,0.0,0.0,0.0,0.0,0.0,0.0,0.0,0.0,0.0,0.0,0.0,0.0,0.0,0.0,0.0,0.0,0.0,-1.7534,-1.7883,-1.8343,0.0,0.0,0.0,0.0,0.0,0.0,-1.6267,-1.5948,0.0,0.0,0.0,0.0,0.0,0.0,0.0,0.0,0.0,0.0,0.0,0.0,0.0,0.0,0.0,0.0,0.0,0.0,0.0,0.0,0.0,0.0,0.0,0.0,0.0,0.0,0.0,0.0,0.0,0.0,0.0,0.0,0.0,0.0,0.0,0.0,0.0,0.0,0.0,0.0,0.0,0.0,0.0,0.0,0.0,0.0,0.0,0.0,0.0,0.0,0.0,0.0,0.0,0.0,0.0,-1.4833,-1.5986,-1.6807,-1.7227,-1.7256,-1.7041,-1.657,-1.579,-1.5226,0.0,0.0,0.0,0.0,0.0,0.0,0.0,0.0,0.0,0.0,0.0,0.0,0.0,0.0,0.0,0.0,0.0,0.0,0.0,0.0,0.0,0.0,0.0,0.0,0.0,0.0,0.0,0.0,0.0,0.0,0.0,0.0,0.0,0.0,0.0,0.0,0.0,0.0,0.0,0.0,0.0,-1.7899,-1.8219,-1.7861,0.0,0.0,0.0,0.0,-1.7144,-1.6557,0.0,0.0,0.0,0.0,0.0,0.0,0.0,0.0,0.0,0.0,0.0,0.0,0.0,0.0,0.0,0.0,0.0,0.0,0.0,0.0,0.0,0.0,0.0,0.0,0.0,0.0,0.0,0.0,0.0,0.0,0.0,0.0,0.0,0.0,0.0,0.0,0.0,0.0,0.0,0.0,0.0,0.0,0.0,0.0,0.0,0.0,0.0,0.0,0.0,0.0,0.0,0.0,0.0,0.0,0.0,0.0,-1.4803,-1.5703,-1.6367,-1.6755,-1.6775,-1.6592,-1.6173,-1.5664,-1.5048,0.0,0.0,0.0,0.0,0.0,0.0,0.0,0.0,0.0,0.0,0.0,0.0,0.0,0.0,0.0,0.0,0.0,0.0,0.0,0.0,0.0,0.0,0.0,0.0,0.0,0.0,0.0,0.0,0.0,0.0,0.0,0.0,0.0,0.0,0.0,0.0,0.0,0.0,0.0,0.0,0.0,-1.8688,-1.7671,-1.7465,-1.729,0.0,0.0,-1.7425,-1.7815,-1.8081,0.0,0.0,0.0,0.0,0.0,0.0,0.0,0.0,0.0,0.0,0.0,0.0,0.0,0.0,0.0,0.0,0.0,0.0,0.0,0.0,0.0,0.0,0.0,0.0,0.0,0.0,0.0,0.0,0.0,0.0,0.0,0.0,0.0,0.0,0.0,0.0,0.0,0.0,0.0,0.0,0.0,0.0,0.0,0.0,0.0,0.0,0.0,0.0,0.0,0.0,0.0,0.0,0.0,0.0,0.0,-1.425,-1.5137,-1.5996,-1.666,-1.707,-1.6833,-1.6482,-1.6105,-1.541,-1.4766,0.0,0.0,0.0,0.0,0.0,0.0,0.0,0.0,0.0,0.0,0.0,0.0,0.0,0.0,0.0,0.0,0.0,0.0,0.0,0.0,0.0,0.0,0.0,0.0,0.0,0.0,0.0,0.0,0.0,0.0,0.0,0.0,0.0,0.0,0.0,0.0,0.0,0.0,0.0,0.0,0.0,0.0,-1.8531,-1.8457,0.0,0.0,0.0,-1.8252,-1.8672,0.0,0.0,0.0,0.0,0.0,0.0,0.0,0.0,0.0,0.0,0.0,0.0,0.0,0.0,0.0,0.0,0.0,0.0,0.0,0.0,0.0,0.0,0.0,0.0,0.0,0.0,0.0,0.0,0.0,0.0,0.0,0.0,0.0,0.0,0.0,0.0,0.0,0.0,0.0,0.0,0.0,0.0,0.0,0.0,0.0,0.0,0.0,0.0,0.0,0.0,0.0,0.0,0.0,0.0,0.0,0.0,0.0,-1.5244,-1.6123,-1.6728,-1.7063,-1.6738,-1.6348,-1.5938,-1.5312,0.0,0.0,0.0,0.0,0.0,0.0,0.0,0.0,0.0,0.0,0.0,0.0,0.0,0.0,0.0,0.0,0.0,0.0,0.0,0.0,0.0,0.0,0.0,0.0,0.0,0.0,0.0,-1.2379,0.0,0.0,0.0,0.0,0.0,0.0,0.0,0.0,0.0,0.0,0.0,0.0,0.0,0.0,-1.9046,-1.9394,-1.9531,-1.9531,0.0,0.0,-1.9228,-1.9551,-1.9609,-1.9199,0.0,0.0,0.0,0.0,0.0,0.0,0.0,0.0,0.0,0.0,0.0,0.0,0.0,0.0,0.0,0.0,0.0,0.0,0.0,0.0,0.0,0.0,0.0,0.0,0.0,0.0,0.0,0.0,0.0,0.0,0.0,0.0,0.0,0.0,0.0,0.0,0.0,0.0,0.0,0.0,0.0,0.0,0.0,0.0,0.0,0.0,0.0,0.0,0.0,0.0,0.0,0.0,0.0,0.0,0.0,-1.4834,-1.5703,-1.6173,-1.6183,-1.6153,-1.5898,-1.5469,-1.54,-1.4952,0.0,0.0,0.0,0.0,0.0,0.0,0.0,0.0,0.0,0.0,0.0,0.0,0.0,0.0,0.0,0.0,0.0,0.0,0.0,0.0,0.0,0.0,0.0,0.0,0.0,0.0,0.0,0.0,0.0,0.0,0.0,0.0,0.0,0.0,0.0,0.0,0.0,0.0,0.0,0.0,0.0,-1.9834,-1.9863,-2.0225,-2.0615,0.0,0.0,-2.0488,-2.0517,-2.1465,-2.1162,-1.7949,0.0,0.0,0.0,0.0,0.0,0.0,0.0,0.0,0.0,0.0,0.0,0.0,0.0,0.0,0.0,0.0,0.0,0.0,0.0,0.0,0.0,0.0,0.0,0.0,0.0,0.0,0.0,0.0,0.0,0.0,0.0,0.0,0.0,0.0,0.0,0.0,0.0,0.0,0.0,0.0,0.0,0.0,0.0,0.0,0.0,0.0,0.0,0.0,0.0,0.0,0.0,0.0,0.0,-1.4319,-1.4813,-1.5898,-1.6348,-1.6114,-1.6328,-1.6133,-1.543,-1.542,-1.4981,0.0,0.0,0.0,0.0,0.0,0.0,0.0,0.0,0.0,0.0,0.0,0.0,0.0,0.0,0.0,0.0,0.0,0.0,0.0,0.0,0.0,0.0,0.0,0.0,0.0,0.0,0.0,0.0,-1.3115,-1.3051,-1.3252,0.0,0.0,0.0,0.0,0.0,0.0,0.0,0.0,0.0,0.0,-2.0117,-2.0615,-2.1103,0.0,0.0,-2.1484,-2.1515,-2.1719,-2.1504,-2.0674,-1.8848,-1.8037,0.0,0.0,0.0,0.0,0.0,0.0,0.0,0.0,0.0,0.0,0.0,0.0,0.0,0.0,0.0,0.0,0.0,0.0,0.0,0.0,0.0,0.0,0.0,0.0,0.0,0.0,0.0,0.0,0.0,0.0,0.0,0.0,0.0,0.0,0.0,0.0,0.0,0.0,0.0,0.0,0.0,0.0,0.0,0.0,0.0,0.0,0.0,0.0,0.0,0.0,0.0,0.0,-1.3644,-1.4091,-1.516,-1.5635,-1.5436,-1.5977,-1.5944,-1.524,-1.5458,-1.5137,0.0,0.0,0.0,0.0,0.0,0.0,0.0,0.0,0.0,0.0,0.0,0.0,0.0,0.0,0.0,0.0,0.0,0.0,0.0,0.0,0.0,0.0,0.0,0.0,0.0,0.0,0.0,0.0,-1.3176,-1.2989,-1.2989,0.0,0.0,0.0,0.0,0.0,0.0,0.0,0.0,0.0,0.0,-1.9954,-2.0916,-2.1617,-2.1984,-2.1753,-2.1823,-2.1982,-2.2285,-2.167,-2.0723,-1.9482,0.0,0.0,0.0,0.0,0.0,0.0,0.0,0.0,0.0,0.0,0.0,0.0,0.0,0.0,0.0,0.0,0.0,0.0,0.0,0.0,0.0,0.0,0.0,0.0,0.0,0.0,0.0,-1.2891,0.0,0.0,-1.2866,0.0,0.0,0.0,0.0,0.0,0.0,0.0,0.0,0.0,0.0,0.0,0.0,0.0,0.0,0.0,0.0,0.0,0.0,0.0,0.0,0.0,0.0,-1.2149,-1.2451,-1.3207,-1.3671,-1.3983,-1.4835,-1.5141,-1.4755,-1.5579,-1.5439,-1.4116,0.0,0.0,0.0,0.0,0.0,0.0,0.0,0.0,0.0,0.0,0.0,0.0,0.0,0.0,0.0,0.0,0.0,0.0,0.0,0.0,0.0,0.0,0.0,0.0,0.0,0.0,-1.3397,-1.2497,-1.1859,0.0,0.0,0.0,0.0,0.0,0.0,0.0,0.0,0.0,0.0,-1.8228,-1.9412,-2.0551,-2.1726,-2.2102,-2.138,-2.1608,-2.1863,-2.186,-2.2155,-2.1748,0.0,0.0,0.0,0.0,0.0,0.0,0.0,0.0,0.0,0.0,0.0,0.0,0.0,0.0,0.0,0.0,0.0,0.0,0.0,0.0,0.0,0.0,0.0,0.0,0.0,0.0,0.0,-1.2255,-1.2121,0.0,0.0,0.0,0.0,0.0,0.0,0.0,0.0,0.0,0.0,0.0,-1.2289,-1.1997,0.0,0.0,0.0,0.0,0.0,0.0,0.0,0.0,0.0,0.0,0.0,0.0,-1.2056,-1.2438,-1.3382,-1.3868,-1.3892,-1.448,-1.4596,-1.4177,-1.4274,-1.4001,-1.3314,0.0,0.0,0.0,0.0,0.0,0.0,0.0,0.0,0.0,0.0,0.0,0.0,0.0,0.0,0.0,0.0,0.0,0.0,0.0,0.0,0.0,0.0,0.0,0.0,0.0,-1.1981,0.0,0.0,0.0,0.0,0.0,0.0,0.0,0.0,0.0,0.0,0.0,-1.5121,-1.6265,-1.7612,-1.8651,-1.9109,-1.9947,-2.0391,0.0,0.0,0.0,0.0,0.0,0.0,0.0,0.0,0.0,0.0,0.0,0.0,0.0,0.0,-2.1543,-1.8555,-1.7656,-1.7402,-1.7516,0.0,0.0,0.0,0.0,0.0,0.0,0.0,0.0,0.0,0.0,0.0,0.0,0.0,0.0,-1.2217,0.0,-1.2051,0.0,0.0,0.0,0.0,0.0,0.0,0.0,0.0,-1.1641,-1.1887,-1.217,-1.1916,-1.1761,0.0,-1.1707,-1.1335,0.0,0.0,0.0,0.0,0.0,0.0,0.0,0.0,-1.1475,-1.1928,-1.285,-1.3358,-1.3378,-1.3897,-1.4016,-1.3608,-1.3357,-1.2989,-1.2642,-1.1997,-1.1711,0.0,0.0,0.0,0.0,0.0,0.0,0.0,0.0,0.0,0.0,0.0,0.0,0.0,0.0,0.0,0.0,0.0,0.0,0.0,0.0,0.0,0.0,0.0,-1.1776,0.0,0.0,0.0,0.0,0.0,0.0,0.0,0.0,0.0,-1.3057,-1.41,-1.5178,-1.6166,-1.7196,-1.7902,-1.8125,0.0,0.0,0.0,0.0,0.0,0.0,0.0,-1.8763,-1.8967,-1.9048,-1.9358,-2.0084,-2.1608,-2.2744,-2.2532,0.0,0.0,-2.0742,-1.9883,-1.9619,-1.9766,-2.0469,-2.0977,-2.0732,-2.1523,-2.2207,0.0,0.0,0.0,0.0,0.0,0.0,0.0,0.0,-1.2608,-1.2704,0.0,-1.2664,0.0,0.0,0.0,0.0,0.0,-1.1706,0.0,0.0,-1.1658,-1.1779,-1.1476,-1.1476,-1.1309,-1.1062,-1.1081,-1.0747,-1.0211,-1.0926,0.0,0.0,0.0,0.0,0.0,0.0,-1.0414,-1.1008,-1.1626,-1.2047,-1.2345,-1.3193,-1.3445,-1.3077,-1.285,-1.2552,-1.2086,-1.1797,-1.1183,-1.014,-1.0464,0.0,0.0,0.0,0.0,0.0,0.0,0.0,0.0,0.0,0.0,0.0,0.0,0.0,0.0,0.0,0.0,0.0,0.0,0.0,0.0,-1.2318,0.0,0.0,0.0,0.0,0.0,0.0,0.0,0.0,0.0,0.0,-1.2927,-1.4064,-1.5374,-1.6577,0.0,0.0,0.0,0.0,-1.8948,-1.7824,-1.8214,-1.8718,-1.8771,-1.873,-1.8575,-1.8246,0.0,0.0,-1.9451,-2.0914,-2.217,-2.2519,-2.3613,-2.4414,-2.4316,-2.3232,-2.2637,-2.3032,-2.251,-2.2314,-2.3032,-2.3203,-2.3344,-1.3414,0.0,0.0,0.0,0.0,-1.248,-1.2613,-1.3019,-1.2817,-1.2558,-1.2227,-1.2142,0.0,0.0,0.0,0.0,0.0,0.0,-1.1689,-1.1937,-1.2355,-1.2482,-1.2402,-1.2402,-1.2141,-1.1658,-1.1651,-1.1316,-1.0787,-1.0972,-1.0604,-0.9683,0.0,0.0,0.0,0.0,-1.0653,-1.1002,-1.1577,-1.2011,-1.2291,-1.2549,-1.2558,-1.2261,-1.1955,-1.1801,-1.1744,-1.1428,-1.1262,-1.1223,-1.1133,0.0,0.0,0.0,0.0,0.0,0.0,0.0,0.0,0.0,0.0,0.0,0.0,0.0,0.0,0.0,0.0,0.0,0.0,0.0,-1.0516,-1.0472,-1.0405,0.0,0.0,0.0,0.0,0.0,0.0,0.0,0.0,0.0,-1.3695,-1.4439,-1.5101,0.0,0.0,-1.6152,-1.6088,-1.6521,-1.6756,-1.6386,-1.6537,0.0,-1.6661,-1.6905,-1.7264,-1.7788,-1.8894,-2.0058,-2.1105,-2.1898,-2.275,-2.3661,-2.417,-2.4424,-2.4404,-2.415,-2.3926,-2.4023,-2.4092,-2.4255,-2.4519,-2.4756,-2.4962,-1.4008,-1.332,-1.2859,-1.2766,-1.2958,-1.2866,-1.2934,-1.3167,-1.3133,-1.2906,-1.2565,-1.2452,-1.2074,-1.145,-1.1216,0.0,0.0,0.0,-1.2204,-1.2672,-1.2884,-1.2965,-1.2965,-1.2971,-1.2717,-1.2261,-1.2134,-1.1797,-1.1377,-1.1223,-1.0716,-0.993,0.0,0.0,-0.9757,-1.0521,-1.1049,-1.1383,-1.1839,-1.2131,-1.2298,-1.2305,-1.2218,-1.2044,-1.175,-1.1635,-1.1697,-1.1291,-1.113,-1.1255,-1.0982,-1.0846,0.0,0.0,0.0,0.0,0.0,0.0,0.0,0.0,0.0,0.0,0.0,-1.1048,-1.1009,0.0,0.0,0.0,-1.0656,-1.0478,-1.0218,-1.0414,0.0,0.0,0.0,0.0,0.0,0.0,0.0,-1.2565,-1.3394,-1.4035,-1.4439,-1.4943,-1.5304,-1.5311,-1.5611,-1.5718,-1.5591,0.0,-1.5825,-1.5825,-1.5825,-1.5825,-1.5825,-1.5982,-1.637,-1.6879,-1.7725,-1.8895,-2.0267,-2.0759,-2.1371,-2.2653,-2.3495,-2.3956,-2.3947,-2.4419,-2.4826,-2.4727,-2.5029,-2.5322,-2.5342,-2.5499,-2.5684,-1.5042,-1.4948,-1.3808,-1.3353,-1.3373,-1.36,-1.356,-1.338,-1.36,-1.368,-1.362,-1.3353,-1.31,-1.279,-1.2261,0.0,-1.2851,-1.2857,-1.3018,-1.328,-1.3287,-1.3267,-1.3247,-1.3247,-1.3086,-1.2811,-1.2478,-1.2198,-1.1966,-1.1643,-1.1349,-1.1056,-1.0854,-1.0693,-1.066,-1.1162,-1.1597,-1.1906,-1.2151,-1.2305,-1.2305,-1.2305,-1.2305,-1.2298,-1.2053,-1.1899,-1.1886,-1.1303,-1.0901,-1.064,-1.0287,-1.0155,-1.0269,0.0,0.0,0.0,0.0,0.0,0.0,0.0,0.0,0.0,0.0,0.0,0.0,0.0,0.0,0.0,-1.085,0.0,-1.1062,-1.153,0.0,0.0,0.0,-1.1523,-1.1555,-1.2388,-1.3012,-1.3273,0.0,0.0,-1.5042,-1.5478,-1.5825,-1.5825,-1.5825,-1.5825,-1.5825,-1.5825,-1.5825,-1.5825,-1.5825,-1.5825,-1.5825,-1.5846,-1.588,-1.5913,-1.5825,-1.6551,-1.804,-1.8409,-1.901,-2.0847,-2.2215,-2.3274,-2.3283,-2.4592,-2.5557,-2.5155,-2.541,-2.5674,-2.5654,-2.5674,-2.5684,-1.5297,-1.5251,-1.48,-1.4586,-1.4556,-1.4616,-1.4616,-1.4599,-1.4616,-1.4402,-1.3981,-1.3908,-1.3587,-1.3093,-1.2953,-1.3093,-1.3387,-1.3387,-1.3594,-1.3874,-1.3881,-1.3761,-1.3507,-1.3507,-1.3387,-1.3086,-1.2831,-1.2643,-1.2563,-1.2238,-1.1951,-1.1712,-1.181,-1.1557,-1.0935,-1.147,-1.1832,-1.1906,-1.2158,-1.2305,-1.2305,-1.2305,-1.2305,-1.2298,-1.2017,-1.1906,-1.1899,-1.1337,-1.0955,-1.0914,-1.0394,-1.0114,-1.0144,-0.9734,0.0,0.0,0.0,0.0,0.0,0.0,0.0,0.0,0.0,-1.0072,-0.9736,0.0,-1.0239,0.0,-1.0703,-1.1176,-1.1651,-1.1583,0.0,0.0,-1.2191,-1.2365,-1.3,-1.35,-1.3881,-1.4175,-1.485,-1.5297,-1.5291,-1.5605,-1.5825,-1.5825,-1.5825,-1.5825,-1.5825,-1.5825,-1.5825,-1.5825,-1.5825,-1.5825,-1.5825,-1.5825,-1.5825,-1.5825,-1.5825,-1.6347,-1.7879,-1.8122,-1.8978,-2.141,-2.2289,-2.2977,-2.3824,-2.478,-2.5138,-2.5165,-2.543,-2.5684,-2.5684,-2.5684,-2.5684,-1.5585,-1.5578,-1.5418,-1.5351,-1.5337,-1.5211,-1.5129,-1.5022,-1.5142,-1.4948,-1.4519,-1.4482,-1.4295,-1.3988,-1.3854,-1.384,-1.3973,-1.3901,-1.3928,-1.4082,-1.4088,-1.3995,-1.3841,-1.38,-1.3687,-1.336,-1.3227,-1.308,-1.2946,-1.2792,-1.2625,-1.2509,-1.2632,-1.2465,-1.2004,-1.2037,-1.2064,-1.2064,-1.2225,-1.2305,-1.2305,-1.2305,-1.2245,-1.2147,-1.1986,-1.1839,-1.1677,-1.1236,-1.0995,-1.0982,-1.0555,-1.0254,-1.009,-0.9777,-0.9484,0.0,0.0,0.0,0.0,0.0,0.0,0.0,0.0,0.0,0.0,0.0,-1.0421,-1.0649,-1.1229,-1.1817,-1.2412,-1.2552,-1.2806,-1.3333,-1.3474,-1.3634,-1.3959,-1.4366,-1.473,-1.4897,-1.5311,-1.5591,-1.5591,-1.5684,-1.5825,-1.5825,-1.5825,-1.5825,-1.5825,-1.5825,-1.5825,-1.5825,-1.5825,-1.5825,-1.5825,-1.5825,-1.5825,-1.5791,-1.5939,-1.632,-1.7146,-1.7385,-1.8008,-1.953,-2.0467,-2.1408,-2.2715,-2.3819,-2.4601,-2.5247,-2.5566,-2.5664,-2.5684,-2.5684,-2.5684,-1.5825,-1.5825,-1.5825,-1.5825,-1.5758,-1.5565,-1.5311,-1.5135,-1.5344,-1.5291,-1.5062,-1.5028,-1.5015,-1.4995,-1.4689,-1.4576,-1.4512,-1.4309,-1.4182,-1.4148,-1.4142,-1.4128,-1.4088,-1.4088,-1.3948,-1.366,-1.362,-1.3467,-1.3273,-1.3233,-1.3206,-1.3206,-1.3206,-1.3206,-1.3186,-1.2685,-1.2378,-1.2305,-1.2305,-1.2305,-1.2305,-1.2305,-1.2164,-1.1919,-1.1906,-1.1724,-1.1402,-1.1182,-1.1049,-1.1042,-1.0801,-1.0501,-1.0247,-1.016,-0.9857,0.0,-0.9324,0.0,0.0,0.0,0.0,0.0,0.0,0.0,0.0,-1.0948,-1.1102,-1.1568,-1.2151,-1.2719,-1.3327,-1.3841,-1.4155,-1.4215,-1.4727,-1.4917,-1.4683,-1.5117,-1.5451,-1.5451,-1.5671,-1.5825,-1.5818,-1.5825,-1.5825,-1.5825,-1.5825,-1.5825,-1.5825,-1.5825,-1.5825,-1.5825,-1.5825,-1.5825,-1.5838,-1.5872,-1.5899,-1.5925,-1.6139,-1.6333,-1.6511,-1.665,-1.6924,-1.7287,-1.8542,-1.9791,-2.1023,-2.2492,-2.3822,-2.5041,-2.5314,-2.5421,-2.5635,-2.5684,-2.5684,-1.5825,-1.5825,-1.5825,-1.5825,-1.5818,-1.5724,-1.5718,-1.5671,-1.5678,-1.5585,-1.5297,-1.5115,-1.5015,-1.5001,-1.4955,-1.4877,-1.4928,-1.4867,-1.4669,-1.4442,-1.4436,-1.4315,-1.4088,-1.4088,-1.4062,-1.3988,-1.372,-1.3573,-1.352,-1.3327,-1.3206,-1.3206,-1.3206,-1.3206,-1.32,0.0,0.0,0.0,-1.2305,-1.2305,-1.2305,-1.2305,-1.2164,-1.1919,-1.1906,0.0,-1.1409,-1.1342,-1.1343,-1.1329,-1.1062,0.0,0.0,0.0,0.0,0.0,0.0,0.0,0.0,0.0,0.0,0.0,-1.1551,-1.1423,-1.1335,-1.1986,-1.2522,-1.2846,-1.3147,-1.3593,-1.4208,-1.4369,-1.4529,-1.4776,-1.5104,-1.5291,-1.5244,-1.5538,-1.5745,-1.5745,-1.5798,-1.5825,-1.5825,-1.5825,-1.5825,-1.5825,-1.5825,-1.5825,-1.5825,-1.5825,-1.5825,-1.5825,-1.5825,-1.5825,-1.5825,-1.6032,-1.6159,-1.6226,-1.6426,-1.6693,-1.6958,-1.7052,-1.7661,-1.8605,-1.9295,-1.9933,-2.1283,-2.1862,-2.2517,-2.384,-2.4097,-2.4402,-2.543,-2.5684,-2.5684,-1.5825,0.0,-1.5825,-1.5825,0.0,-1.5825,-1.5825,-1.5825,-1.5825,-1.5698,-1.5605,-1.5458,-1.5398,-1.5384,-1.5244,-1.5177,-1.517,-1.5075,-1.4928,-1.4736,-1.4583,-1.4442,-1.4295,-1.4155,-1.4088,-1.4082,-1.3935,-1.3868,-1.3854,-1.3714,-1.3641,-1.3641,-1.3641,-1.3641,-1.3641,-1.3453,-1.3126,-1.2563,-1.2518,-1.2452,-1.2311,-1.2305,-1.2164,-1.1919,-1.1906,0.0,0.0,0.0,0.0,0.0,0.0,0.0,0.0,0.0,0.0,-1.0736,-1.0902,-1.0982,-1.0995,-1.1396,-1.183,-1.2308,-1.275,-1.2772,-1.2338,-1.2846,-1.3373,-1.3814,-1.3946,-1.4272,-1.4883,-1.4957,-1.507,-1.5357,-1.5518,-1.5611,-1.5625,-1.5738,-1.5825,-1.5825,-1.5825,-1.5825,-1.5825,-1.5825,-1.5825,-1.5825,-1.5825,-1.5825,-1.5825,-1.5825,-1.5825,-1.5825,-1.5825,-1.5879,-1.6025,-1.6159,-1.6339,-1.6473,-1.6727,-1.6961,-1.7172,-1.732,-1.7676,-1.8478,-1.861,-1.9065,-2.0282,-2.0684,-2.1296,-2.3135,-2.3692,-2.4146,-2.5382,-2.5684,-2.5684,-1.5825,-1.5825,-1.5825,-1.5825,-1.5825,-1.5825,-1.5825,-1.5825,0.0,0.0,0.0,-1.5825,-1.5825,-1.5764,-1.5578,-1.5478,-1.5451,-1.5269,-1.5135,-1.5075,-1.4796,-1.4649,-1.4583,-1.4302,-1.4168,-1.4162,-1.4108,-1.4088,-1.4088,-1.4088,-1.4088,-1.4088,-1.4088,-1.4088,-1.4075,-1.38,-1.3454,-1.2971,-1.2891,-1.2723,-1.2398,-1.2378,-1.2218,-1.1913,-1.1906,-1.1651,-1.1102,-1.1349,-1.1283,-1.0868,-1.1249,-1.1416,-1.1249,-1.1403,-1.153,-1.1555,-1.1857,-1.206,-1.2067,-1.2345,-1.2685,-1.3079,-1.3829,-1.4021,-1.348,-1.3666,-1.4095,-1.4636,-1.4632,-1.489,-1.5418,-1.5471,-1.5571,-1.5805,-1.5825,-1.5825,-1.5825,-1.5825,-1.5825,-1.5825,-1.5825,-1.5825,-1.5825,-1.5825,-1.5825,-1.5825,-1.5825,-1.5825,-1.5825,-1.5825,-1.5825,-1.5825,-1.5825,-1.5912,-1.6126,-1.6313,-1.6433,-1.6653,-1.6981,-1.7273,-1.7313,-1.7474,-1.7569,-1.7681,-1.7641,-1.8101,-1.8968,-1.9265,-2.0135,-2.2475,-2.3226,-2.3741,-2.4971,-2.5538,-2.5693,-1.5825,-1.5825,-1.5825,-1.5825,-1.5825,-1.5825,-1.5825,-1.5825,-1.5825,-1.5825,-1.5825,-1.5825,-1.5825,-1.5825,-1.5738,-1.5765,-1.5765,-1.5725,-1.5571,-1.5337,-1.5284,-1.5144,-1.4934,-1.4596,-1.4462,-1.4442,-1.4202,-1.4088,-1.4088,-1.4088,-1.4088,-1.4088,-1.4088,-1.4088,-1.4082,-1.4041,-1.3861,-1.348,-1.3234,-1.2993,-1.273,-1.2723,-1.2455,-1.194,-1.1913,-1.1752,-1.1355,-1.1657,-1.177,-1.1725,-1.1799,-1.1897,-1.2098,-1.1924,-1.1917,-1.2171,-1.2496,-1.2656,-1.2677,-1.314,-1.3653,-1.4222,-1.4623,-1.4696,-1.4382,-1.4609,-1.4917,-1.5237,-1.5264,-1.5404,-1.5725,-1.5758,-1.5765,-1.5771,-1.5825,-1.5825,-1.5825,-1.5825,-1.5825,-1.5825,-1.5825,-1.5825,-1.5825,-1.5825,-1.5825,-1.5825,-1.5825,-1.5825,-1.5825,-1.5825,-1.5825,-1.5825,-1.5825,-1.5845,-1.6012,-1.6346,-1.664,-1.6693,-1.7168,-1.7488,-1.7534,-1.7542,-1.7589,-1.7589,-1.7589,-1.774,-1.7989,-1.7891,-1.876,-2.0341,-2.1448,-2.2517,-2.3989,-2.502,-2.5684,-1.5825,-1.5825,-1.5825,-1.5825,-1.5825,-1.5825,-1.5825,-1.5825,-1.5825,-1.5825,-1.5825,-1.5825,-1.5825,-1.5825,-1.5825,-1.5825,-1.5825,-1.5825,-1.5758,-1.5625,-1.5464,-1.5324,-1.5223,-1.4903,-1.4676,-1.4522,-1.4389,-1.4242,-1.4102,-1.4088,-1.4088,-1.4088,-1.4088,-1.4088,-1.4088,-1.4088,-1.4015,-1.384,-1.3553,-1.33,-1.3006,-1.2999,-1.2866,-1.2599,-1.2592,-1.2489,-1.2194,-1.2432,-1.2445,-1.2118,-1.2418,-1.2585,-1.2583,-1.2579,-1.2659,-1.2792,-1.3073,-1.33,-1.3507,-1.4028,-1.4543,-1.4957,-1.5124,-1.5217,-1.5185,-1.5204,-1.5324,-1.5591,-1.5631,-1.5685,-1.5771,-1.5825,-1.5825,-1.5825,-1.5825,-1.5825,-1.5825,-1.5825,-1.5825,-1.5825,-1.5825,-1.5825,-1.5825,-1.5825,-1.5825,-1.5825,-1.5825,-1.5825,-1.5825,-1.5825,-1.5825,-1.5838,-1.5959,-1.6132,-1.6279,-1.6653,-1.6974,-1.7141,-1.7395,-1.7569,-1.7589,-1.7589,-1.7589,-1.7589,-1.7589,-1.7589,-1.7589,-1.7589,-1.8506,-2.0333,-2.1135,-2.2408,-2.4196,-2.5333,-2.5635,-1.5825,-1.5825,-1.5825,-1.5825,-1.5825,-1.5825,-1.5825,-1.5825,-1.5825,-1.5825,-1.5825,-1.5825,-1.5825,-1.5825,-1.5825,-1.5825,-1.5825,-1.5825,-1.5825,-1.5758,-1.5598,-1.5491,-1.5464,-1.5197,-1.4937,-1.473,-1.4656,-1.4502,-1.4309,-1.4289,-1.4249,-1.4182,-1.4122,-1.4088,-1.4088,-1.4088,-1.4088,-1.4075,-1.3861,-1.356,-1.328,-1.3273,-1.3273,-1.3213,-1.32,-1.3093,-1.2918,-1.3086,-1.2993,-1.2572,-1.2959,-1.3133,-1.3012,-1.3173,-1.336,-1.35,-1.3673,-1.3926,-1.4325,-1.4763,-1.5157,-1.5378,-1.5464,-1.5585,-1.5778,-1.5625,-1.5585,-1.5785,-1.5812,-1.5818,-1.5825,-1.5825,-1.5825,-1.5825,-1.5825,-1.5825,-1.5825,-1.5825,-1.5825,-1.5825,-1.5825,-1.5825,-1.5825,-1.5825,-1.5825,-1.5825,-1.5825,-1.5825,-1.5825,-1.5825,-1.5825,-1.5885,-1.6079,-1.6355,-1.6593,-1.6958,-1.7239,-1.7468,-1.7588,-1.7628,-1.7589,-1.7589,-1.7589,-1.7589,-1.7589,-1.7589,-1.7635,-1.7943,-1.8857,-2.059,-2.16,-2.2976,-2.5069,-2.5635,-2.5684,-1.5825,-1.5825,-1.5825,-1.5825,-1.5825,-1.5825,-1.5825,-1.5825,-1.5825,-1.5825,-1.5825,-1.5825,-1.5825,-1.5825,-1.5825,-1.5825,-1.5825,-1.5825,-1.5825,-1.5825,-1.5751,-1.5785,-1.5704,-1.5491,-1.5337,-1.5264,-1.5089,-1.4941,-1.4881,-1.4901,-1.4736,-1.4476,-1.4222,-1.4095,-1.4095,-1.4088,-1.4088,-1.4088,-1.4062,-1.3901,-1.3586,-1.3567,-1.344,-1.3213,-1.322,-1.32,-1.3186,-1.3193,-1.3186,-1.3133,-1.3186,-1.3287,-1.3487,-1.3547,-1.38,-1.4329,-1.4422,-1.4569,-1.4908,-1.5177,-1.5371,-1.5411,-1.5645,-1.5785,-1.5825,-1.5798,-1.5792,-1.5825,-1.5825,-1.5825,-1.5825,-1.5825,-1.5825,-1.5825,-1.5825,-1.5825,-1.5825,-1.5825,-1.5825,-1.5825,-1.5825,-1.5825,-1.5825,-1.5825,-1.5825,-1.5825,-1.5825,-1.5825,-1.5825,-1.5825,-1.5825,-1.5872,-1.6079,-1.6315,-1.642,-1.6857,-1.7219,-1.7313,-1.7428,-1.7555,-1.7589,-1.7589,-1.7589,-1.7589,-1.7589,-1.7589,-1.7891,-1.8499,-1.9376,-2.0444,-2.1963,-2.3998,-2.5274,-2.5684,-2.5684,-1.5825,-1.5825,-1.5825,-1.5825,-1.5825,-1.5825,-1.5825,-1.5825,-1.5825,-1.5825,-1.5825,-1.5825,-1.5825,-1.5825,-1.5825,-1.5825,-1.5825,-1.5825,-1.5825,-1.5825,-1.5825,-1.5825,-1.5764,-1.5664,-1.5571,-1.5404,-1.5271,-1.5182,-1.5035,-1.5015,-1.4948,-1.4763,-1.4489,-1.4342,-1.4329,-1.4175,-1.4088,-1.4088,-1.4088,-1.4021,-1.3928,-1.3908,-1.3848,-1.3748,-1.3728,-1.3728,-1.3734,-1.3728,-1.3734,-1.3728,-1.3728,-1.3781,-1.3895,-1.4068,-1.4226,-1.4522,-1.485,-1.509,-1.5211,-1.5491,-1.5651,-1.5651,-1.5718,-1.5825,-1.5825,-1.5825,-1.5825,-1.5825,-1.5825,-1.5825,-1.5825,-1.5825,-1.5825,-1.5825,-1.5825,-1.5825,-1.5825,-1.5825,-1.5825,-1.5825,-1.5825,-1.5825,-1.5825,-1.5825,-1.5825,-1.5825,-1.5825,-1.5832,-1.5838,-1.5825,-1.5825,-1.5865,-1.6079,-1.6333,-1.6526,-1.7021,-1.7328,-1.7415,-1.7495,-1.7582,-1.7589,-1.7589,-1.7589,-1.7589,-1.7589,-1.7589,-1.7589,-1.8708,-1.9782,-2.0896,-2.2876,-2.5069,-2.5625,-2.5684,-2.5684,-1.5825,-1.5825,-1.5825,-1.5825,-1.5825,-1.5825,-1.5825,-1.5825,-1.5825,-1.5825,-1.5825,-1.5825,-1.5825,-1.5825,-1.5825,-1.5825,-1.5825,-1.5825,-1.5825,-1.5825,-1.5825,-1.5825,-1.5825,-1.5825,-1.5678,-1.5551,-1.5518,-1.5404,-1.5249,-1.5156,-1.5084,-1.5089,-1.479,-1.4643,-1.4609,-1.4349,-1.4208,-1.4202,-1.4135,-1.4088,-1.4082,-1.4088,-1.4088,-1.4088,-1.4088,-1.4088,-1.4088,-1.4088,-1.4088,-1.4088,-1.4088,-1.4122,-1.4202,-1.4402,-1.4589,-1.4776,-1.5231,-1.5518,-1.5518,-1.5712,-1.5825,-1.5825,-1.5825,-1.5825,-1.5825,-1.5825,-1.5825,-1.5825,-1.5825,-1.5825,-1.5825,-1.5825,-1.5825,-1.5825,-1.5825,-1.5825,-1.5825,-1.5825,-1.5825,-1.5825,-1.5825,-1.5825,-1.5825,-1.5832,-1.5852,-1.5952,-1.5892,-1.5932,-1.5992,-1.5959,-1.5804,-1.5939,-1.6206,-1.646,-1.67,-1.7074,-1.7428,-1.7582,-1.7589,-1.7589,-1.7589,-1.7589,-1.7589,-1.7589,-1.7589,-1.7996,-1.8506,-1.942,-2.0845,-2.2517,-2.4295,-2.5635,-2.5684,-2.5684,-2.5684,-1.5825,-1.5825,-1.5825,-1.5825,-1.5825,-1.5825,-1.5825,-1.5825,-1.5825,-1.5825,-1.5825,-1.5825,-1.5825,-1.5825,-1.5825,-1.5825,-1.5825,-1.5825,-1.5825,-1.5825,-1.5825,-1.5825,-1.5825,-1.5825,-1.5818,-1.5772,-1.5718,-1.5765,-1.5684,-1.5511,-1.5378,-1.5357,-1.5084,-1.4995,-1.4948,-1.4649,-1.4502,-1.4476,-1.4255,-1.4115,-1.4108,-1.4108,-1.4088,-1.4108,-1.4088,-1.4088,-1.4088,-1.4088,-1.4088,-1.4088,-1.4088,-1.4208,-1.4456,-1.4522,-1.479,-1.5291,-1.5631,-1.5751,-1.5792,-1.5812,-1.5825,-1.5825,-1.5825,-1.5825,-1.5825,-1.5825,-1.5825,-1.5825,-1.5825,-1.5825,-1.5825,-1.5825,-1.5825,-1.5825,-1.5825,-1.5825,-1.5825,-1.5825,-1.5825,-1.5825,-1.5825,-1.5825,-1.5825,-1.5825,-1.5945,-1.6066,-1.5992,-1.5979,-1.6306,-1.6071,-1.5979,-1.6159,-1.6413,-1.668,-1.6734,-1.7081,-1.7348,-1.7482,-1.7589,-1.7589,-1.7589,-1.7589,-1.7589,-1.7589,-1.7589,-1.8146,-1.9324,-2.0794,-2.2475,-2.3899,-2.4815,-2.5684,-2.5684,-2.5684,-2.5684,-1.5825,-1.5825,-1.5825,-1.5825,-1.5825,-1.5825,-1.5825,-1.5825,-1.5825,-1.5825,-1.5825,-1.5825,-1.5825,-1.5825,-1.5825,-1.5825,-1.5825,-1.5825,-1.5825,-1.5825,-1.5825,-1.5825,-1.5825,-1.5825,-1.5825,-1.5825,-1.5825,-1.5825,-1.5771,-1.5718,-1.5671,-1.5625,-1.5384,-1.5244,-1.5236,-1.4957,-1.4803,-1.477,-1.4516,-1.4449,-1.4576,-1.4282,-1.4175,-1.4342,-1.4182,-1.4088,-1.4088,-1.4088,-1.4088,-1.4088,-1.4088,-1.4215,-1.4509,-1.4877,-1.5251,-1.5625,-1.5724,-1.5825,-1.5825,-1.5825,-1.5825,-1.5825,-1.5825,-1.5825,-1.5825,-1.5825,-1.5825,-1.5825,-1.5825,-1.5825,-1.5825,-1.5825,-1.5825,-1.5825,-1.5825,-1.5825,-1.5825,-1.5825,-1.5825,-1.5825,-1.5825,-1.5825,-1.5825,-1.5825,-1.5872,-1.5952,-1.5899,-1.5972,-1.6052,-1.5898,-1.5899,-1.6005,-1.6233,-1.6493,-1.6707,-1.7134,-1.7468,-1.7528,-1.7589,-1.7589,-1.7589,-1.7589,-1.7589,-1.7589,-1.7589,-1.7996,-1.9161,-2.11,-2.2976,-2.4766,-2.5684,-2.5684,-2.5684,-2.5684,-2.5684,-1.5825,-1.5825,-1.5825,-1.5825,-1.5825,-1.5825,-1.5825,-1.5825,-1.5825,-1.5825,-1.5825,-1.5825,-1.5825,-1.5825,-1.5825,-1.5825,-1.5825,-1.5825,-1.5825,-1.5825,-1.5825,-1.5825,-1.5825,-1.5825,-1.5825,-1.5825,-1.5825,-1.5825,-1.5825,-1.5825,-1.5825,-1.5805,-1.5625,-1.5531,-1.5491,-1.5251,-1.5149,-1.505,-1.4816,-1.477,-1.4934,-1.4583,-1.4462,-1.4603,-1.4476,-1.4269,-1.4108,-1.4175,-1.4229,-1.4235,-1.4315,-1.4502,-1.4816,-1.5271,-1.5618,-1.5798,-1.5825,-1.5825,-1.5825,-1.5825,-1.5825,-1.5825,-1.5825,-1.5825,-1.5825,-1.5825,-1.5825,-1.5825,-1.5825,-1.5825,-1.5825,-1.5825,-1.5825,-1.5825,-1.5825,-1.5825,-1.5825,-1.5825,-1.5825,-1.5825,-1.5825,-1.5825,-1.5825,-1.5825,-1.5884,-1.6017,-1.6046,-1.5991,-1.6319,-1.6119,-1.6025,-1.6057,-1.6319,-1.652,-1.6754,-1.7168,-1.7482,-1.7569,-1.7589,-1.7589,-1.7589,-1.7589,-1.7687,-1.7641,-1.7838,-1.814,-1.9317,-2.1355,-2.3285,-2.5226,-2.5684,-2.5684,-2.5684,-2.5684,-2.5684,-1.5825,-1.5825,-1.5825,-1.5825,-1.5825,-1.5825,-1.5825,-1.5825,-1.5825,-1.5825,-1.5825,-1.5825,-1.5825,-1.5825,-1.5825,-1.5825,-1.5825,-1.5825,-1.5825,-1.5825,-1.5825,-1.5825,-1.5825,-1.5825,-1.5825,-1.5825,-1.5825,-1.5825,-1.5825,-1.5825,-1.5825,-1.5825,-1.5812,-1.5772,-1.5764,-1.5531,-1.5398,-1.5331,-1.511,-1.5035,-1.5015,-1.4975,-1.4948,-1.5001,-1.4961,-1.47,-1.4162,-1.4389,-1.4522,-1.4549,-1.4814,-1.5129,-1.5311,-1.5625,-1.5818,-1.5771,-1.5825,-1.5825,-1.5825,-1.5825,-1.5825,-1.5825,-1.5825,-1.5825,-1.5825,-1.5825,-1.5825,-1.5825,-1.5825,-1.5825,-1.5825,-1.5825,-1.5825,-1.5825,-1.5825,-1.5825,-1.5825,-1.5825,-1.5825,-1.5825,-1.5825,-1.5825,-1.5784,-1.5872,-1.6052,-1.6373,-1.6406,-1.6486,-1.6954,-1.66,-1.6469,-1.6567,-1.6613,-1.6647,-1.6901,-1.7168,-1.7402,-1.7589,-1.7589,-1.7589,-1.7589,-1.7641,-1.7943,-1.8048,-1.876,-1.9213,-2.0888,-2.2767,-2.3998,-2.5479,-2.5577,-2.5684,-2.5684,-2.5684,-2.5684,-1.5825,-1.5825,-1.5825,-1.5825,-1.5825,-1.5825,-1.5825,-1.5825,-1.5825,-1.5825,-1.5825,-1.5825,-1.5825,-1.5825,-1.5825,-1.5825,-1.5825,-1.5825,-1.5825,-1.5825,-1.5825,-1.5825,-1.5825,-1.5825,-1.5825,-1.5825,-1.5825,-1.5825,-1.5825,-1.5825,-1.5825,-1.5825,-1.5825,-1.5825,-1.5825,-1.5738,-1.5698,-1.5618,-1.5411,-1.5351,-1.5491,-1.517,-1.5109,-1.5217,-1.5115,-1.4901,-1.471,-1.4776,-1.4867,-1.483,-1.4961,-1.5142,-1.5384,-1.5665,-1.5818,-1.5825,-1.5825,-1.5825,-1.5825,-1.5825,-1.5825,-1.5825,-1.5825,-1.5825,-1.5825,-1.5825,-1.5825,-1.5825,-1.5825,-1.5825,-1.5825,-1.5825,-1.5825,-1.5825,-1.5825,-1.5825,-1.5825,-1.5825,-1.5825,-1.5825,-1.5825,-1.5825,-1.5872,-1.5965,-1.6199,-1.6426,-1.6513,-1.676,-1.6847,-1.6687,-1.64,-1.664,-1.6687,-1.68,-1.7021,-1.7248,-1.7468,-1.7589,-1.7589,-1.7589,-1.7589,-1.7687,-1.7996,-1.8812,-1.9568,-2.0786,-2.2517,-2.3791,-2.4864,-2.5479,-2.5635,-2.5684,-2.5684,-2.5684,-2.5684,-1.5825,-1.5825,-1.5825,-1.5825,-1.5825,-1.5825,-1.5825,-1.5825,-1.5825,-1.5825,-1.5825,-1.5825,-1.5825,-1.5825,-1.5825,-1.5825,-1.5825,-1.5825,-1.5825,-1.5825,-1.5825,-1.5825,-1.5825,-1.5825,-1.5825,-1.5825,-1.5825,-1.5825,-1.5825,-1.5825,-1.5825,-1.5825,-1.5825,-1.5825,-1.5825,-1.5825,-1.5825,-1.5744,-1.5651,-1.5651,-1.5718,-1.5471,-1.5378,-1.5504,-1.5384,-1.5291,-1.5284,-1.5284,-1.5231,-1.517,-1.5217,-1.5378,-1.5558,-1.5732,-1.5825,-1.5825,-1.5825,-1.5825,-1.5825,-1.5825,-1.5825,-1.5825,-1.5825,-1.5825,-1.5825,-1.5825,-1.5825,-1.5825,-1.5825,-1.5825,-1.5825,-1.5825,-1.5825,-1.5825,-1.5825,-1.5825,-1.5825,-1.5825,-1.5825,-1.5825,-1.5825,-1.5879,-1.6019,-1.6126,-1.6435,-1.6596,-1.6804,-1.6941,-1.6927,-1.6864,-1.6851,-1.6814,-1.6938,-1.7058,-1.7179,-1.738,-1.7549,-1.7589,-1.7589,-1.7589,-1.7589,-1.7641,-1.7845,-1.9472,-2.0538,-2.1862,-2.3484,-2.4254,-2.5177,-2.543,-2.5684,-2.5684,-2.5693,-2.5684,-2.5723,-1.5825,-1.5825,-1.5825,-1.5825,-1.5825,-1.5825,-1.5825,-1.5825,-1.5825,-1.5825,-1.5825,-1.5825,-1.5825,-1.5825,-1.5825,-1.5825,-1.5825,-1.5825,-1.5825,-1.5825,-1.5825,-1.5825,-1.5825,-1.5825,-1.5825,-1.5825,-1.5825,-1.5825,-1.5825,-1.5825,-1.5825,-1.5825,-1.5825,-1.5825,-1.5825,-1.5825,-1.5825,-1.5825,-1.5764,-1.5812,-1.5825,-1.5798,-1.5744,-1.5805,-1.5778,-1.5752,-1.5738,-1.5732,-1.5651,-1.5491,-1.5631,-1.5752,-1.5812,-1.5825,-1.5825,-1.5825,-1.5825,-1.5825,-1.5825,-1.5825,-1.5825,-1.5825,-1.5825,-1.5825,-1.5825,-1.5825,-1.5825,-1.5825,-1.5825,-1.5825,-1.5825,-1.5825,-1.5838,-1.5811,-1.5905,-1.5899,-1.5818,-1.5899,-1.5931,-1.5952,-1.5905,-1.5979,-1.6279,-1.6395,-1.6677,-1.6978,-1.7172,-1.732,-1.7387,-1.7273,-1.7213,-1.7199,-1.7179,-1.7219,-1.7326,-1.744,-1.7582,-1.7589,-1.7641,-1.7635,-1.8048,-1.8251,-1.8655,-2.0231,-2.1862,-2.3135,-2.4048,-2.4864,-2.5323,-2.5577,-2.5684,-2.5693,-2.5762,-2.584,-2.6045,-1.5825,-1.5825,-1.5825,-1.5825,-1.5825,-1.5825,-1.5825,-1.5825,-1.5825,-1.5825,-1.5825,-1.5825,-1.5825,-1.5825,-1.5825,-1.5825,-1.5825,-1.5825,-1.5825,-1.5825,-1.5825,-1.5825,-1.5825,-1.5825,-1.5825,-1.5825,-1.5825,-1.5825,-1.5825,-1.5825,-1.5825,-1.5825,-1.5825,-1.5825,-1.5825,-1.5825,-1.5825,-1.5825,-1.5825,-1.5825,-1.5825,-1.5825,-1.5825,-1.5825,-1.5825,-1.5825,-1.5825,-1.5825,-1.5758,-1.5691,-1.5724,-1.5825,-1.5825,-1.5825,-1.5825,-1.5825,-1.5825,-1.5825,-1.5825,-1.5825,-1.5825,-1.5825,-1.5825,-1.5825,-1.5825,-1.5832,-1.5832,-1.5825,-1.5825,-1.5852,-1.5838,-1.5852,-1.5939,-1.6119,-1.6172,-1.6179,-1.6186,-1.6346,-1.6473,-1.6473,-1.6446,-1.6486,-1.6593,-1.6811,-1.6998,-1.7192,-1.7373,-1.7462,-1.7548,-1.7454,-1.7286,-1.738,-1.7393,-1.7407,-1.746,-1.7561,-1.7635,-1.7582,-1.7635,-1.7733,-1.8551,-1.9472,-2.0231,-2.1448,-2.3235,-2.4667,-2.502,-2.5528,-2.5684,-2.5732,-2.5762,-2.582,-2.6123,-2.6279,-2.6475,-1.5825,-1.5825,-1.5825,-1.5825,-1.5825,-1.5825,-1.5825,-1.5825,-1.5825,-1.5825,-1.5825,-1.5825,-1.5825,-1.5825,-1.5825,-1.5825,-1.5825,-1.5825,-1.5825,-1.5825,-1.5825,-1.5825,-1.5825,-1.5825,-1.5825,-1.5825,-1.5825,-1.5825,-1.5825,-1.5825,-1.5825,-1.5825,-1.5825,-1.5825,-1.5825,-1.5825,-1.5825,-1.5825,-1.5825,-1.5825,-1.5825,-1.5825,-1.5825,-1.5825,-1.5825,-1.5825,-1.5825,-1.5825,-1.5825,-1.5825,-1.5825,-1.5825,-1.5825,-1.5825,-1.5825,-1.5825,-1.5825,-1.5825,-1.5825,-1.5825,-1.5825,-1.5825,-1.5825,-1.5825,-1.5858,-1.5925,-1.6012,-1.6025,-1.6119,-1.6186,-1.6199,-1.6199,-1.6279,-1.6433,-1.661,-1.6636,-1.6473,-1.6587,-1.6687,-1.6707,-1.6707,-1.6767,-1.6867,-1.7105,-1.7246,-1.7373,-1.7514,-1.7535,-1.7562,-1.7467,-1.7393,-1.7481,-1.7482,-1.7527,-1.7527,-1.7601,-1.7879,-1.7826,-1.8629,-1.8503,-1.9569,-2.0779,-2.1684,-2.2861,-2.4578,-2.5732,-2.5791,-2.582,-2.5879,-2.5918,-2.5947,-2.6162,-2.6465,-2.666,-2.6865,-1.5825,-1.5825,-1.5825,-1.5825,-1.5825,-1.5825,-1.5825,-1.5825,-1.5825,-1.5825,-1.5825,-1.5825,-1.5825,-1.5825,-1.5825,-1.5825,-1.5825,-1.5825,-1.5825,-1.5825,-1.5825,-1.5825,-1.5825,-1.5825,-1.5825,-1.5825,-1.5825,-1.5825,-1.5825,-1.5825,-1.5825,-1.5825,-1.5825,-1.5825,-1.5825,-1.5825,-1.5825,-1.5825,-1.5825,-1.5825,-1.5825,-1.5825,-1.5825,-1.5825,-1.5825,-1.5825,-1.5825,-1.5825,-1.5825,-1.5825,-1.5825,-1.5825,-1.5825,-1.5825,-1.5825,-1.5825,-1.5825,-1.5825,-1.5825,-1.5825,-1.5825,-1.5832,-1.5865,-1.5831,-1.5959,-1.6152,-1.6319,-1.6313,-1.656,-1.66,-1.6633,-1.6687,-1.6727,-1.6794,-1.7001,-1.7085,-1.6881,-1.6794,-1.6794,-1.68,-1.6814,-1.6941,-1.7146,-1.7273,-1.7347,-1.7494,-1.7549,-1.7562,-1.7589,-1.7522,-1.7541,-1.7528,-1.7562,-1.7575,-1.7575,-1.7582,-1.7945,-1.8296,-1.9583,-2.0231,-2.1147,-2.2256,-2.3084,-2.4235,-2.5322,-2.5954,-2.6074,-2.6074,-2.6152,-2.626,-2.6416,-2.668,-2.6953,-2.7051,-2.7217,-1.5825,-1.5825,-1.5825,-1.5825,-1.5825,-1.5825,-1.5825,-1.5825,-1.5825,-1.5825,-1.5825,-1.5825,-1.5825,-1.5825,-1.5825,-1.5825,-1.5825,-1.5825,-1.5825,-1.5825,-1.5825,-1.5825,-1.5825,-1.5825,-1.5825,-1.5825,-1.5825,-1.5825,-1.5825,-1.5825,-1.5825,-1.5825,-1.5825,-1.5825,-1.5825,-1.5825,-1.5825,-1.5825,-1.5825,-1.5825,-1.5825,-1.5825,-1.5825,-1.5825,-1.5825,-1.5825,-1.5825,-1.5825,-1.5825,-1.5825,-1.5825,-1.5825,-1.5825,-1.5825,-1.5825,-1.5825,-1.5825,-1.5825,-1.5825,-1.5825,-1.5832,-1.5872,-1.6032,-1.6228,-1.6199,-1.6446,-1.6593,-1.6613,-1.6673,-1.6767,-1.6794,-1.6941,-1.7027,-1.7166,-1.7288,-1.7448,-1.7402,-1.7368,-1.7335,-1.7348,-1.7355,-1.7415,-1.7514,-1.7514,-1.7568,-1.7582,-1.7589,-1.7589,-1.7589,-1.7589,-1.7589,-1.7589,-1.7589,-1.7641,-1.776,-1.8071,-1.8883,-1.9588,-2.0885,-2.2157,-2.3092,-2.3642,-2.4499,-2.5121,-2.5737,-2.615,-2.6415,-2.6551,-2.668,-2.6797,-2.6914,-2.7148,-2.7344,-2.7441,-2.7559,-1.5825,-1.5825,-1.5825,-1.5825,-1.5825,-1.5825,-1.5825,-1.5825,-1.5825,-1.5825,-1.5825,-1.5825,-1.5825,-1.5825,-1.5825,-1.5825,-1.5825,-1.5825,-1.5825,-1.5825,-1.5825,-1.5825,-1.5825,-1.5825,-1.5825,-1.5825,-1.5825,-1.5825,-1.5825,-1.5825,-1.5825,-1.5825,-1.5825,-1.5825,-1.5825,-1.5825,-1.5825,-1.5825,-1.5825,-1.5825,-1.5825,-1.5825,-1.5825,-1.5825,-1.5825,-1.5825,-1.5825,-1.5825,-1.5825,-1.5825,-1.5825,-1.5825,-1.5825,-1.5825,-1.5825,-1.5825,-1.5825,-1.5825,-1.5825,-1.5832,-1.5885,-1.6025,-1.6192,-1.6333,-1.65,-1.6747,-1.6945,-1.6947,-1.7034,-1.7128,-1.7128,-1.7228,-1.7393,-1.7427,-1.7541,-1.7582,-1.7589,-1.7589,-1.7589,-1.7589,-1.7549,-1.7555,-1.7582,-1.7589,-1.7589,-1.7589,-1.7589,-1.7589,-1.7589,-1.7589,-1.7589,-1.7589,-1.7589,-1.7648,-1.7826,-1.8569,-1.997,-2.1149,-2.2661,-2.4007,-2.5232,-2.5582,-2.5914,-2.626,-2.6516,-2.6579,-2.6846,-2.7012,-2.7178,-2.7266,-2.7393,-2.7588,-2.7744,-2.7861,-2.7959,-1.5825,-1.5825,-1.5825,-1.5825,-1.5825,-1.5825,-1.5825,-1.5825,-1.5825,-1.5825,-1.5825,-1.5825,-1.5825,-1.5825,-1.5825,-1.5825,-1.5825,-1.5825,-1.5825,-1.5825,-1.5825,-1.5825,-1.5825,-1.5825,-1.5825,-1.5825,-1.5825,-1.5825,-1.5825,-1.5825,-1.5825,-1.5825,-1.5825,-1.5825,-1.5825,-1.5825,-1.5825,-1.5825,-1.5825,-1.5825,-1.5825,-1.5825,-1.5825,-1.5825,-1.5825,-1.5825,-1.5825,-1.5825,-1.5825,-1.5825,-1.5825,-1.5825,-1.5825,-1.5825,-1.5825,-1.5825,-1.5825,-1.5825,-1.5825,-1.5845,-1.5952,-1.6239,-1.6339,-1.6486,-1.6754,-1.7079,-1.7233,-1.7326,-1.7368,-1.7502,-1.7575,-1.7542,-1.7549,-1.7569,-1.7575,-1.7589,-1.7589,-1.7589,-1.7589,-1.7589,-1.7589,-1.7589,-1.7589,-1.7589,-1.7589,-1.7589,-1.7595,-1.7595,-1.7602,-1.7655,-1.7695,-1.7796,-1.7856,-1.8605,-1.884,-1.9181,-2.0575,-2.2331,-2.4,-2.5297,-2.6649,-2.6987,-2.7002,-2.7008,-2.7165,-2.7246,-2.7324,-2.7471,-2.7617,-2.7777,-2.7855,-2.792,-2.8086,-2.8271,-2.8291,-1.5825,-1.5825,-1.5825,-1.5825,-1.5825,-1.5825,-1.5825,-1.5825,-1.5825,-1.5825,-1.5825,-1.5825,-1.5825,-1.5825,-1.5825,-1.5825,-1.5825,-1.5825,-1.5825,-1.5825,-1.5825,-1.5825,-1.5825,-1.5825,-1.5825,-1.5825,-1.5825,-1.5825,-1.5825,-1.5825,-1.5825,-1.5825,-1.5825,-1.5825,-1.5825,-1.5825,-1.5825,-1.5825,-1.5825,-1.5825,-1.5825,-1.5825,-1.5825,-1.5825,-1.5825,-1.5825,-1.5825,-1.5825,-1.5825,-1.5825,-1.5825,-1.5825,-1.5825,-1.5825,-1.5825,-1.5825,-1.5825,-1.5825,-1.5825,-1.5852,-1.5992,-1.6239,-1.65,-1.6767,-1.7099,-1.736,-1.7487,-1.7541,-1.7522,-1.7589,-1.7589,-1.7589,-1.7589,-1.7589,-1.7589,-1.7589,-1.7589,-1.7589,-1.7589,-1.7589,-1.7589,-1.7589,-1.7595,-1.7615,-1.7642,-1.7655,-1.7669,-1.7675,-1.7689,-1.7809,-1.7943,-1.807,-1.8217,-1.9198,-2.0123,-2.0401,-2.121,-2.3245,-2.4791,-2.5843,-2.6992,-2.7825,-2.8047,-2.7734,-2.7734,-2.7891,-2.7959,-2.7939,-2.7978,-2.8027,-2.8125,-2.8193,-2.8242,-2.8301,-2.8301,-1.5825,-1.5825,-1.5825,-1.5825,-1.5825,-1.5825,-1.5825,-1.5825,-1.5825,-1.5825,-1.5825,-1.5825,-1.5825,-1.5825,-1.5825,-1.5825,-1.5825,-1.5825,-1.5825,-1.5825,-1.5825,-1.5825,-1.5825,-1.5825,-1.5825,-1.5825,-1.5825,-1.5825,-1.5825,-1.5825,-1.5825,-1.5825,-1.5825,-1.5825,-1.5825,-1.5825,-1.5825,-1.5825,-1.5825,-1.5825,-1.5825,-1.5825,-1.5825,-1.5825,-1.5825,-1.5825,-1.5825,-1.5825,-1.5825,-1.5825,-1.5825,-1.5825,-1.5825,-1.5825,-1.5832,-1.5838,-1.5832,-1.5832,-1.5872,-1.5952,-1.6206,-1.648,-1.676,-1.7061,-1.7353,-1.7488,-1.7582,-1.7589,-1.7589,-1.7589,-1.7589,-1.7589,-1.7589,-1.7589,-1.7595,-1.7595,-1.7589,-1.7589,-1.7609,-1.7615,-1.7609,-1.7615,-1.7622,-1.7649,-1.7695,-1.7722,-1.7749,-1.7782,-1.7822,-1.7989,-1.8183,-1.8357,-1.8504,-1.9175,-2.0233,-2.0876,-2.1783,-2.3771,-2.5316,-2.6324,-2.7125,-2.7795,-2.8126,-2.8066,-2.8213,-2.8291,-2.8262,-2.8135,-2.8232,-2.8301,-2.8271,-2.8252,-2.8271,-2.8301,-2.8301,-1.5825,-1.5825,-1.5825,-1.5825,-1.5825,-1.5825,-1.5825,-1.5825,-1.5825,-1.5825,-1.5825,-1.5825,-1.5825,-1.5825,-1.5825,-1.5825,-1.5825,-1.5825,-1.5825,-1.5825,-1.5825,-1.5825,-1.5825,-1.5825,-1.5825,-1.5825,-1.5825,-1.5825,-1.5825,-1.5825,-1.5825,-1.5825,-1.5825,-1.5825,-1.5825,-1.5825,-1.5825,-1.5825,-1.5825,-1.5825,-1.5825,-1.5825,-1.5825,-1.5825,-1.5825,-1.5825,-1.5825,-1.5825,-1.5825,-1.5825,-1.5825,-1.5825,-1.5825,-1.5825,-1.5852,-1.5851,-1.5818,-1.5804,-1.5972,-1.6106,-1.6386,-1.676,-1.7058,-1.7326,-1.7482,-1.7555,-1.7589,-1.7589,-1.7589,-1.7589,-1.7589,-1.7589,-1.7589,-1.7609,-1.7635,-1.7662,-1.7635,-1.7649,-1.7736,-1.7729,-1.7675,-1.7716,-1.7789,-1.7816,-1.7896,-1.805,-1.8083,-1.8103,-1.815,-1.8277,-1.8402,-1.8644,-1.889,-1.9183,-2.0026,-2.0974,-2.2189,-2.4086,-2.5394,-2.6399,-2.7058,-2.7663,-2.7965,-2.8213,-2.8242,-2.8301,-2.8301,-2.8301,-2.8301,-2.8301,-2.8301,-2.8301,-2.8301,-2.8301,-2.8301,-1.5825,-1.5825,-1.5825,-1.5825,-1.5825,-1.5825,-1.5825,-1.5825,-1.5825,-1.5825,-1.5825,-1.5825,-1.5825,-1.5825,-1.5825,-1.5825,-1.5825,-1.5825,-1.5825,-1.5825,-1.5825,-1.5825,-1.5825,-1.5825,-1.5825,-1.5825,-1.5825,-1.5825,-1.5825,-1.5825,-1.5825,-1.5825,-1.5825,-1.5825,-1.5825,-1.5825,-1.5825,-1.5825,-1.5825,-1.5825,-1.5825,-1.5825,-1.5825,-1.5825,-1.5825,-1.5825,-1.5825,-1.5825,-1.5825,-1.5825,-1.5825,-1.5825,-1.5825,-1.5825,-1.5979,-1.6052,-1.6032,-1.5952,-1.6179,-1.6382,-1.6603,-1.6947,-1.7199,-1.736,-1.7541,-1.7589,-1.7589,-1.7589,-1.7589,-1.7589,-1.7589,-1.7589,-1.7589,-1.7689,-1.7809,-1.7789,-1.7742,-1.7909,-1.7983,-1.7989,-1.7989,-1.7962,-1.8015,-1.8029,-1.8062,-1.8283,-1.841,-1.843,-1.849,-1.8624,-1.8758,-1.8938,-1.9075,-1.9364,-1.9877,-2.0792,-2.2063,-2.4019,-2.5371,-2.6327,-2.6943,-2.7501,-2.8067,-2.8281,-2.8301,-2.8301,-2.8301,-2.8301,-2.8301,-2.8301,-2.8301,-2.8301,-2.8301,-2.8301,-2.8301,-1.5825,-1.5825,-1.5825,-1.5825,-1.5825,-1.5825,-1.5825,-1.5825,-1.5825,-1.5825,-1.5825,-1.5825,-1.5825,-1.5825,-1.5825,-1.5825,-1.5825,-1.5825,-1.5825,-1.5825,-1.5825,-1.5825,-1.5825,-1.5825,-1.5825,-1.5825,-1.5825,-1.5825,-1.5825,-1.5825,-1.5825,-1.5825,-1.5825,-1.5825,-1.5825,-1.5825,-1.5825,-1.5825,-1.5825,-1.5825,-1.5825,-1.5825,-1.5825,-1.5825,-1.5825,-1.5825,-1.5825,-1.5825,-1.5825,-1.5825,-1.5825,-1.5825,-1.5879,-1.5979,-1.6159,-1.6233,-1.6333,-1.6393,-1.652,-1.671,-1.6945,-1.7152,-1.734,-1.7521,-1.7569,-1.7589,-1.7589,-1.7589,-1.7589,-1.7589,-1.7589,-1.7589,-1.7702,-1.7829,-1.7949,-1.8076,-1.8083,-1.8196,-1.8297,-1.8297,-1.8262,-1.8315,-1.8382,-1.8462,-1.8504,-1.8497,-1.8651,-1.8724,-1.8831,-1.8978,-1.9112,-1.931,-1.9401,-1.9472,-2.0014,-2.0759,-2.1511,-2.3255,-2.5252,-2.6155,-2.6771,-2.734,-2.796,-2.8301,-2.8301,-2.8301,-2.8301,-2.8301,-2.8301,-2.8301,-2.8301,-2.8301,-2.8301,-2.8301,-2.8301,-1.5825,-1.5825,-1.5825,-1.5825,-1.5825,-1.5825,-1.5825,-1.5825,-1.5825,-1.5825,-1.5825,-1.5825,-1.5825,-1.5825,-1.5825,-1.5825,-1.5825,-1.5825,-1.5825,-1.5825,-1.5825,-1.5825,-1.5825,-1.5825,-1.5825,-1.5832,-1.5825,-1.5825,-1.5825,-1.5825,-1.5825,-1.5825,-1.5825,-1.5825,-1.5825,-1.5825,-1.5825,-1.5825,-1.5825,-1.5825,-1.5825,-1.5825,-1.5825,-1.5825,-1.5825,-1.5825,-1.5825,-1.5825,-1.5825,-1.5959,-1.5972,-1.6012,-1.6126,-1.6293,-1.6453,-1.656,-1.67,-1.6834,-1.6927,-1.7099,-1.7226,-1.7353,-1.746,-1.7555,-1.7575,-1.7589,-1.7589,-1.7589,-1.7589,-1.7589,-1.7602,-1.7649,-1.7816,-1.7955,-1.8149,-1.8337,-1.847,-1.8544,-1.8591,-1.8597,-1.8644,-1.8778,-1.8858,-1.8971,-1.8938,-1.8798,-1.8858,-1.8991,-1.9105,-1.9232,-1.9401,-1.9482,-1.9533,-1.9815,-2.0587,-2.1145,-2.1699,-2.287,-2.4875,-2.6273,-2.7114,-2.7618,-2.813,-2.8301,-2.8301,-2.8301,-2.8301,-2.8301,-2.8301,-2.8301,-2.8301,-2.8301,-2.8301,-2.8301,-2.8301,-1.5825,-1.5825,-1.5825,-1.5825,-1.5825,-1.5825,-1.5825,-1.5825,-1.5825,-1.5825,-1.5825,-1.5825,-1.5825,-1.5825,-1.5832,-1.5791,-1.5845,-1.5832,-1.5892,-1.5892,-1.5832,-1.5899,-1.5899,-1.5885,-1.5865,-1.5865,-1.5899,-1.5885,-1.5872,-1.5985,-1.5905,-1.5832,-1.5925,-1.5865,-1.5899,-1.5985,-1.5932,-1.5925,-1.5884,-1.5912,-1.5899,-1.5892,-1.5892,-1.5818,-1.5798,-1.5784,-1.5832,-1.5899,-1.6019,-1.6233,-1.6239,-1.6326,-1.6466,-1.6613,-1.6811,-1.6971,-1.7105,-1.7246,-1.7328,-1.7333,-1.736,-1.7514,-1.7569,-1.7589,-1.7589,-1.7589,-1.7589,-1.7589,-1.7589,-1.7589,-1.7669,-1.7816,-1.7916,-1.8129,-1.8348,-1.8624,-1.8744,-1.8838,-1.8878,-1.8885,-1.8945,-1.9045,-1.9105,-1.9178,-1.9199,-1.9122,-1.9122,-1.9192,-1.9225,-1.9377,-1.9557,-1.9649,-1.9649,-2.0148,-2.1365,-2.2138,-2.3143,-2.4258,-2.5882,-2.6997,-2.7843,-2.8184,-2.8301,-2.8301,-2.8301,-2.8301,-2.8301,-2.8301,-2.8301,-2.8301,-2.8301,-2.8301,-2.8301,-2.8301,-2.8301,-1.5825,-1.5825,-1.5825,-1.5825,-1.5825,-1.5825,-1.5825,-1.5825,-1.5825,-1.5825,-1.5825,-1.5825,-1.5825,-1.5832,-1.5845,-1.5939,-1.6079,-1.6099,-1.6199,-1.6326,-1.6366,-1.6259,-1.6186,-1.6099,-1.6106,-1.6099,-1.6106,-1.6226,-1.6373,-1.6306,-1.6359,-1.6333,-1.6206,-1.6259,-1.6299,-1.6299,-1.6246,-1.6179,-1.6239,-1.6293,-1.6152,-1.6286,-1.6286,-1.6106,-1.6319,-1.6246,-1.6179,-1.6299,-1.642,-1.6506,-1.6533,-1.6633,-1.6767,-1.6894,-1.7092,-1.7233,-1.7353,-1.7507,-1.7535,-1.7521,-1.7534,-1.7574,-1.7582,-1.7589,-1.7589,-1.7589,-1.7589,-1.7589,-1.7589,-1.7589,-1.7629,-1.7856,-1.8049,-1.835,-1.8604,-1.8865,-1.9005,-1.9085,-1.9118,-1.9098,-1.9158,-1.9245,-1.9292,-1.9397,-1.9403,-1.939,-1.941,-1.9424,-1.9424,-1.97,-1.9982,-2.0429,-2.0537,-2.143,-2.2645,-2.3702,-2.471,-2.5799,-2.6935,-2.7625,-2.8349,-2.8247,-2.831,-2.8301,-2.8369,-2.8437,-2.8437,-2.833,-2.8301,-2.831,-2.8301,-2.8301,-2.8301,-2.832,-2.8389,-1.5825,-1.5825,-1.5825,-1.5825,-1.5825,-1.5825,-1.5825,-1.5825,-1.5825,-1.5825,-1.5825,-1.5825,-1.5825,-1.5798,-1.5952,-1.6052,-1.6239,-1.6353,-1.6513,-1.66,-1.6627,-1.6573,-1.6466,-1.6406,-1.64,-1.64,-1.6413,-1.652,-1.6633,-1.6693,-1.6727,-1.6714,-1.666,-1.6667,-1.6613,-1.6693,-1.66,-1.6513,-1.6547,-1.6633,-1.6446,-1.6553,-1.662,-1.6426,-1.6567,-1.6567,-1.6473,-1.6547,-1.6707,-1.6794,-1.6854,-1.6887,-1.7014,-1.7141,-1.7255,-1.74,-1.7494,-1.7582,-1.7589,-1.7582,-1.7635,-1.7589,-1.7589,-1.7589,-1.7589,-1.7589,-1.7589,-1.7589,-1.7589,-1.7615,-1.7689,-1.8029,-1.8337,-1.8604,-1.8898,-1.9138,-1.9205,-1.9279,-1.9357,-1.9363,-1.9403,-1.9397,-1.9403,-1.9424,-1.9424,-1.9424,-1.9424,-1.9482,-1.954,-1.9982,-2.0702,-2.1259,-2.1877,-2.2983,-2.4211,-2.4965,-2.5752,-2.7022,-2.7953,-2.8266,-2.8711,-2.8594,-2.8643,-2.8848,-2.8867,-2.8711,-2.874,-2.8857,-2.8623,-2.833,-2.835,-2.8398,-2.8476,-2.8525,-2.8623,-1.5825,-1.5825,-1.5825,-1.5825,-1.5825,-1.5825,-1.5825,-1.5832,-1.5858,-1.5885,-1.5919,-1.5912,-1.5858,-1.5911,-1.6179,-1.6319,-1.6433,-1.6607,-1.6754,-1.6814,-1.6881,-1.676,-1.6707,-1.67,-1.67,-1.67,-1.6714,-1.6734,-1.6787,-1.6854,-1.6954,-1.7125,-1.7119,-1.6987,-1.6747,-1.6727,-1.6714,-1.6707,-1.6734,-1.676,-1.6727,-1.6774,-1.6794,-1.6734,-1.6807,-1.6834,-1.6754,-1.6814,-1.6974,-1.7108,-1.7186,-1.7273,-1.7415,-1.7462,-1.7515,-1.7542,-1.7555,-1.7589,-1.7589,-1.7589,-1.7589,-1.7589,-1.7589,-1.7589,-1.7589,-1.7589,-1.7629,-1.7675,-1.7655,-1.7782,-1.8003,-1.8303,-1.8591,-1.8818,-1.9098,-1.9285,-1.9397,-1.9424,-1.9424,-1.9424,-1.9424,-1.9424,-1.9424,-1.9424,-1.9424,-1.9424,-1.9424,-1.9482,-1.9591,-2.0371,-2.1202,-2.2369,-2.3167,-2.465,-2.573,-2.6016,-2.682,-2.8131,-2.8836,-2.9043,-2.916,-2.9189,-2.9287,-2.9434,-2.9326,-2.9131,-2.9307,-2.9512,-2.9131,-2.876,-2.8555,-2.8555,-2.8643,-2.8779,-2.8916,-1.5825,-1.5825,-1.5825,-1.5825,-1.5825,-1.5825,-1.5825,-1.5865,-1.6032,-1.6226,-1.6386,-1.6413,-1.6413,-1.646,-1.65,-1.6647,-1.6891,-1.6958,-1.7092,-1.7261,-1.7241,-1.7148,-1.7068,-1.7001,-1.7052,-1.7052,-1.7065,-1.7114,-1.7315,-1.7221,-1.7295,-1.7481,-1.744,-1.744,-1.7315,-1.7268,-1.7228,-1.7081,-1.7148,-1.7215,-1.7105,-1.7148,-1.7174,-1.7072,-1.7154,-1.7161,-1.7079,-1.7121,-1.7281,-1.7388,-1.7447,-1.7521,-1.7569,-1.7589,-1.7589,-1.7589,-1.7589,-1.7589,-1.7589,-1.7589,-1.7589,-1.7595,-1.7615,-1.7615,-1.7589,-1.7589,-1.7682,-1.7836,-1.7883,-1.805,-1.8317,-1.8597,-1.8838,-1.8918,-1.9125,-1.9285,-1.9424,-1.9424,-1.9424,-1.9424,-1.9424,-1.9424,-1.9424,-1.9424,-1.9424,-1.9424,-1.9424,-1.9591,-1.9707,-2.0816,-2.182,-2.3376,-2.4628,-2.6213,-2.7307,-2.7528,-2.7862,-2.8841,-2.93,-2.9394,-2.9521,-2.9726,-2.9687,-2.9707,-2.9639,-2.958,-2.9726,-2.9785,-2.9587,-2.9293,-2.918,-2.9092,-2.9189,-2.9287,-2.9336,-1.5825,-1.5825,-1.5825,-1.5825,-1.5825,-1.5825,-1.5879,-1.6019,-1.6293,-1.654,-1.6667,-1.6693,-1.6687,-1.6714,-1.6827,-1.6927,-1.7213,-1.7326,-1.7387,-1.7582,-1.7575,-1.7442,-1.7393,-1.734,-1.7353,-1.7353,-1.7367,-1.746,-1.7522,-1.7569,-1.7562,-1.7555,-1.7589,-1.7542,-1.7535,-1.7508,-1.7475,-1.7355,-1.7428,-1.7501,-1.744,-1.7415,-1.7514,-1.744,-1.7474,-1.7527,-1.7402,-1.7462,-1.7589,-1.7589,-1.7589,-1.7589,-1.7589,-1.7589,-1.7589,-1.7589,-1.7589,-1.7589,-1.7589,-1.7589,-1.7635,-1.7762,-1.7736,-1.7742,-1.7776,-1.7896,-1.8023,-1.8143,-1.8135,-1.8377,-1.8617,-1.8891,-1.8978,-1.9052,-1.9185,-1.9403,-1.9424,-1.9424,-1.9424,-1.9424,-1.9424,-1.9424,-1.9424,-1.9424,-1.9424,-1.9424,-1.9424,-1.972,-2.019,-2.141,-2.2828,-2.4505,-2.5978,-2.7502,-2.8485,-2.887,-2.923,-2.9736,-2.9795,-2.9805,-3.0068,-3.0293,-3.0127,-3.0029,-3.0127,-3.0176,-3.0117,-3.0049,-3.001,-3.0019,-3.0049,-2.9951,-2.9834,-2.9746,-2.9717,-1.5825,-1.5825,-1.5825,-1.5825,-1.5825,-1.5811,-1.6025,-1.6306,-1.66,-1.674,-1.6767,-1.6807,-1.684,-1.684,-1.7092,-1.7226,-1.7286,-1.7448,-1.7528,-1.7569,-1.7589,-1.7549,-1.7549,-1.7535,-1.7554,-1.7594,-1.7549,-1.7561,-1.7589,-1.7589,-1.7589,-1.7589,-1.7589,-1.7589,-1.7589,-1.7582,-1.7555,-1.7535,-1.7588,-1.7601,-1.7522,-1.7549,-1.7555,-1.7581,-1.7601,-1.7615,-1.7528,-1.7569,-1.7589,-1.7589,-1.7589,-1.7589,-1.7589,-1.7589,-1.7589,-1.7589,-1.7589,-1.7595,-1.7662,-1.7675,-1.7822,-1.8009,-1.8096,-1.8029,-1.8049,-1.8223,-1.8343,-1.8437,-1.851,-1.8698,-1.8911,-1.8998,-1.9085,-1.9192,-1.9363,-1.9424,-1.9424,-1.9424,-1.9424,-1.9424,-1.9424,-1.9424,-1.9424,-1.9424,-1.9477,-1.9719,-2.0038,-2.1169,-2.1732,-2.2648,-2.4119,-2.5956,-2.74,-2.873,-2.9453,-2.9736,-2.9961,-3.0225,-3.0244,-3.0293,-3.0586,-3.0723,-3.0566,-3.0527,-3.0742,-3.0762,-3.0547,-3.0586,-3.0713,-3.0713,-3.0566,-3.0488,-3.0264,-3.0049,-3.0029,-1.5825,-1.5825,-1.5825,-1.5825,-1.5858,-1.6052,-1.6313,-1.66,-1.6894,-1.7166,-1.7328,-1.7335,-1.7268,-1.7341,-1.7474,-1.7442,-1.7482,-1.7528,-1.7562,-1.7589,-1.7589,-1.7589,-1.7589,-1.7589,-1.7589,-1.7589,-1.7589,-1.7589,-1.7589,-1.7589,-1.7589,-1.7589,-1.7589,-1.7589,-1.7589,-1.7589,-1.7589,-1.7589,-1.7589,-1.7589,-1.7589,-1.7589,-1.7589,-1.7589,-1.7589,-1.7589,-1.7589,-1.7589,-1.7589,-1.7589,-1.7589,-1.7589,-1.7589,-1.7589,-1.7589,-1.7589,-1.7609,-1.7662,-1.7856,-1.7916,-1.8043,-1.8337,-1.851,-1.851,-1.8477,-1.849,-1.8637,-1.8738,-1.8804,-1.8958,-1.9085,-1.9178,-1.9225,-1.9343,-1.9424,-1.9424,-1.9424,-1.9424,-1.9424,-1.9424,-1.9424,-1.947,-1.9464,-1.9484,-1.9603,-1.9945,-2.0737,-2.2021,-2.3179,-2.4065,-2.5461,-2.7284,-2.838,-2.9575,-2.999,-3.0273,-3.0488,-3.0674,-3.0635,-3.0615,-3.0732,-3.083,-3.0879,-3.0898,-3.0898,-3.0898,-3.085,-3.0898,-3.0898,-3.0898,-3.0781,-3.0762,-3.0693,-3.0449,-3.0332,-1.5825,-1.5825,-1.5825,-1.5825,-1.5879,-1.6146,-1.644,-1.6727,-1.7072,-1.7367,-1.7569,-1.7569,-1.7589,-1.7562,-1.7562,-1.7569,-1.7569,-1.7569,-1.7589,-1.7589,-1.7589,-1.7589,-1.7589,-1.7589,-1.7589,-1.7589,-1.7589,-1.7589,-1.7589,-1.7589,-1.7589,-1.7589,-1.7589,-1.7589,-1.7589,-1.7589,-1.7589,-1.7589,-1.7589,-1.7589,-1.7589,-1.7589,-1.7589,-1.7589,-1.7589,-1.7589,-1.7589,-1.7589,-1.7589,-1.7589,-1.7589,-1.7589,-1.7589,-1.7589,-1.7589,-1.7609,-1.7742,-1.7849,-1.7955,-1.8109,-1.8364,-1.8604,-1.8831,-1.8871,-1.8898,-1.8925,-1.8998,-1.9072,-1.9105,-1.9165,-1.933,-1.9424,-1.9417,-1.9424,-1.9424,-1.9424,-1.9424,-1.9424,-1.9424,-1.9424,-1.9457,-1.9459,-1.9486,-1.9506,-1.9744,-2.0255,-2.1358,-2.2917,-2.4264,-2.5413,-2.6852,-2.8577,-2.9383,-3.0156,-3.0459,-3.0644,-3.0723,-3.0801,-3.081,-3.081,-3.0898,-3.0898,-3.0898,-3.0898,-3.0898,-3.0898,-3.0898,-3.0898,-3.0898,-3.0898,-3.0898,-3.085,-3.083,-3.0771,-3.0723,-1.5825,-1.5825,-1.5825,-1.5825,-1.5811,-1.6112,-1.64,-1.672,-1.7025,-1.734,-1.7535,-1.7589,-1.7589,-1.7589,-1.7589,-1.7589,-1.7589,-1.7589,-1.7589,-1.7589,-1.7589,-1.7589,-1.7589,-1.7589,-1.7589,-1.7589,-1.7589,-1.7589,-1.7589,-1.7589,-1.7589,-1.7589,-1.7589,-1.7589,-1.7589,-1.7589,-1.7589,-1.7589,-1.7589,-1.7589,-1.7589,-1.7589,-1.7589,-1.7589,-1.7589,-1.7589,-1.7589,-1.7589,-1.7589,-1.7589,-1.7589,-1.7589,-1.7655,-1.7669,-1.7662,-1.7782,-1.7976,-1.8123,-1.827,-1.8424,-1.8664,-1.8851,-1.8971,-1.9085,-1.9158,-1.9243,-1.9283,-1.9296,-1.9316,-1.9316,-1.9397,-1.9424,-1.9424,-1.9424,-1.9424,-1.9424,-1.9424,-1.9424,-1.9424,-1.9457,-1.9551,-1.9553,-1.9666,-1.9772,-2.041,-2.075,-2.2116,-2.3944,-2.552,-2.683,-2.8086,-2.9709,-3.0093,-3.0498,-3.0644,-3.0801,-3.084,-3.0889,-3.0898,-3.0898,-3.0898,-3.0898,-3.0898,-3.0898,-3.0898,-3.0898,-3.0898,-3.0898,-3.0898,-3.0898,-3.0898,-3.0898,-3.0898,-3.0898,-3.0898,-1.5825,-1.5825,-1.5825,-1.5825,-1.5832,-1.5905,-1.6233,-1.67,-1.6774,-1.7108,-1.7515,-1.7582,-1.7589,-1.7589,-1.7589,-1.7589,-1.7589,-1.7589,-1.7589,-1.7589,-1.7589,-1.7589,-1.7589,-1.7589,-1.7589,-1.7589,-1.7589,-1.7589,-1.7589,-1.7589,-1.7589,-1.7589,-1.7589,-1.7589,-1.7589,-1.7589,-1.7589,-1.7589,-1.7589,-1.7589,-1.7589,-1.7589,-1.7589,-1.7589,-1.7589,-1.7589,-1.7589,-1.7589,-1.7589,-1.7589,-1.7589,-1.7709,-1.7916,-1.7876,-1.8056,-1.8237,-1.8317,-1.8457,-1.8604,-1.8744,-1.8945,-1.9132,-1.9245,-1.9357,-1.9397,-1.9417,-1.9424,-1.9424,-1.9424,-1.9424,-1.9424,-1.9424,-1.9424,-1.9424,-1.9424,-1.9424,-1.9424,-1.9424,-1.9424,-1.9531,-1.9579,-1.9706,-1.9833,-2.038,-2.1027,-2.2248,-2.3839,-2.5534,-2.7263,-2.8639,-2.9186,-3.0412,-3.0548,-3.081,-3.0898,-3.0898,-3.0898,-3.0898,-3.0898,-3.0898,-3.0898,-3.0898,-3.0898,-3.0898,-3.0898,-3.0898,-3.0898,-3.0898,-3.0898,-3.0898,-3.0898,-3.0898,-3.0898,-3.0898,-3.0898,-1.5825,-1.5825,-1.5825,-1.5825,-1.5825,-1.5825,-1.6092,-1.6486,-1.6647,-1.6961,-1.7382,-1.7515,-1.7589,-1.7589,-1.7589,-1.7589,-1.7589,-1.7589,-1.7589,-1.7589,-1.7589,-1.7589,-1.7589,-1.7589,-1.7589,-1.7589,-1.7589,-1.7589,-1.7589,-1.7589,-1.7589,-1.7589,-1.7589,-1.7589,-1.7589,-1.7589,-1.7589,-1.7589,-1.7589,-1.7589,-1.7589,-1.7589,-1.7589,-1.7589,-1.7589,-1.7589,-1.7589,-1.7602,-1.7682,-1.7809,-1.7943,-1.8056,-1.8217,-1.8243,-1.8317,-1.8457,-1.8591,-1.8751,-1.8911,-1.9052,-1.9172,-1.937,-1.9424,-1.941,-1.9417,-1.9424,-1.9424,-1.9424,-1.9424,-1.9424,-1.9424,-1.9424,-1.9424,-1.9424,-1.9424,-1.9424,-1.9424,-1.9424,-1.9531,-1.9639,-1.9773,-1.994,-2.0394,-2.1459,-2.218,-2.3178,-2.4895,-2.661,-2.8428,-2.9717,-3.046,-3.0898,-3.0898,-3.0898,-3.0898,-3.0898,-3.0898,-3.0898,-3.0898,-3.0898,-3.0898,-3.0898,-3.0898,-3.0898,-3.0898,-3.0898,-3.0898,-3.0898,-3.0898,-3.0898,-3.0898,-3.0898,-3.0898,-3.0898,-3.0898,-1.5825,-1.5825,-1.5825,-1.5825,-1.5825,-1.5825,-1.6005,-1.6299,-1.658,-1.6924,-1.7246,-1.7468,-1.7569,-1.7589,-1.7589,-1.7589,-1.7589,-1.7589,-1.7589,-1.7589,-1.7589,-1.7589,-1.7589,-1.7589,-1.7589,-1.7589,-1.7589,-1.7589,-1.7589,-1.7589,-1.7589,-1.7589,-1.7589,-1.7589,-1.7589,-1.7589,-1.7589,-1.7589,-1.7589,-1.7589,-1.7589,-1.7589,-1.7589,-1.7589,-1.7589,-1.7595,-1.7622,-1.7695,-1.7822,-1.8036,-1.829,-1.8417,-1.851,-1.8544,-1.8624,-1.8738,-1.8891,-1.8978,-1.9058,-1.9212,-1.9357,-1.9424,-1.9424,-1.9424,-1.9424,-1.9424,-1.9424,-1.9424,-1.9424,-1.9424,-1.9424,-1.9424,-1.9424,-1.9424,-1.9424,-1.9477,-1.9477,-1.9497,-1.9613,-1.9806,-2.0013,-2.0187,-2.1334,-2.242,-2.3551,-2.4454,-2.581,-2.7452,-2.8911,-2.9835,-3.0704,-3.0898,-3.0898,-3.0898,-3.0898,-3.0898,-3.0898,-3.0898,-3.0898,-3.0898,-3.0898,-3.0898,-3.0898,-3.0898,-3.0898,-3.0898,-3.0898,-3.0898,-3.0898,-3.0898,-3.0898,-3.0898,-3.0898,-3.0898,-3.0898,-1.5825,-1.5825,-1.5825,-1.5825,-1.5825,-1.5825,-1.5999,-1.6286,-1.658,-1.6874,-1.7199,-1.7481,-1.7589,-1.7589,-1.7589,-1.7589,-1.7589,-1.7589,-1.7589,-1.7589,-1.7589,-1.7589,-1.7589,-1.7589,-1.7589,-1.7589,-1.7589,-1.7589,-1.7589,-1.7589,-1.7589,-1.7589,-1.7589,-1.7589,-1.7589,-1.7602,-1.7635,-1.7649,-1.7682,-1.7695,-1.7649,-1.7635,-1.7589,-1.7589,-1.7589,-1.7742,-1.7816,-1.7896,-1.8136,-1.833,-1.8497,-1.8664,-1.8771,-1.8851,-1.8925,-1.9025,-1.9178,-1.9199,-1.933,-1.937,-1.9424,-1.9424,-1.9424,-1.9424,-1.9424,-1.9424,-1.9424,-1.9424,-1.9424,-1.9424,-1.9424,-1.9424,-1.9424,-1.9424,-1.9424,-1.9526,-1.9613,-1.9686,-1.9806,-2.0074,-2.0347,-2.1134,-2.2399,-2.3581,-2.4857,-2.6001,-2.7391,-2.8911,-2.9893,-3.046,-3.0898,-3.0898,-3.0898,-3.0898,-3.0898,-3.0898,-3.0898,-3.0898,-3.0898,-3.0898,-3.0898,-3.0898,-3.0898,-3.0898,-3.0898,-3.0898,-3.0898,-3.0898,-3.0898,-3.0898,-3.0898,-3.0898,-3.0898,-3.0898,-3.0898]},{"header":{"parameterUnit":"m.s-1","parameterCategory":1,"la1":31.0,"la2":29.5877,"lo1":-88.7671,"lo2":-86.6584,"dy":0.0162,"dx":0.0185,"nx":115,"ny":88,"refTime":"2026-03-03T00:00:00:Z","depth":0,"parameterNumber":3,"parameterNumberName":"V-component_of_WINDS"},"data":[0.0,0.0,0.0,0.0,0.0,0.0,0.0,0.0,0.0,0.0,0.0,0.0,0.0,0.0,0.0,0.0,0.0,0.0,0.0,0.0,0.0,0.0,0.0,0.0,0.0,0.0,0.0,0.0,0.0,0.0,0.0,0.0,0.0,0.0,0.0,0.0,0.0,0.0,0.0,0.0,0.0,0.0,0.0,0.0,0.0,0.0,0.0,0.0,0.0,0.0,0.0,0.0,0.0,0.0,0.0,0.0,0.0,0.0,0.0,0.0,0.0,0.0,0.0,0.0,0.0,0.0,0.0,0.0,0.0,0.0,0.0,0.0,0.0,0.0,0.0,0.0,0.0,0.0,0.0,0.0,0.0,0.0,0.0,0.0,0.0,0.0,0.0,0.0,0.0,0.0,0.0,0.0,0.0,0.0,0.0,0.0,0.0,0.0,0.0,0.0,0.0,0.0,0.0,0.0,0.0,0.0,0.0,0.0,0.0,0.0,0.0,0.0,0.0,0.0,0.0,0.0,0.0,0.0,0.0,0.0,0.0,0.0,0.0,0.0,0.0,0.0,0.0,0.0,0.0,0.0,0.0,0.0,0.0,0.0,0.0,0.0,0.0,0.0,0.0,0.0,0.0,0.0,0.0,0.0,0.0,0.0,0.0,0.0,0.0,0.0,0.0,0.0,0.0,0.0,0.0,0.0,0.0,0.0,0.0,0.0,0.0,0.0,0.0,0.0,0.0,0.0,0.0,0.0,0.0,0.0,0.0,0.0,0.0,0.0,0.0,0.0,0.0,0.0,0.0,0.0,0.0,0.0,0.0,0.0,0.0,0.0,0.0,0.0,0.0,0.0,0.0,0.0,0.0,0.0,0.0,0.0,0.0,0.0,0.0,0.0,0.0,0.0,0.0,0.0,0.0,0.0,0.0,0.0,0.0,0.0,0.0,0.0,0.0,0.0,0.0,0.0,0.0,0.0,0.0,0.0,0.0,0.0,0.0,0.0,0.0,0.0,0.0,0.0,0.0,0.0,0.0,0.0,0.0,0.0,0.0,0.0,0.0,0.0,0.0,0.0,0.0,0.0,0.0,0.0,0.0,0.0,0.0,0.0,0.0,0.0,0.0,0.0,0.0,0.0,0.0,0.0,0.0,0.0,0.0,0.0,0.0,0.0,0.0,0.0,0.0,0.0,0.0,0.0,0.0,0.0,0.0,0.0,0.0,0.0,0.0,0.0,0.0,0.0,0.0,0.0,0.0,0.0,0.0,0.0,0.0,0.0,0.0,0.0,0.0,0.0,0.0,0.0,0.0,0.0,0.0,0.0,0.0,0.0,0.0,0.0,0.0,0.0,0.0,0.0,0.0,0.0,0.0,0.0,0.0,0.0,0.0,0.0,0.0,0.0,0.0,0.0,0.0,0.0,0.0,0.0,0.0,0.0,0.0,0.0,0.0,0.0,0.0,0.0,0.0,0.0,0.0,0.0,0.0,0.0,0.0,0.0,0.0,0.0,0.0,0.0,0.0,0.0,0.0,0.0,0.0,0.0,0.0,0.0,0.0,0.0,0.0,0.0,0.0,0.0,0.0,0.0,0.0,0.0,0.0,0.0,0.0,0.0,0.0,0.0,0.0,0.0,0.0,0.0,0.0,0.0,0.0,0.0,0.0,0.0,0.0,0.0,0.0,0.0,0.0,0.0,0.0,0.0,0.0,0.0,0.0,0.0,0.0,0.0,0.0,0.0,0.0,0.0,0.0,0.0,0.0,0.0,0.0,0.0,0.0,0.0,0.0,0.0,0.0,0.0,0.0,0.0,0.0,0.0,0.0,0.0,0.0,0.0,0.0,0.0,0.0,0.0,0.0,0.0,0.0,0.0,0.0,0.0,0.0,0.0,0.0,0.0,0.0,0.0,0.0,0.0,0.0,0.0,0.0,0.0,0.0,0.0,0.0,0.0,0.0,0.0,0.0,0.0,0.0,0.0,0.0,0.0,0.0,0.0,0.0,0.0,0.0,0.0,0.0,0.0,0.0,0.0,0.0,0.0,0.0,0.0,0.0,0.0,0.0,0.0,0.0,0.0,0.0,0.0,0.0,0.0,0.0,0.0,0.0,0.0,0.0,0.0,0.0,0.0,0.0,0.0,0.0,0.0,0.0,0.0,0.0,0.0,0.0,0.0,0.0,0.0,0.0,0.0,0.0,0.0,0.0,0.0,0.0,0.0,0.0,0.0,0.0,0.0,0.0,0.0,0.0,0.0,0.0,0.0,0.0,0.0,0.0,0.0,0.0,0.0,0.0,0.0,0.0,0.0,0.0,0.0,0.0,0.0,0.0,0.0,0.0,0.0,0.0,0.0,0.0,0.0,0.0,0.0,0.0,0.0,0.0,0.0,0.0,0.0,0.0,0.0,0.0,0.0,0.0,0.0,0.0,0.0,0.0,0.0,0.0,0.0,0.0,0.0,0.0,0.0,0.0,0.0,0.0,0.0,0.0,0.0,0.0,0.0,0.0,0.0,0.0,0.0,0.0,0.0,0.0,0.0,0.0,0.0,0.0,0.0,0.0,0.0,0.0,0.0,0.0,0.0,0.0,0.0,0.0,0.0,0.0,0.0,0.0,0.0,0.0,0.0,0.0,0.0,0.0,0.0,0.0,0.0,0.0,0.0,0.0,0.0,0.0,0.0,0.0,0.0,0.0,0.0,0.0,0.0,0.0,0.0,0.0,0.0,0.0,0.0,0.0,0.0,0.0,0.0,0.0,0.0,0.0,0.0,0.0,0.0,0.0,0.0,0.0,0.0,0.0,0.0,0.0,0.0,0.0,0.0,0.0,0.0,0.0,0.0,0.0,0.0,0.0,0.0,0.0,0.0,0.0,0.0,0.0,0.0,0.0,0.0,0.0,0.0,0.0,0.0,0.0,0.0,0.0,0.0,0.0,0.0,0.0,0.0,0.0,0.0,0.0,0.0,0.0,0.0,0.0,0.0,0.0,0.0,0.0,0.0,0.0,0.0,0.0,0.0,0.0,0.0,0.0,0.0,0.0,0.0,0.0,0.0,0.0,0.0,0.0,0.0,0.0,0.0,0.0,0.0,0.0,0.0,0.0,0.0,0.0,0.0,0.0,0.0,0.0,0.0,0.0,0.0,0.0,0.0,0.0,0.0,0.0,0.0,0.0,0.0,0.0,0.0,0.0,0.0,0.0,0.0,0.0,0.0,0.0,0.0,0.0,0.0,0.0,0.0,0.0,0.0,0.0,0.0,0.0,0.0,0.0,0.0,0.0,0.0,0.0,0.0,0.0,0.0,0.0,0.0,0.0,0.0,0.0,0.0,0.0,0.0,0.0,0.0,0.0,0.0,0.0,0.0,0.0,0.0,0.0,0.0,0.0,0.0,0.0,0.0,0.0,0.0,0.0,0.0,0.0,0.0,0.0,0.0,0.0,0.0,0.0,0.0,0.0,0.0,0.0,0.0,0.0,0.0,0.0,0.0,0.0,0.0,0.0,0.0,0.0,0.0,0.0,0.0,0.0,0.0,0.0,0.0,0.0,0.0,0.0,0.0,0.0,0.0,0.0,0.0,0.0,0.0,0.0,0.0,0.0,0.0,0.0,0.0,0.0,0.0,0.0,0.0,0.0,0.0,0.0,0.0,0.0,0.0,0.0,0.0,0.0,0.0,0.0,0.0,0.0,0.0,0.0,0.0,0.0,0.0,0.0,0.0,0.0,0.0,0.0,0.0,0.0,0.0,0.0,0.0,0.0,0.0,0.0,0.0,0.0,0.0,0.0,0.0,0.0,0.0,0.0,0.0,0.0,0.0,0.0,0.0,0.0,0.0,0.0,0.0,0.0,0.0,0.0,0.0,0.0,0.0,0.0,0.0,0.0,0.0,0.0,0.0,0.0,0.0,0.0,0.0,0.0,0.0,0.0,0.0,0.0,0.0,0.0,0.0,0.0,0.0,0.0,0.0,0.0,0.0,0.0,0.0,0.0,0.0,0.0,0.0,0.0,0.0,0.0,0.0,0.0,0.0,0.0,0.0,0.0,0.0,0.0,0.0,0.0,0.0,0.0,0.0,0.0,0.0,0.0,0.0,0.0,0.0,0.0,0.0,0.0,0.0,0.0,0.0,0.0,0.0,0.0,0.0,0.0,0.0,0.0,0.0,0.0,0.0,0.0,0.0,0.0,0.0,0.0,0.0,0.0,0.0,0.0,0.0,0.0,0.0,0.0,0.0,0.0,0.0,0.0,0.0,0.0,0.0,0.0,0.0,0.0,0.0,0.0,0.0,0.0,0.0,1.6513,0.0,0.0,0.0,0.0,0.0,0.0,0.0,0.0,0.0,0.0,0.0,0.0,0.0,0.0,0.0,0.0,0.0,0.0,0.0,0.0,0.0,0.0,0.0,0.0,0.0,0.0,0.0,0.0,0.0,0.0,0.0,0.0,0.0,0.0,0.0,0.0,0.0,0.0,0.0,0.0,0.0,0.0,0.0,0.0,0.0,0.0,0.0,0.0,0.0,0.0,0.0,0.0,0.0,0.0,0.0,0.0,0.0,0.0,0.0,0.0,0.0,0.0,0.0,0.0,0.0,0.0,0.0,0.0,0.0,0.0,0.0,0.0,0.0,0.0,0.0,0.0,0.0,0.0,0.0,0.0,0.0,0.0,0.0,0.0,0.0,0.0,0.0,0.0,0.0,0.0,0.0,0.0,0.0,0.0,0.0,0.0,0.0,0.0,0.0,0.0,0.0,0.0,0.0,0.0,0.0,0.0,0.0,0.0,0.0,0.0,1.6513,1.6513,1.6513,1.6513,1.6513,0.0,0.0,0.0,0.0,0.0,0.0,0.0,0.0,0.0,0.0,0.0,0.0,0.0,0.0,0.0,0.0,0.0,0.0,0.0,0.0,0.0,0.0,0.0,0.0,0.0,0.0,0.0,0.0,0.0,0.0,0.0,0.0,0.0,0.0,0.0,0.0,0.0,0.0,0.0,0.0,0.0,0.0,0.0,0.0,0.0,0.0,0.0,0.0,0.0,0.0,0.0,0.0,0.0,0.0,0.0,0.0,0.0,0.0,0.0,0.0,0.0,0.0,0.0,0.0,0.0,0.0,0.0,0.0,0.0,0.0,0.0,0.0,0.0,0.0,0.0,0.0,0.0,0.0,0.0,0.0,0.0,0.0,0.0,0.0,0.0,0.0,0.0,0.0,0.0,0.0,0.0,0.0,0.0,0.0,0.0,0.0,0.0,0.0,0.0,0.0,0.0,0.0,0.0,0.0,0.0,0.0,0.0,0.0,0.0,0.0,0.0,0.0,1.655,1.6513,1.6513,0.0,0.0,0.0,0.0,0.0,0.0,0.0,0.0,0.0,0.0,0.0,0.0,0.0,0.0,0.0,0.0,0.0,0.0,0.0,0.0,0.0,0.0,0.0,0.0,0.0,0.0,0.0,0.0,0.0,0.0,0.0,0.0,0.0,0.0,0.0,0.0,0.0,0.0,0.0,0.0,0.0,0.0,0.0,0.0,0.0,0.0,0.0,0.0,0.0,0.0,0.0,0.0,0.0,0.0,0.0,0.0,0.0,0.0,0.0,0.0,0.0,0.0,0.0,0.0,0.0,0.0,0.0,0.0,0.0,0.0,0.0,0.0,0.0,0.0,0.0,0.0,0.0,0.0,0.0,0.0,0.0,0.0,0.0,0.0,0.0,0.0,0.0,0.0,0.0,0.0,0.0,0.0,0.0,0.0,0.0,0.0,0.0,0.0,0.0,0.0,0.0,0.0,0.0,0.0,0.0,0.0,0.0,0.0,0.0,0.0,1.6773,1.731,1.6798,0.0,1.6513,0.0,0.0,0.0,0.0,0.0,0.0,0.0,0.0,0.0,0.0,0.0,0.0,0.0,0.0,0.0,0.0,0.0,0.0,0.0,0.0,0.0,0.0,0.0,0.0,0.0,0.0,0.0,0.0,0.0,0.0,0.0,0.0,0.0,0.0,0.0,0.0,0.0,0.0,0.0,0.0,0.0,0.0,0.0,0.0,0.0,0.0,0.0,0.0,0.0,0.0,0.0,0.0,0.0,0.0,0.0,0.0,0.0,0.0,0.0,0.0,0.0,0.0,0.0,0.0,0.0,0.0,0.0,0.0,0.0,0.0,0.0,0.0,0.0,0.0,0.0,0.0,0.0,0.0,0.0,0.0,0.0,0.0,0.0,0.0,0.0,0.0,0.0,0.0,0.0,0.0,0.0,0.0,0.0,0.0,0.0,0.0,0.0,0.0,0.0,0.0,0.0,0.0,0.0,0.0,0.0,0.0,0.0,0.0,0.0,0.0,0.0,1.6861,1.6626,1.6513,0.0,0.0,0.0,0.0,0.0,0.0,0.0,0.0,0.0,0.0,0.0,0.0,0.0,0.0,0.0,0.0,0.0,0.0,0.0,0.0,0.0,0.0,0.0,0.0,0.0,0.0,0.0,0.0,0.0,0.0,0.0,0.0,0.0,0.0,0.0,0.0,0.0,0.0,0.0,0.0,0.0,0.0,0.0,0.0,0.0,0.0,0.0,0.0,0.0,0.0,0.0,0.0,0.0,0.0,0.0,0.0,0.0,0.0,0.0,0.0,0.0,0.0,0.0,0.0,0.0,0.0,0.0,0.0,0.0,0.0,0.0,0.0,0.0,0.0,0.0,0.0,0.0,0.0,0.0,0.0,0.0,0.0,0.0,0.0,0.0,0.0,0.0,0.0,0.0,0.0,0.0,0.0,0.0,0.0,0.0,0.0,0.0,0.0,0.0,0.0,0.0,0.0,0.0,0.0,0.0,0.0,0.0,0.0,0.0,0.0,1.6575,0.0,1.6513,1.6513,1.6513,1.6513,0.0,0.0,0.0,0.0,0.0,0.0,0.0,0.0,0.0,0.0,0.0,0.0,0.0,0.0,0.0,0.0,0.0,0.0,0.0,0.0,0.0,0.0,0.0,0.0,0.0,0.0,0.0,0.0,0.0,0.0,0.0,0.0,0.0,0.0,0.0,0.0,0.0,0.0,0.0,0.0,0.0,0.0,0.0,0.0,0.0,0.0,0.0,0.0,0.0,0.0,0.0,0.0,0.0,0.0,0.0,0.0,0.0,0.0,0.0,0.0,0.0,0.0,0.0,0.0,0.0,0.0,0.0,0.0,0.0,0.0,0.0,0.0,0.0,0.0,0.0,0.0,0.0,0.0,0.0,0.0,0.0,0.0,0.0,0.0,0.0,0.0,0.0,0.0,0.0,0.0,0.0,0.0,0.0,0.0,0.0,0.0,0.0,0.0,0.0,0.0,0.0,0.0,0.0,0.0,0.0,0.0,0.0,0.0,0.0,1.6798,1.6522,1.6543,1.6513,1.65,0.0,0.0,0.0,0.0,0.0,0.0,0.0,0.0,0.0,0.0,0.0,0.0,0.0,0.0,0.0,0.0,0.0,0.0,0.0,0.0,0.0,0.0,0.0,0.0,0.0,0.0,0.0,0.0,0.0,0.0,0.0,0.0,0.0,0.0,0.0,0.0,0.0,0.0,0.0,0.0,0.0,0.0,0.0,0.0,0.0,0.0,0.0,0.0,0.0,0.0,0.0,0.0,0.0,0.0,0.0,0.0,0.0,0.0,0.0,0.0,0.0,0.0,0.0,0.0,0.0,0.0,0.0,0.0,0.0,0.0,0.0,0.0,0.0,0.0,0.0,0.0,0.0,0.0,0.0,0.0,0.0,0.0,0.0,0.0,0.0,0.0,0.0,0.0,0.0,0.0,0.0,0.0,0.0,0.0,0.0,0.0,0.0,0.0,0.0,0.0,0.0,0.0,0.0,0.0,0.0,0.0,0.0,0.0,0.0,1.729,1.7117,1.718,1.7483,1.6866,1.6659,0.0,0.0,0.0,0.0,0.0,0.0,0.0,0.0,0.0,0.0,0.0,0.0,0.0,0.0,0.0,0.0,0.0,0.0,0.0,0.0,0.0,0.0,0.0,0.0,0.0,0.0,0.0,0.0,0.0,0.0,0.0,0.0,0.0,0.0,0.0,0.0,0.0,0.0,0.0,0.0,0.0,0.0,0.0,0.0,0.0,0.0,0.0,0.0,0.0,0.0,0.0,0.0,0.0,0.0,0.0,0.0,0.0,0.0,0.0,0.0,0.0,0.0,0.0,0.0,0.0,0.0,0.0,0.0,0.0,0.0,0.0,0.0,0.0,0.0,0.0,0.0,0.0,0.0,0.0,0.0,0.0,0.0,0.0,0.0,0.0,0.0,0.0,0.0,0.0,0.0,0.0,0.0,0.0,0.0,0.0,0.0,0.0,0.0,0.0,0.0,0.0,0.0,0.0,0.0,0.0,0.0,0.0,0.0,0.0,1.7544,0.0,1.7727,0.0,1.7381,1.7188,0.0,0.0,0.0,0.0,0.0,0.0,0.0,0.0,0.0,0.0,0.0,0.0,0.0,0.0,0.0,0.0,0.0,0.0,0.0,0.0,0.0,0.0,0.0,0.0,0.0,0.0,0.0,0.0,0.0,0.0,0.0,0.0,0.0,0.0,0.0,0.0,0.0,0.0,0.0,0.0,0.0,0.0,0.0,0.0,0.0,0.0,0.0,0.0,0.0,0.0,0.0,0.0,0.0,0.0,0.0,0.0,0.0,0.0,0.0,0.0,0.0,0.0,0.0,0.0,0.0,0.0,0.0,0.0,0.0,0.0,0.0,0.0,0.0,0.0,0.0,0.0,0.0,0.0,0.0,0.0,0.0,0.0,0.0,0.0,0.0,0.0,0.0,0.0,0.0,0.0,0.0,0.0,0.0,0.0,0.0,0.0,0.0,0.0,0.0,0.0,0.0,0.0,0.0,0.0,0.0,0.0,0.0,0.0,1.8092,1.8106,1.8092,1.8159,1.8125,1.81,1.8086,0.0,0.0,0.0,0.0,0.0,0.0,0.0,0.0,0.0,0.0,0.0,0.0,0.0,0.0,0.0,0.0,0.0,0.0,0.0,0.0,0.0,0.0,0.0,0.0,0.0,0.0,0.0,0.0,0.0,0.0,0.0,0.0,0.0,0.0,0.0,0.0,0.0,0.0,0.0,0.0,0.0,0.0,0.0,0.0,0.0,0.0,0.0,0.0,0.0,0.0,0.0,0.0,0.0,0.0,0.0,0.0,0.0,0.0,0.0,0.0,0.0,0.0,0.0,0.0,0.0,0.0,0.0,0.0,0.0,0.0,0.0,0.0,0.0,0.0,0.0,0.0,0.0,0.0,0.0,0.0,0.0,0.0,0.0,0.0,0.0,0.0,0.0,0.0,0.0,0.0,0.0,0.0,0.0,0.0,0.0,0.0,0.0,0.0,0.0,0.0,0.0,0.0,0.0,0.0,0.0,0.0,0.0,0.0,0.0,1.865,1.865,1.9051,1.9812,1.8722,1.8478,0.0,0.0,0.0,0.0,0.0,0.0,0.0,0.0,0.0,0.0,0.0,0.0,0.0,0.0,0.0,0.0,0.0,0.0,0.0,0.0,0.0,0.0,0.0,0.0,0.0,0.0,0.0,0.0,0.0,0.0,0.0,0.0,0.0,0.0,0.0,0.0,0.0,0.0,0.0,0.0,0.0,0.0,0.0,0.0,0.0,0.0,0.0,0.0,0.0,0.0,0.0,0.0,0.0,0.0,0.0,0.0,0.0,0.0,0.0,0.0,0.0,0.0,0.0,0.0,0.0,0.0,0.0,0.0,0.0,0.0,0.0,0.0,0.0,0.0,0.0,0.0,0.0,0.0,0.0,0.0,0.0,0.0,0.0,0.0,0.0,0.0,0.0,0.0,0.0,0.0,0.0,0.0,0.0,0.0,0.0,0.0,0.0,0.0,0.0,0.0,0.0,0.0,0.0,0.0,0.0,0.0,0.0,0.0,0.0,1.9587,1.9587,1.9925,2.0688,1.9638,1.932,1.9783,0.0,0.0,0.0,0.0,0.0,0.0,0.0,0.0,0.0,0.0,0.0,0.0,0.0,0.0,0.0,0.0,0.0,0.0,0.0,0.0,0.0,0.0,0.0,0.0,0.0,0.0,0.0,0.0,0.0,0.0,0.0,0.0,0.0,0.0,0.0,0.0,0.0,0.0,0.0,0.0,0.0,0.0,0.0,0.0,0.0,0.0,0.0,0.0,0.0,0.0,0.0,0.0,0.0,0.0,0.0,0.0,0.0,0.0,0.0,0.0,0.0,0.0,0.0,0.0,0.0,0.0,0.0,0.0,0.0,0.0,0.0,0.0,0.0,0.0,0.0,0.0,0.0,0.0,0.0,0.0,0.0,0.0,0.0,0.0,0.0,0.0,0.0,0.0,0.0,0.0,0.0,0.0,0.0,0.0,0.0,0.0,0.0,0.0,0.0,0.0,0.0,0.0,0.0,0.0,0.0,0.0,0.0,0.0,2.0812,2.0793,2.0793,2.0763,2.0718,2.0408,0.0,0.0,0.0,0.0,0.0,0.0,0.0,0.0,0.0,0.0,0.0,0.0,0.0,0.0,0.0,0.0,0.0,0.0,0.0,0.0,0.0,0.0,0.0,0.0,0.0,0.0,0.0,0.0,0.0,0.0,0.0,0.0,0.0,0.0,0.0,0.0,0.0,0.0,0.0,0.0,0.0,0.0,0.0,0.0,0.0,0.0,0.0,0.0,0.0,0.0,0.0,0.0,0.0,0.0,0.0,0.0,0.0,0.0,0.0,0.0,0.0,0.0,0.0,0.0,0.0,0.0,0.0,0.0,0.0,0.0,0.0,0.0,0.0,0.0,0.0,0.0,0.0,0.0,0.0,0.0,0.0,0.0,0.0,0.0,0.0,0.0,0.0,0.0,0.0,0.0,0.0,0.0,0.0,0.0,0.0,0.0,0.0,0.0,0.0,0.0,0.0,0.0,0.0,0.0,0.0,0.0,0.0,0.0,0.0,2.2134,2.2194,2.1939,2.1455,2.0961,2.0613,0.0,0.0,0.0,0.0,0.0,0.0,0.0,0.0,0.0,0.0,0.0,0.0,0.0,0.0,0.0,0.0,0.0,0.0,0.0,0.0,0.0,0.0,0.0,0.0,0.0,0.0,0.0,0.0,0.0,0.0,0.0,0.0,0.0,0.0,0.0,0.0,0.0,0.0,0.0,0.0,0.0,0.0,0.0,0.0,0.0,0.0,0.0,0.0,0.0,0.0,0.0,0.0,0.0,0.0,0.0,0.0,0.0,0.0,0.0,0.0,0.0,0.0,0.0,0.0,0.0,0.0,0.0,0.0,0.0,0.0,0.0,0.0,0.0,0.0,0.0,0.0,0.0,0.0,0.0,0.0,0.0,0.0,0.0,0.0,0.0,0.0,0.0,0.0,0.0,0.0,0.0,0.0,0.0,0.0,0.0,0.0,0.0,0.0,0.0,0.0,0.0,0.0,0.0,0.0,0.0,0.0,0.0,0.0,2.1754,2.3041,2.3355,2.3176,2.2517,2.1874,2.1276,0.0,0.0,0.0,0.0,0.0,0.0,0.0,0.0,0.0,0.0,0.0,0.0,0.0,0.0,0.0,0.0,0.0,0.0,0.0,0.0,0.0,0.0,0.0,0.0,0.0,0.0,0.0,0.0,0.0,0.0,0.0,0.0,0.0,0.0,0.0,0.0,0.0,0.0,0.0,0.0,0.0,0.0,0.0,0.0,0.0,0.0,0.0,0.0,0.0,0.0,0.0,0.0,0.0,0.0,0.0,0.0,0.0,0.0,0.0,0.0,0.0,0.0,0.0,0.0,0.0,0.0,0.0,0.0,0.0,0.0,0.0,0.0,0.0,0.0,0.0,0.0,0.0,0.0,0.0,0.0,0.0,0.0,0.0,0.0,0.0,0.0,0.0,0.0,0.0,0.0,0.0,0.0,0.0,0.0,0.0,0.0,0.0,0.0,0.0,0.0,0.0,0.0,0.0,0.0,0.0,0.0,0.0,0.0,2.244,2.367,2.4409,2.4461,2.3729,2.3101,2.2134,0.0,0.0,0.0,0.0,0.0,0.0,0.0,0.0,0.0,0.0,0.0,0.0,0.0,0.0,0.0,0.0,0.0,0.0,0.0,0.0,0.0,0.0,0.0,0.0,0.0,0.0,0.0,0.0,0.0,0.0,0.0,0.0,0.0,0.0,0.0,0.0,0.0,0.0,0.0,0.0,0.0,0.0,0.0,0.0,0.0,0.0,0.0,0.0,0.0,0.0,0.0,0.0,0.0,0.0,0.0,0.0,0.0,0.0,0.0,0.0,0.0,0.0,0.0,0.0,0.0,0.0,0.0,0.0,0.0,0.0,0.0,0.0,0.0,0.0,0.0,0.0,0.0,0.0,0.0,0.0,0.0,0.0,0.0,0.0,0.0,0.0,0.0,0.0,0.0,0.0,0.0,0.0,0.0,0.0,0.0,0.0,0.0,0.0,0.0,0.0,0.0,0.0,0.0,0.0,0.0,0.0,0.0,0.0,2.3305,2.4365,2.5408,2.545,2.4418,2.3759,2.2547,0.0,0.0,0.0,0.0,0.0,0.0,0.0,0.0,0.0,0.0,0.0,0.0,0.0,0.0,0.0,0.0,0.0,0.0,0.0,0.0,0.0,0.0,0.0,0.0,0.0,0.0,0.0,0.0,0.0,0.0,0.0,0.0,0.0,0.0,0.0,0.0,0.0,0.0,0.0,0.0,0.0,0.0,0.0,0.0,0.0,0.0,0.0,0.0,2.1778,0.0,0.0,0.0,0.0,0.0,0.0,0.0,0.0,0.0,0.0,0.0,0.0,0.0,0.0,0.0,0.0,0.0,0.0,0.0,0.0,0.0,0.0,0.0,0.0,0.0,0.0,0.0,0.0,0.0,0.0,0.0,0.0,0.0,0.0,0.0,0.0,0.0,0.0,0.0,0.0,0.0,0.0,0.0,0.0,0.0,0.0,0.0,0.0,0.0,0.0,0.0,0.0,0.0,0.0,0.0,0.0,0.0,0.0,0.0,2.4708,2.5824,2.6804,2.6841,2.5902,2.553,2.402,0.0,0.0,0.0,0.0,0.0,0.0,0.0,0.0,0.0,0.0,0.0,0.0,0.0,0.0,0.0,0.0,0.0,0.0,0.0,0.0,0.0,0.0,0.0,0.0,0.0,0.0,0.0,0.0,0.0,0.0,0.0,0.0,0.0,0.0,0.0,0.0,0.0,0.0,0.0,0.0,0.0,0.0,0.0,0.0,0.0,0.0,0.0,0.0,0.0,0.0,0.0,0.0,0.0,0.0,0.0,0.0,0.0,0.0,0.0,0.0,0.0,0.0,0.0,0.0,0.0,0.0,0.0,0.0,0.0,0.0,0.0,0.0,0.0,0.0,0.0,0.0,0.0,0.0,0.0,0.0,0.0,0.0,0.0,0.0,0.0,0.0,0.0,0.0,0.0,0.0,0.0,0.0,0.0,0.0,0.0,0.0,0.0,0.0,0.0,0.0,0.0,0.0,0.0,0.0,0.0,0.0,0.0,2.4652,2.5989,2.7267,2.8082,2.8119,2.7331,2.7286,2.5591,2.2081,0.0,0.0,0.0,0.0,0.0,0.0,0.0,0.0,0.0,0.0,0.0,0.0,0.0,0.0,0.0,0.0,0.0,0.0,0.0,0.0,0.0,0.0,0.0,0.0,0.0,0.0,0.0,0.0,0.0,0.0,0.0,0.0,0.0,0.0,0.0,0.0,0.0,0.0,2.2382,2.425,0.0,0.0,0.0,0.0,0.0,0.0,0.0,0.0,2.415,0.0,0.0,0.0,0.0,0.0,0.0,0.0,0.0,0.0,0.0,0.0,0.0,0.0,0.0,0.0,0.0,0.0,0.0,0.0,0.0,0.0,0.0,0.0,0.0,0.0,0.0,0.0,0.0,0.0,0.0,0.0,0.0,0.0,0.0,0.0,0.0,0.0,0.0,0.0,0.0,0.0,0.0,0.0,0.0,0.0,0.0,0.0,0.0,0.0,0.0,0.0,0.0,0.0,0.0,0.0,0.0,2.4521,2.5196,2.6115,2.7293,2.8348,2.8387,2.7341,2.7176,2.5791,2.3063,0.0,0.0,0.0,0.0,0.0,0.0,0.0,0.0,0.0,0.0,0.0,0.0,0.0,0.0,0.0,0.0,0.0,0.0,0.0,0.0,0.0,0.0,0.0,0.0,0.0,0.0,0.0,0.0,0.0,0.0,0.0,0.0,0.0,0.0,0.0,0.0,0.0,0.0,0.0,2.5606,2.6213,0.0,0.0,0.0,0.0,0.0,0.0,0.0,0.0,2.4428,0.0,0.0,0.0,0.0,0.0,0.0,0.0,0.0,0.0,0.0,0.0,0.0,0.0,0.0,0.0,0.0,0.0,0.0,0.0,0.0,0.0,0.0,0.0,0.0,0.0,0.0,0.0,0.0,0.0,0.0,0.0,0.0,0.0,0.0,0.0,0.0,0.0,0.0,0.0,0.0,0.0,0.0,0.0,0.0,0.0,0.0,0.0,0.0,0.0,0.0,0.0,0.0,0.0,0.0,0.0,2.5196,2.664,2.7795,2.8725,2.9288,2.9122,2.8213,2.7341,2.5841,0.0,0.0,0.0,0.0,0.0,0.0,0.0,0.0,0.0,0.0,0.0,0.0,0.0,0.0,0.0,0.0,0.0,0.0,0.0,0.0,0.0,0.0,0.0,0.0,0.0,0.0,0.0,0.0,0.0,0.0,0.0,0.0,0.0,0.0,0.0,0.0,0.0,0.0,0.0,0.0,2.7457,2.8207,2.7911,0.0,0.0,0.0,0.0,0.0,0.0,2.597,2.5709,0.0,0.0,0.0,0.0,0.0,0.0,0.0,0.0,0.0,0.0,0.0,0.0,0.0,0.0,0.0,0.0,0.0,0.0,0.0,0.0,0.0,0.0,0.0,0.0,0.0,0.0,0.0,0.0,0.0,0.0,0.0,0.0,0.0,0.0,0.0,0.0,0.0,0.0,0.0,0.0,0.0,0.0,0.0,0.0,0.0,0.0,0.0,0.0,0.0,0.0,0.0,0.0,0.0,0.0,0.0,2.5626,2.7689,2.911,2.9837,2.9888,2.9516,2.8773,2.7419,2.5849,0.0,0.0,0.0,0.0,0.0,0.0,0.0,0.0,0.0,0.0,0.0,0.0,0.0,0.0,0.0,0.0,0.0,0.0,0.0,0.0,0.0,0.0,0.0,0.0,0.0,0.0,0.0,0.0,0.0,0.0,0.0,0.0,0.0,0.0,0.0,0.0,0.0,0.0,0.0,0.0,0.0,3.0463,2.9586,2.9004,0.0,0.0,0.0,0.0,2.7909,2.7898,0.0,0.0,0.0,0.0,0.0,0.0,0.0,0.0,0.0,0.0,0.0,0.0,0.0,0.0,0.0,0.0,0.0,0.0,0.0,0.0,0.0,0.0,0.0,0.0,0.0,0.0,0.0,0.0,0.0,0.0,0.0,0.0,0.0,0.0,0.0,0.0,0.0,0.0,0.0,0.0,0.0,0.0,0.0,0.0,0.0,0.0,0.0,0.0,0.0,0.0,0.0,0.0,0.0,0.0,0.0,0.0,2.5576,2.7131,2.8349,2.9094,2.9128,2.8738,2.7942,2.7131,2.5998,0.0,0.0,0.0,0.0,0.0,0.0,0.0,0.0,0.0,0.0,0.0,0.0,0.0,0.0,0.0,0.0,0.0,0.0,0.0,0.0,0.0,0.0,0.0,0.0,0.0,0.0,0.0,0.0,0.0,0.0,0.0,0.0,0.0,0.0,0.0,0.0,0.0,0.0,0.0,0.0,0.0,3.2286,3.0302,2.9947,2.9574,0.0,0.0,2.988,3.0625,3.1238,0.0,0.0,0.0,0.0,0.0,0.0,0.0,0.0,0.0,0.0,0.0,0.0,0.0,0.0,0.0,0.0,0.0,0.0,0.0,0.0,0.0,0.0,0.0,0.0,0.0,0.0,0.0,0.0,0.0,0.0,0.0,0.0,0.0,0.0,0.0,0.0,0.0,0.0,0.0,0.0,0.0,0.0,0.0,0.0,0.0,0.0,0.0,0.0,0.0,0.0,0.0,0.0,0.0,0.0,0.0,2.4745,2.6218,2.7706,2.8856,2.9567,2.923,2.862,2.7824,2.6691,2.5575,0.0,0.0,0.0,0.0,0.0,0.0,0.0,0.0,0.0,0.0,0.0,0.0,0.0,0.0,0.0,0.0,0.0,0.0,0.0,0.0,0.0,0.0,0.0,0.0,0.0,0.0,0.0,0.0,0.0,0.0,0.0,0.0,0.0,0.0,0.0,0.0,0.0,0.0,0.0,0.0,0.0,0.0,3.2016,3.1968,0.0,0.0,0.0,3.1613,3.2341,0.0,0.0,0.0,0.0,0.0,0.0,0.0,0.0,0.0,0.0,0.0,0.0,0.0,0.0,0.0,0.0,0.0,0.0,0.0,0.0,0.0,0.0,0.0,0.0,0.0,0.0,0.0,0.0,0.0,0.0,0.0,0.0,0.0,0.0,0.0,0.0,0.0,0.0,0.0,0.0,0.0,0.0,0.0,0.0,0.0,0.0,0.0,0.0,0.0,0.0,0.0,0.0,0.0,0.0,0.0,0.0,0.0,2.6404,2.7926,2.8975,2.948,2.8991,2.8315,2.7536,2.6455,0.0,0.0,0.0,0.0,0.0,0.0,0.0,0.0,0.0,0.0,0.0,0.0,0.0,0.0,0.0,0.0,0.0,0.0,0.0,0.0,0.0,0.0,0.0,0.0,0.0,0.0,0.0,2.1495,0.0,0.0,0.0,0.0,0.0,0.0,0.0,0.0,0.0,0.0,0.0,0.0,0.0,0.0,3.3072,3.3592,3.3829,3.3829,0.0,0.0,3.3305,3.3863,3.3964,3.3254,0.0,0.0,0.0,0.0,0.0,0.0,0.0,0.0,0.0,0.0,0.0,0.0,0.0,0.0,0.0,0.0,0.0,0.0,0.0,0.0,0.0,0.0,0.0,0.0,0.0,0.0,0.0,0.0,0.0,0.0,0.0,0.0,0.0,0.0,0.0,0.0,0.0,0.0,0.0,0.0,0.0,0.0,0.0,0.0,0.0,0.0,0.0,0.0,0.0,0.0,0.0,0.0,0.0,0.0,0.0,2.5693,2.7131,2.7942,2.7959,2.7908,2.7537,2.6793,2.6674,2.5963,0.0,0.0,0.0,0.0,0.0,0.0,0.0,0.0,0.0,0.0,0.0,0.0,0.0,0.0,0.0,0.0,0.0,0.0,0.0,0.0,0.0,0.0,0.0,0.0,0.0,0.0,0.0,0.0,0.0,0.0,0.0,0.0,0.0,0.0,0.0,0.0,0.0,0.0,0.0,0.0,0.0,3.4353,3.4404,3.503,3.5707,0.0,0.0,3.5397,3.5447,3.7178,3.6654,3.1089,0.0,0.0,0.0,0.0,0.0,0.0,0.0,0.0,0.0,0.0,0.0,0.0,0.0,0.0,0.0,0.0,0.0,0.0,0.0,0.0,0.0,0.0,0.0,0.0,0.0,0.0,0.0,0.0,0.0,0.0,0.0,0.0,0.0,0.0,0.0,0.0,0.0,0.0,0.0,0.0,0.0,0.0,0.0,0.0,0.0,0.0,0.0,0.0,0.0,0.0,0.0,0.0,0.0,2.4863,2.5592,2.7537,2.8315,2.7841,2.8281,2.7943,2.6725,2.6708,2.6014,0.0,0.0,0.0,0.0,0.0,0.0,0.0,0.0,0.0,0.0,0.0,0.0,0.0,0.0,0.0,0.0,0.0,0.0,0.0,0.0,0.0,0.0,0.0,0.0,0.0,0.0,0.0,0.0,2.2716,2.2663,2.2953,0.0,0.0,0.0,0.0,0.0,0.0,0.0,0.0,0.0,0.0,3.4844,3.5797,3.6552,0.0,0.0,3.7212,3.7172,3.7618,3.7246,3.5808,3.2645,3.1241,0.0,0.0,0.0,0.0,0.0,0.0,0.0,0.0,0.0,0.0,0.0,0.0,0.0,0.0,0.0,0.0,0.0,0.0,0.0,0.0,0.0,0.0,0.0,0.0,0.0,0.0,0.0,0.0,0.0,0.0,0.0,0.0,0.0,0.0,0.0,0.0,0.0,0.0,0.0,0.0,0.0,0.0,0.0,0.0,0.0,0.0,0.0,0.0,0.0,0.0,0.0,0.0,2.5195,2.5953,2.7994,2.887,2.8578,2.8972,2.8544,2.7282,2.7114,2.6218,0.0,0.0,0.0,0.0,0.0,0.0,0.0,0.0,0.0,0.0,0.0,0.0,0.0,0.0,0.0,0.0,0.0,0.0,0.0,0.0,0.0,0.0,0.0,0.0,0.0,0.0,0.0,0.0,2.3289,2.3193,2.3193,0.0,0.0,0.0,0.0,0.0,0.0,0.0,0.0,0.0,0.0,3.5722,3.7445,3.8014,3.8367,3.8744,3.8279,3.8075,3.8599,3.7533,3.5893,3.3744,0.0,0.0,0.0,0.0,0.0,0.0,0.0,0.0,0.0,0.0,0.0,0.0,0.0,0.0,0.0,0.0,0.0,0.0,0.0,0.0,0.0,0.0,0.0,0.0,0.0,0.0,0.0,2.2327,0.0,0.0,2.2341,0.0,0.0,0.0,0.0,0.0,0.0,0.0,0.0,0.0,0.0,0.0,0.0,0.0,0.0,0.0,0.0,0.0,0.0,0.0,0.0,0.0,0.0,2.5906,2.6778,2.8322,2.9485,3.0158,2.9836,2.9242,2.8496,2.8032,2.6742,2.4574,0.0,0.0,0.0,0.0,0.0,0.0,0.0,0.0,0.0,0.0,0.0,0.0,0.0,0.0,0.0,0.0,0.0,0.0,0.0,0.0,0.0,0.0,0.0,0.0,0.0,0.0,2.35,2.3017,2.2782,0.0,0.0,0.0,0.0,0.0,0.0,0.0,0.0,0.0,0.0,3.4923,3.7192,3.9373,3.9296,3.9467,4.0637,3.9183,3.7963,3.8055,3.8471,3.7669,0.0,0.0,0.0,0.0,0.0,0.0,0.0,0.0,0.0,0.0,0.0,0.0,0.0,0.0,0.0,0.0,0.0,0.0,0.0,0.0,0.0,0.0,0.0,0.0,0.0,0.0,0.0,2.4989,2.4511,0.0,0.0,0.0,0.0,0.0,0.0,0.0,0.0,0.0,0.0,0.0,2.7282,2.8007,0.0,0.0,0.0,0.0,0.0,0.0,0.0,0.0,0.0,0.0,0.0,0.0,2.5928,2.6827,2.8779,2.9996,3.0308,3.0616,3.043,2.9722,2.9024,2.7478,2.4974,0.0,0.0,0.0,0.0,0.0,0.0,0.0,0.0,0.0,0.0,0.0,0.0,0.0,0.0,0.0,0.0,0.0,0.0,0.0,0.0,0.0,0.0,0.0,0.0,0.0,2.4362,0.0,0.0,0.0,0.0,0.0,0.0,0.0,0.0,0.0,0.0,0.0,3.2062,3.4005,3.6717,3.8775,3.9508,4.0337,4.1011,0.0,0.0,0.0,0.0,0.0,0.0,0.0,0.0,0.0,0.0,0.0,0.0,0.0,0.0,3.7313,3.2138,3.0581,3.0142,3.0415,0.0,0.0,0.0,0.0,0.0,0.0,0.0,0.0,0.0,0.0,0.0,0.0,0.0,0.0,2.7121,0.0,2.6596,0.0,0.0,0.0,0.0,0.0,0.0,0.0,0.0,2.9085,2.9702,2.9291,2.9963,2.9479,0.0,2.8003,2.6867,0.0,0.0,0.0,0.0,0.0,0.0,0.0,0.0,2.6871,2.8016,3.0,3.1185,3.1516,3.1867,3.1666,3.0927,2.9478,2.7777,2.5778,2.4462,2.3296,0.0,0.0,0.0,0.0,0.0,0.0,0.0,0.0,0.0,0.0,0.0,0.0,0.0,0.0,0.0,0.0,0.0,0.0,0.0,0.0,0.0,0.0,0.0,2.5326,0.0,0.0,0.0,0.0,0.0,0.0,0.0,0.0,0.0,3.0209,3.2524,3.4803,3.6524,3.8737,4.0326,4.059,0.0,0.0,0.0,0.0,0.0,0.0,0.0,3.8047,3.8251,3.6984,3.6027,3.6232,3.8781,4.0406,3.9223,0.0,0.0,3.5926,3.4438,3.3981,3.4235,3.5453,3.6242,3.5819,3.728,3.8464,0.0,0.0,0.0,0.0,0.0,0.0,0.0,0.0,2.8401,2.8786,0.0,2.8612,0.0,0.0,0.0,0.0,0.0,2.8974,0.0,0.0,3.1922,3.2252,3.1531,3.1531,3.1072,3.0289,3.0241,2.9427,2.7772,2.5661,0.0,0.0,0.0,0.0,0.0,0.0,2.8613,3.0143,3.1726,3.2986,3.3688,3.3386,3.2864,3.2065,2.9554,2.7784,2.6987,2.6111,2.461,2.2445,2.2962,0.0,0.0,0.0,0.0,0.0,0.0,0.0,0.0,0.0,0.0,0.0,0.0,0.0,0.0,0.0,0.0,0.0,0.0,0.0,0.0,2.6797,0.0,0.0,0.0,0.0,0.0,0.0,0.0,0.0,0.0,0.0,3.2609,3.5141,3.7814,3.9896,0.0,0.0,0.0,0.0,4.2062,4.2635,4.164,4.0836,4.0834,4.0745,4.0408,3.9807,0.0,0.0,3.8073,4.0175,4.1478,3.95,4.0899,4.2286,4.2117,4.024,3.9208,3.9792,3.8988,3.865,3.9792,4.0189,4.0536,3.483,0.0,0.0,0.0,0.0,3.2406,3.2858,3.3915,3.3281,3.2502,3.1646,3.1427,0.0,0.0,0.0,0.0,0.0,0.0,3.1578,3.2797,3.383,3.4179,3.3959,3.3959,3.3243,3.1922,3.1904,3.1091,2.9537,2.8864,2.7268,2.4819,0.0,0.0,0.0,0.0,2.917,3.0228,3.1806,3.2999,3.377,3.3675,3.3255,3.2469,3.1144,2.9673,2.8093,2.7252,2.6134,2.4698,2.4289,0.0,0.0,0.0,0.0,0.0,0.0,0.0,0.0,0.0,0.0,0.0,0.0,0.0,0.0,0.0,0.0,0.0,0.0,0.0,2.6527,2.667,2.6843,0.0,0.0,0.0,0.0,0.0,0.0,0.0,0.0,0.0,3.675,3.8619,4.0123,0.0,0.0,4.2774,4.2465,4.2759,4.3087,4.325,4.2941,0.0,4.2705,4.1451,4.0794,4.1654,4.2065,4.1934,4.0978,4.1953,4.2563,4.1503,4.1863,4.2303,4.2269,4.183,4.1441,4.161,4.1728,4.1905,4.2361,4.2878,4.3345,3.8487,3.6597,3.533,3.5073,3.5481,3.5349,3.5656,3.6299,3.6083,3.5459,3.4523,3.4211,3.306,3.1353,3.0711,0.0,0.0,0.0,3.3532,3.4816,3.5279,3.55,3.55,3.5518,3.4821,3.3573,3.3225,3.2412,3.1152,3.0834,2.9542,2.7376,0.0,0.0,2.6898,2.8906,3.0356,3.117,3.2417,3.333,3.3788,3.3807,3.3568,3.3091,3.2284,3.1327,3.0176,2.9034,2.7985,2.7006,2.6189,2.5398,0.0,0.0,0.0,0.0,0.0,0.0,0.0,0.0,0.0,0.0,0.0,2.467,2.3744,0.0,0.0,0.0,2.5965,2.7296,2.7978,2.8613,0.0,0.0,0.0,0.0,0.0,0.0,0.0,3.4523,3.6798,3.856,3.9536,4.1056,4.2047,4.2066,4.2892,4.3331,4.2837,0.0,4.3479,4.3479,4.3479,4.3479,4.3479,4.2463,4.1959,4.285,4.3057,4.3069,4.2851,4.3158,4.3337,4.3057,4.3049,4.3107,4.309,4.3161,4.3108,4.2828,4.3352,4.3859,4.3893,4.4276,4.4598,4.1187,4.093,3.7936,3.6688,3.6743,3.7492,3.7382,3.6762,3.7492,3.7713,3.7547,3.6813,3.5991,3.5023,3.3573,0.0,3.5188,3.5206,3.5646,3.6486,3.6505,3.645,3.6395,3.6395,3.5954,3.5078,3.4284,3.3513,3.2766,3.199,3.1182,3.0375,2.9721,2.928,2.9189,3.0668,3.1861,3.2601,3.3385,3.3807,3.3807,3.3807,3.3807,3.3788,3.3005,3.2583,3.2546,3.1054,2.9849,2.9133,2.8264,2.698,2.5258,0.0,0.0,0.0,0.0,0.0,0.0,0.0,0.0,0.0,0.0,0.0,0.0,0.0,0.0,0.0,2.8638,0.0,3.0393,3.1678,0.0,0.0,0.0,3.1659,3.1856,3.3922,3.5628,3.6468,0.0,0.0,4.1187,4.2525,4.3479,4.3479,4.3479,4.3479,4.3479,4.3479,4.3479,4.3479,4.3479,4.3479,4.3479,4.3388,4.3334,4.3426,4.3479,4.3542,4.3687,4.3766,4.385,4.383,4.4073,4.412,4.4137,4.4139,4.4265,4.346,4.4012,4.4581,4.4547,4.4581,4.4598,4.2029,4.1901,4.0526,3.9939,3.9992,4.0157,4.0157,3.9976,4.0157,3.957,3.8414,3.8212,3.7331,3.5973,3.5587,3.5973,3.6905,3.6905,3.7349,3.812,3.8138,3.7808,3.7235,3.7235,3.678,3.5954,3.5133,3.4619,3.4399,3.3623,3.2834,3.2069,3.2449,3.1751,3.0044,3.1513,3.2399,3.2601,3.3403,3.3807,3.3807,3.3807,3.3807,3.3788,3.3018,3.2601,3.2583,3.1041,3.0099,2.9886,2.8558,2.76,2.7131,2.5949,0.0,0.0,0.0,0.0,0.0,0.0,0.0,0.0,0.0,2.6761,2.528,0.0,2.7387,0.0,2.911,3.0705,3.1904,3.1825,0.0,0.0,3.3495,3.3972,3.584,3.7092,3.8138,3.8946,4.0799,4.2029,4.2011,4.2873,4.3479,4.3479,4.3479,4.3479,4.3479,4.3479,4.3479,4.3479,4.3479,4.3479,4.3479,4.3479,4.3479,4.3479,4.3479,4.3578,4.3838,4.3886,4.3778,4.3536,4.351,4.3327,4.2979,4.3247,4.365,4.3477,4.4045,4.4598,4.4598,4.4598,4.4598,4.2818,4.28,4.2359,4.2176,4.2139,4.1791,4.1425,4.1132,4.1462,4.093,3.9756,3.979,3.9276,3.8432,3.8065,3.8153,3.8521,3.8193,3.8267,3.8689,3.8707,3.845,3.8028,3.8043,3.7606,3.6831,3.634,3.5936,3.5569,3.5147,3.4688,3.4252,3.4706,3.4247,3.2981,3.3073,3.3146,3.3146,3.3587,3.3807,3.3807,3.3807,3.3642,3.3261,3.2821,3.2417,3.2082,3.087,3.021,3.0173,2.8998,2.8172,2.7816,2.6953,2.6146,0.0,0.0,0.0,0.0,0.0,0.0,0.0,0.0,0.0,0.0,0.0,2.8631,2.9359,3.0852,3.2467,3.41,3.4486,3.5183,3.6509,3.6894,3.7459,3.8484,3.9604,4.0469,4.0928,4.2066,4.2837,4.2837,4.3239,4.3479,4.3479,4.3479,4.3479,4.3479,4.3479,4.3479,4.3479,4.3479,4.3479,4.3479,4.3479,4.3479,4.3533,4.3791,4.4088,4.4234,4.4561,4.4713,4.4518,4.4525,4.4384,4.3752,4.3984,4.4268,4.4061,4.4282,4.4564,4.4598,4.4598,4.4598,4.3479,4.3479,4.3479,4.3479,4.3441,4.2763,4.2066,4.1444,4.2158,4.2011,4.1242,4.115,4.1113,4.1058,4.0359,4.0047,4.0008,3.9313,3.8964,3.8872,3.8854,3.8817,3.8707,3.8707,3.8322,3.7658,3.7547,3.7125,3.6468,3.6358,3.6285,3.6285,3.6285,3.6285,3.6229,3.4853,3.4009,3.3807,3.3807,3.3807,3.3807,3.3807,3.3421,3.2638,3.2601,3.221,3.1433,3.0723,3.0356,3.0338,2.9574,2.8851,2.8154,2.7915,2.7174,0.0,2.5705,0.0,0.0,0.0,0.0,0.0,0.0,0.0,0.0,2.9977,3.0399,3.1892,3.3385,3.4945,3.6615,3.8028,3.8891,3.9056,4.0325,4.0983,4.0341,4.1534,4.2451,4.2451,4.3057,4.3479,4.3461,4.3479,4.3479,4.3479,4.3479,4.3479,4.3479,4.3479,4.3479,4.3479,4.3479,4.3479,4.3516,4.3608,4.3681,4.3754,4.4342,4.4874,4.5058,4.559,4.603,4.6083,4.6182,4.6065,4.5473,4.5485,4.5399,4.4828,4.4742,4.4703,4.4626,4.4598,4.4598,4.3479,4.3479,4.3479,4.3479,4.3461,4.3349,4.3185,4.3057,4.3221,4.2818,4.2029,4.1389,4.1113,4.1077,4.0948,4.0873,4.0875,4.071,4.0304,3.968,3.9662,3.9331,3.8707,3.8707,3.8634,3.8432,3.7823,3.7419,3.7272,3.6615,3.6285,3.6285,3.6285,3.6285,3.6266,0.0,0.0,0.0,3.3807,3.3807,3.3807,3.3807,3.3421,3.2638,3.2601,0.0,3.1452,3.1268,3.1164,3.1127,3.0393,0.0,0.0,0.0,0.0,0.0,0.0,0.0,0.0,0.0,0.0,0.0,3.1629,3.1384,3.125,3.2821,3.4289,3.5293,3.6244,3.7474,3.9038,3.9478,3.9918,4.0598,4.1497,4.2011,4.1882,4.269,4.3259,4.3259,4.3406,4.3479,4.3479,4.3479,4.3479,4.3479,4.3479,4.3479,4.3479,4.3479,4.3479,4.3479,4.3479,4.3479,4.3479,4.4048,4.4397,4.458,4.5131,4.5865,4.6434,4.6691,4.6923,4.7082,4.7163,4.696,4.6299,4.6223,4.6039,4.5433,4.532,4.5178,4.472,4.4598,4.4598,4.3479,0.0,4.3479,4.3479,0.0,4.3479,4.3479,4.3479,4.3479,4.3276,4.2873,4.247,4.2304,4.2268,4.1882,4.1699,4.168,4.1279,4.0875,4.0487,4.0065,3.968,3.9276,3.8891,3.8707,3.8689,3.8285,3.8102,3.8065,3.7679,3.7477,3.7477,3.7477,3.7477,3.7477,3.7088,3.6064,3.4399,3.4394,3.4211,3.3825,3.3807,3.3421,3.2638,3.2601,0.0,0.0,0.0,0.0,0.0,0.0,0.0,0.0,0.0,0.0,2.9597,2.9953,3.0173,3.021,3.1311,3.2504,3.3702,3.4912,3.5092,3.3899,3.5293,3.6743,3.7955,3.8447,3.9347,4.0891,4.1093,4.1405,4.2194,4.2635,4.2892,4.2928,4.324,4.3479,4.3479,4.3479,4.3479,4.3479,4.3479,4.3479,4.3479,4.3479,4.3479,4.3479,4.3479,4.3479,4.3479,4.3479,4.3626,4.403,4.4397,4.4892,4.5259,4.5957,4.6599,4.7021,4.7424,4.7751,4.7824,4.7856,4.7635,4.7066,4.6869,4.6594,4.5775,4.5511,4.5294,4.4748,4.4598,4.4598,4.3479,4.3479,4.3479,4.3479,4.3479,4.3479,4.3479,4.3479,0.0,0.0,0.0,4.3479,4.3479,4.346,4.28,4.2525,4.2451,4.1811,4.1444,4.1279,4.0653,4.0249,4.0065,3.9294,3.8927,3.8909,3.8762,3.8707,3.8707,3.8707,3.8707,3.8707,3.8707,3.8707,3.867,3.8043,3.6964,3.5518,3.5298,3.4839,3.4064,3.4009,3.3568,3.2619,3.2601,3.1904,3.0503,3.1182,3.0999,2.9757,3.0907,3.1366,3.0907,3.1329,3.1678,3.1856,3.2577,3.3023,3.3041,3.3917,3.4853,3.5811,3.7866,3.8524,3.7037,3.7676,3.8726,4.0212,4.0338,4.091,4.2359,4.2506,4.2782,4.3424,4.3479,4.3479,4.3479,4.3479,4.3479,4.3479,4.3479,4.3479,4.3479,4.3479,4.3479,4.3479,4.3479,4.3479,4.3479,4.3479,4.3479,4.3479,4.3479,4.3718,4.4305,4.4819,4.5149,4.5755,4.6654,4.7296,4.7406,4.7846,4.8269,4.8249,4.8305,4.8093,4.7695,4.7533,4.715,4.6081,4.5707,4.5485,4.4934,4.4682,4.4615,4.3479,4.3479,4.3479,4.3479,4.3479,4.3479,4.3479,4.3479,4.3479,4.3479,4.3479,4.3479,4.3479,4.3479,4.3386,4.3314,4.3314,4.3204,4.2782,4.2139,4.1992,4.1607,4.0893,4.0102,3.9735,3.968,3.9019,3.8707,3.8707,3.8707,3.8707,3.8707,3.8707,3.8707,3.8689,3.8579,3.8083,3.7162,3.6483,3.5697,3.4857,3.4839,3.4105,3.2693,3.2619,3.2179,3.1305,3.2027,3.2339,3.2106,3.2307,3.2687,3.3238,3.2761,3.2742,3.344,3.4215,3.4656,3.4711,3.6101,3.7639,3.9074,4.0175,4.0377,3.9515,4.0139,4.0983,4.1864,4.1937,4.2323,4.3204,4.3296,4.3314,4.3478,4.3479,4.3479,4.3479,4.3479,4.3479,4.3479,4.3479,4.3479,4.3479,4.3479,4.3479,4.3479,4.3479,4.3479,4.3479,4.3479,4.3479,4.3479,4.3479,4.3534,4.3993,4.4911,4.5718,4.5865,4.7168,4.8049,4.8012,4.8196,4.8324,4.8324,4.8324,4.8248,4.8114,4.8172,4.7777,4.7062,4.6524,4.6039,4.5355,4.4906,4.4598,4.3479,4.3479,4.3479,4.3479,4.3479,4.3479,4.3479,4.3479,4.3479,4.3479,4.3479,4.3479,4.3479,4.3479,4.3479,4.3479,4.3479,4.3479,4.3296,4.2928,4.2488,4.2103,4.1682,4.0946,4.0322,3.99,3.9533,3.9129,3.8744,3.8707,3.8707,3.8707,3.8707,3.8707,3.8707,3.8707,3.8505,3.8153,3.7364,3.6541,3.5734,3.5716,3.5349,3.4614,3.4596,3.4197,3.339,3.4156,3.4192,3.3293,3.4119,3.4578,3.4454,3.4559,3.478,3.5147,3.5917,3.6541,3.6986,3.8542,3.9955,4.1093,4.1552,4.1809,4.1862,4.1772,4.2103,4.2837,4.2947,4.3094,4.3478,4.3479,4.3479,4.3479,4.3479,4.3479,4.3479,4.3479,4.3479,4.3479,4.3479,4.3479,4.3479,4.3479,4.3479,4.3479,4.3479,4.3479,4.3479,4.3479,4.3479,4.3516,4.3846,4.4323,4.4727,4.5755,4.6636,4.7095,4.7792,4.8269,4.8324,4.8324,4.8324,4.8324,4.8324,4.8324,4.8324,4.8324,4.7897,4.7044,4.6646,4.607,4.5267,4.4776,4.4626,4.3479,4.3479,4.3479,4.3479,4.3479,4.3479,4.3479,4.3479,4.3479,4.3479,4.3479,4.3479,4.3479,4.3479,4.3479,4.3479,4.3479,4.3479,4.3479,4.3441,4.2855,4.2561,4.2488,4.1754,4.1038,4.0469,4.0267,3.9845,3.9313,3.9258,3.9148,3.8964,3.8799,3.8707,3.8707,3.8707,3.8707,3.867,3.8083,3.7382,3.6611,3.6593,3.6468,3.6303,3.6266,3.5973,3.5371,3.5954,3.5697,3.4541,3.5605,3.6083,3.5628,3.6193,3.6707,3.7092,3.7694,3.8392,3.9224,4.0561,4.1644,4.2249,4.2488,4.2818,4.3351,4.2928,4.2818,4.3369,4.3442,4.3461,4.3479,4.3479,4.3479,4.3479,4.3479,4.3479,4.3479,4.3479,4.3479,4.3479,4.3479,4.3479,4.3479,4.3479,4.3479,4.3479,4.3479,4.3479,4.3479,4.3479,4.3479,4.3644,4.4176,4.4783,4.559,4.6434,4.7204,4.7994,4.8158,4.8268,4.8324,4.8324,4.8324,4.8324,4.8324,4.8324,4.8287,4.8152,4.7718,4.6932,4.6454,4.5833,4.4879,4.4626,4.4598,4.3479,4.3479,4.3479,4.3479,4.3479,4.3479,4.3479,4.3479,4.3479,4.3479,4.3479,4.3479,4.3479,4.3479,4.3479,4.3479,4.3479,4.3479,4.3479,4.3479,4.3423,4.3369,4.3294,4.2561,4.2139,4.1937,4.1315,4.0912,4.0747,4.0802,4.0487,3.9772,3.9074,3.8726,3.8726,3.8707,3.8707,3.8707,3.8634,3.8193,3.7456,3.7401,3.7052,3.6303,3.6321,3.6266,3.6229,3.6248,3.6229,3.6083,3.6229,3.6629,3.718,3.7345,3.8043,3.9368,3.9625,4.0029,4.082,4.1699,4.2231,4.2341,4.2983,4.3369,4.3479,4.3406,4.3387,4.3479,4.3479,4.3479,4.3479,4.3479,4.3479,4.3479,4.3479,4.3479,4.3479,4.3479,4.3479,4.3479,4.3479,4.3479,4.3479,4.3479,4.3479,4.3479,4.3479,4.3479,4.3479,4.3479,4.3479,4.3608,4.4176,4.4673,4.5112,4.6159,4.7149,4.7406,4.7884,4.8233,4.8324,4.8324,4.8324,4.8324,4.8324,4.8324,4.8172,4.7879,4.7509,4.7017,4.6305,4.5372,4.4786,4.4598,4.4598,4.3479,4.3479,4.3479,4.3479,4.3479,4.3479,4.3479,4.3479,4.3479,4.3479,4.3479,4.3479,4.3479,4.3479,4.3479,4.3479,4.3479,4.3479,4.3479,4.3479,4.3479,4.3479,4.346,4.3184,4.2782,4.2323,4.1956,4.1572,4.1168,4.1113,4.093,4.0561,3.9808,3.9405,3.9368,3.8946,3.8707,3.8707,3.8707,3.8524,3.8267,3.8212,3.8046,3.7771,3.7716,3.7716,3.7734,3.7716,3.7734,3.7716,3.7716,3.7863,3.8175,3.8652,3.9218,3.99,4.0799,4.146,4.1791,4.2561,4.3002,4.3002,4.3331,4.3479,4.3479,4.3479,4.3479,4.3479,4.3479,4.3479,4.3479,4.3479,4.3479,4.3479,4.3479,4.3479,4.3479,4.3479,4.3479,4.3479,4.3479,4.3479,4.3479,4.3479,4.3479,4.3479,4.3479,4.3497,4.3516,4.3479,4.3479,4.3589,4.4176,4.4874,4.5406,4.6764,4.7609,4.7847,4.8067,4.8306,4.8324,4.8324,4.8324,4.8324,4.8324,4.8324,4.8324,4.7797,4.732,4.6796,4.5883,4.4879,4.4609,4.4598,4.4598,4.3479,4.3479,4.3479,4.3479,4.3479,4.3479,4.3479,4.3479,4.3479,4.3479,4.3479,4.3479,4.3479,4.3479,4.3479,4.3479,4.3479,4.3479,4.3479,4.3479,4.3479,4.3479,4.3479,4.3479,4.3221,4.2727,4.2635,4.2323,4.1756,4.1499,4.1442,4.1315,4.0634,4.023,4.0139,3.9423,3.9038,3.9019,3.8836,3.8707,3.8689,3.8707,3.8707,3.8707,3.8707,3.8707,3.8707,3.8707,3.8707,3.8707,3.8707,3.8799,3.9019,3.957,4.0084,4.0598,4.1846,4.2635,4.2635,4.3167,4.3479,4.3479,4.3479,4.3479,4.3479,4.3479,4.3479,4.3479,4.3479,4.3479,4.3479,4.3479,4.3479,4.3479,4.3479,4.3479,4.3479,4.3479,4.3479,4.3479,4.3479,4.3479,4.3479,4.3497,4.3552,4.3828,4.3663,4.3773,4.3938,4.3846,4.357,4.3791,4.4525,4.5223,4.5883,4.6911,4.7884,4.8306,4.8324,4.8324,4.8324,4.8324,4.8324,4.8324,4.8324,4.8132,4.7897,4.747,4.6819,4.6039,4.5214,4.4626,4.4598,4.4598,4.4598,4.3479,4.3479,4.3479,4.3479,4.3479,4.3479,4.3479,4.3479,4.3479,4.3479,4.3479,4.3479,4.3479,4.3479,4.3479,4.3479,4.3479,4.3479,4.3479,4.3479,4.3479,4.3479,4.3479,4.3479,4.3461,4.3332,4.3331,4.3314,4.3239,4.2616,4.2249,4.2194,4.1442,4.1058,4.093,4.0249,3.9845,3.9772,3.9166,3.8781,3.8762,3.8762,3.8707,3.8762,3.8707,3.8707,3.8707,3.8707,3.8707,3.8707,3.8707,3.9038,3.9717,3.99,4.0634,4.2011,4.2947,4.3423,4.3387,4.3442,4.3479,4.3479,4.3479,4.3479,4.3479,4.3479,4.3479,4.3479,4.3479,4.3479,4.3479,4.3479,4.3479,4.3479,4.3479,4.3479,4.3479,4.3479,4.3479,4.3479,4.3479,4.3479,4.3479,4.3479,4.3809,4.414,4.3938,4.3901,4.48,4.4304,4.3901,4.4397,4.5094,4.5828,4.5975,4.6929,4.7664,4.8031,4.8324,4.8324,4.8324,4.8324,4.8324,4.8324,4.8324,4.8055,4.753,4.6842,4.6081,4.5425,4.4998,4.4598,4.4598,4.4598,4.4598,4.3479,4.3479,4.3479,4.3479,4.3479,4.3479,4.3479,4.3479,4.3479,4.3479,4.3479,4.3479,4.3479,4.3479,4.3479,4.3479,4.3479,4.3479,4.3479,4.3479,4.3479,4.3479,4.3479,4.3479,4.3479,4.3479,4.3479,4.3479,4.3478,4.3185,4.3057,4.2928,4.2268,4.1882,4.1719,4.1093,4.0671,4.0579,3.9882,3.9698,4.0047,3.9239,3.8946,3.9405,3.8964,3.8707,3.8707,3.8707,3.8707,3.8707,3.8707,3.9056,3.9863,4.0873,4.1901,4.2928,4.3349,4.3479,4.3479,4.3479,4.3479,4.3479,4.3479,4.3479,4.3479,4.3479,4.3479,4.3479,4.3479,4.3479,4.3479,4.3479,4.3479,4.3479,4.3479,4.3479,4.3479,4.3479,4.3479,4.3479,4.3479,4.3479,4.3479,4.3479,4.3608,4.3828,4.3681,4.3883,4.4103,4.3827,4.3681,4.3975,4.4599,4.5314,4.5902,4.7076,4.7994,4.8159,4.8324,4.8324,4.8324,4.8324,4.8324,4.8324,4.8324,4.8132,4.7575,4.6705,4.5833,4.5025,4.4598,4.4598,4.4598,4.4598,4.4598,4.3479,4.3479,4.3479,4.3479,4.3479,4.3479,4.3479,4.3479,4.3479,4.3479,4.3479,4.3479,4.3479,4.3479,4.3479,4.3479,4.3479,4.3479,4.3479,4.3479,4.3479,4.3479,4.3479,4.3479,4.3479,4.3479,4.3479,4.3479,4.3479,4.3479,4.3479,4.3424,4.2928,4.2671,4.2561,4.1901,4.148,4.135,4.0708,4.0579,4.0893,4.0065,3.9735,4.012,3.9772,3.9203,3.8762,3.8946,3.9093,3.9111,3.9331,3.9845,4.0708,4.1956,4.291,4.3406,4.3479,4.3479,4.3479,4.3479,4.3479,4.3479,4.3479,4.3479,4.3479,4.3479,4.3479,4.3479,4.3479,4.3479,4.3479,4.3479,4.3479,4.3479,4.3479,4.3479,4.3479,4.3479,4.3479,4.3479,4.3479,4.3479,4.3479,4.3479,4.379,4.4157,4.4085,4.4084,4.4837,4.4287,4.403,4.4267,4.4837,4.5388,4.603,4.7168,4.8031,4.8269,4.8324,4.8324,4.8324,4.8324,4.8267,4.8305,4.8191,4.8037,4.7512,4.6589,4.5699,4.4814,4.4598,4.4598,4.4598,4.4598,4.4598,4.3479,4.3479,4.3479,4.3479,4.3479,4.3479,4.3479,4.3479,4.3479,4.3479,4.3479,4.3479,4.3479,4.3479,4.3479,4.3479,4.3479,4.3479,4.3479,4.3479,4.3479,4.3479,4.3479,4.3479,4.3479,4.3479,4.3479,4.3479,4.3479,4.3479,4.3479,4.3479,4.3442,4.3332,4.346,4.2671,4.2304,4.2121,4.1515,4.1168,4.1113,4.1003,4.093,4.1077,4.0967,4.0251,3.8909,3.9533,3.99,3.9974,4.0563,4.1425,4.2066,4.2928,4.3461,4.3478,4.3479,4.3479,4.3479,4.3479,4.3479,4.3479,4.3479,4.3479,4.3479,4.3479,4.3479,4.3479,4.3479,4.3479,4.3479,4.3479,4.3479,4.3479,4.3479,4.3479,4.3479,4.3479,4.3479,4.3479,4.3479,4.3479,4.3515,4.3608,4.4103,4.4984,4.5076,4.5296,4.6581,4.5608,4.5095,4.5516,4.5645,4.5736,4.6434,4.7168,4.781,4.8324,4.8324,4.8324,4.8324,4.8305,4.8152,4.8113,4.7777,4.7554,4.6778,4.5915,4.5372,4.4692,4.4637,4.4598,4.4598,4.4598,4.4598,4.3479,4.3479,4.3479,4.3479,4.3479,4.3479,4.3479,4.3479,4.3479,4.3479,4.3479,4.3479,4.3479,4.3479,4.3479,4.3479,4.3479,4.3479,4.3479,4.3479,4.3479,4.3479,4.3479,4.3479,4.3479,4.3479,4.3479,4.3479,4.3479,4.3479,4.3479,4.3479,4.3479,4.3479,4.3479,4.324,4.313,4.3056,4.2341,4.2176,4.2561,4.168,4.137,4.1809,4.1389,4.0802,4.0414,4.0598,4.071,4.0744,4.0967,4.1462,4.2268,4.3039,4.3461,4.3479,4.3479,4.3479,4.3479,4.3479,4.3479,4.3479,4.3479,4.3479,4.3479,4.3479,4.3479,4.3479,4.3479,4.3479,4.3479,4.3479,4.3479,4.3479,4.3479,4.3479,4.3479,4.3479,4.3479,4.3479,4.3479,4.3479,4.3608,4.3864,4.4507,4.5131,4.5369,4.6049,4.6287,4.5847,4.5057,4.5718,4.5847,4.6159,4.6764,4.7388,4.7994,4.8324,4.8324,4.8324,4.8324,4.8267,4.8132,4.7756,4.7388,4.6824,4.6039,4.5459,4.4971,4.4692,4.4626,4.4598,4.4598,4.4598,4.4598,4.3479,4.3479,4.3479,4.3479,4.3479,4.3479,4.3479,4.3479,4.3479,4.3479,4.3479,4.3479,4.3479,4.3479,4.3479,4.3479,4.3479,4.3479,4.3479,4.3479,4.3479,4.3479,4.3479,4.3479,4.3479,4.3479,4.3479,4.3479,4.3479,4.3479,4.3479,4.3479,4.3479,4.3479,4.3479,4.3479,4.3479,4.3404,4.3002,4.3002,4.3185,4.2506,4.2249,4.2598,4.2268,4.2011,4.1992,4.1992,4.1846,4.168,4.1809,4.2249,4.2745,4.3222,4.3479,4.3479,4.3479,4.3479,4.3479,4.3479,4.3479,4.3479,4.3479,4.3479,4.3479,4.3479,4.3479,4.3479,4.3479,4.3479,4.3479,4.3479,4.3479,4.3479,4.3479,4.3479,4.3479,4.3479,4.3479,4.3479,4.3479,4.3626,4.4011,4.4305,4.5003,4.5443,4.6012,4.6544,4.6507,4.6177,4.614,4.6195,4.6379,4.6709,4.7039,4.759,4.8214,4.8324,4.8324,4.8324,4.8324,4.8305,4.8209,4.7449,4.6955,4.6353,4.5597,4.5258,4.4841,4.472,4.4598,4.4598,4.4615,4.4598,4.4666,4.3479,4.3479,4.3479,4.3479,4.3479,4.3479,4.3479,4.3479,4.3479,4.3479,4.3479,4.3479,4.3479,4.3479,4.3479,4.3479,4.3479,4.3479,4.3479,4.3479,4.3479,4.3479,4.3479,4.3479,4.3479,4.3479,4.3479,4.3479,4.3479,4.3479,4.3479,4.3479,4.3479,4.3479,4.3479,4.3479,4.3479,4.3479,4.346,4.3442,4.3479,4.3406,4.3404,4.3424,4.3351,4.3277,4.324,4.3222,4.3002,4.2561,4.2947,4.3277,4.3442,4.3479,4.3479,4.3479,4.3479,4.3479,4.3479,4.3479,4.3479,4.3479,4.3479,4.3479,4.3479,4.3479,4.3479,4.3479,4.3479,4.3479,4.3479,4.3479,4.3516,4.3588,4.3699,4.3681,4.3606,4.3681,4.3919,4.3828,4.3699,4.3901,4.4727,4.4893,4.5663,4.6489,4.7021,4.7424,4.7608,4.7296,4.7131,4.7094,4.7039,4.7149,4.7443,4.7755,4.8306,4.8324,4.8305,4.8287,4.8113,4.8015,4.7818,4.7088,4.6353,4.5775,4.5346,4.4971,4.4759,4.4637,4.4598,4.4615,4.4733,4.4869,4.5111,4.3479,4.3479,4.3479,4.3479,4.3479,4.3479,4.3479,4.3479,4.3479,4.3479,4.3479,4.3479,4.3479,4.3479,4.3479,4.3479,4.3479,4.3479,4.3479,4.3479,4.3479,4.3479,4.3479,4.3479,4.3479,4.3479,4.3479,4.3479,4.3479,4.3479,4.3479,4.3479,4.3479,4.3479,4.3479,4.3479,4.3479,4.3479,4.3479,4.3479,4.3479,4.3479,4.3479,4.3479,4.3479,4.3479,4.3479,4.3479,4.3441,4.3258,4.3349,4.3479,4.3479,4.3479,4.3479,4.3479,4.3479,4.3479,4.3479,4.3479,4.3479,4.3479,4.3479,4.3479,4.3479,4.3497,4.3497,4.3479,4.3479,4.3552,4.3516,4.3552,4.3791,4.4287,4.4433,4.4452,4.447,4.4911,4.5259,4.5259,4.5186,4.5296,4.559,4.603,4.6544,4.7076,4.7571,4.7976,4.8048,4.7791,4.7333,4.759,4.7626,4.7663,4.781,4.8085,4.8287,4.8306,4.8287,4.823,4.7858,4.7449,4.7088,4.6524,4.5724,4.5079,4.4906,4.4665,4.4598,4.4682,4.4733,4.4835,4.5246,4.5517,4.5855,4.3479,4.3479,4.3479,4.3479,4.3479,4.3479,4.3479,4.3479,4.3479,4.3479,4.3479,4.3479,4.3479,4.3479,4.3479,4.3479,4.3479,4.3479,4.3479,4.3479,4.3479,4.3479,4.3479,4.3479,4.3479,4.3479,4.3479,4.3479,4.3479,4.3479,4.3479,4.3479,4.3479,4.3479,4.3479,4.3479,4.3479,4.3479,4.3479,4.3479,4.3479,4.3479,4.3479,4.3479,4.3479,4.3479,4.3479,4.3479,4.3479,4.3479,4.3479,4.3479,4.3479,4.3479,4.3479,4.3479,4.3479,4.3479,4.3479,4.3479,4.3479,4.3479,4.3479,4.3479,4.3571,4.3754,4.3993,4.403,4.4287,4.447,4.4507,4.4507,4.4727,4.5149,4.548,4.5553,4.5259,4.5571,4.5847,4.5902,4.5902,4.6067,4.6342,4.6837,4.7223,4.7571,4.7957,4.8177,4.8251,4.7828,4.7626,4.7865,4.8031,4.7993,4.7993,4.8195,4.8301,4.832,4.8059,4.8045,4.7684,4.7084,4.6501,4.5978,4.515,4.4682,4.4784,4.4835,4.4823,4.4891,4.4942,4.5314,4.5838,4.6177,4.6532,4.3479,4.3479,4.3479,4.3479,4.3479,4.3479,4.3479,4.3479,4.3479,4.3479,4.3479,4.3479,4.3479,4.3479,4.3479,4.3479,4.3479,4.3479,4.3479,4.3479,4.3479,4.3479,4.3479,4.3479,4.3479,4.3479,4.3479,4.3479,4.3479,4.3479,4.3479,4.3479,4.3479,4.3479,4.3479,4.3479,4.3479,4.3479,4.3479,4.3479,4.3479,4.3479,4.3479,4.3479,4.3479,4.3479,4.3479,4.3479,4.3479,4.3479,4.3479,4.3479,4.3479,4.3479,4.3479,4.3479,4.3479,4.3479,4.3479,4.3479,4.3479,4.3497,4.3589,4.3643,4.3846,4.4378,4.4837,4.4819,4.5498,4.5608,4.57,4.5847,4.5957,4.614,4.6709,4.6782,4.6379,4.614,4.614,4.6159,4.6195,4.6544,4.6947,4.7296,4.7498,4.7901,4.8214,4.8251,4.8324,4.8141,4.803,4.8159,4.8251,4.8288,4.8288,4.8306,4.8318,4.8291,4.7868,4.7661,4.7497,4.6923,4.6172,4.5579,4.5565,4.5411,4.5275,4.5275,4.5297,4.5483,4.5754,4.621,4.6684,4.6853,4.7141,4.3479,4.3479,4.3479,4.3479,4.3479,4.3479,4.3479,4.3479,4.3479,4.3479,4.3479,4.3479,4.3479,4.3479,4.3479,4.3479,4.3479,4.3479,4.3479,4.3479,4.3479,4.3479,4.3479,4.3479,4.3479,4.3479,4.3479,4.3479,4.3479,4.3479,4.3479,4.3479,4.3479,4.3479,4.3479,4.3479,4.3479,4.3479,4.3479,4.3479,4.3479,4.3479,4.3479,4.3479,4.3479,4.3479,4.3479,4.3479,4.3479,4.3479,4.3479,4.3479,4.3479,4.3479,4.3479,4.3479,4.3479,4.3479,4.3479,4.3479,4.3497,4.3608,4.4048,4.4434,4.4507,4.5186,4.559,4.5645,4.581,4.6067,4.614,4.6544,4.6783,4.7003,4.7498,4.7939,4.781,4.7719,4.7627,4.7664,4.7682,4.7847,4.7957,4.7957,4.8103,4.8306,4.8324,4.8324,4.8324,4.8324,4.8324,4.8324,4.8324,4.8305,4.8303,4.8334,4.84,4.833,4.789,4.738,4.7214,4.716,4.6565,4.6388,4.643,4.6221,4.5867,4.6104,4.621,4.6413,4.6616,4.7022,4.7361,4.753,4.7733,4.3479,4.3479,4.3479,4.3479,4.3479,4.3479,4.3479,4.3479,4.3479,4.3479,4.3479,4.3479,4.3479,4.3479,4.3479,4.3479,4.3479,4.3479,4.3479,4.3479,4.3479,4.3479,4.3479,4.3479,4.3479,4.3479,4.3479,4.3479,4.3479,4.3479,4.3479,4.3479,4.3479,4.3479,4.3479,4.3479,4.3479,4.3479,4.3479,4.3479,4.3479,4.3479,4.3479,4.3479,4.3479,4.3479,4.3479,4.3479,4.3479,4.3479,4.3479,4.3479,4.3479,4.3479,4.3479,4.3479,4.3479,4.3479,4.3479,4.3497,4.3644,4.403,4.4488,4.4874,4.5333,4.6012,4.6397,4.6562,4.6801,4.7058,4.7058,4.7333,4.7626,4.7718,4.803,4.8306,4.8324,4.8324,4.8324,4.8324,4.8214,4.8233,4.8306,4.8324,4.8324,4.8324,4.8324,4.8324,4.8324,4.8324,4.8324,4.8324,4.8324,4.8323,4.832,4.8375,4.8511,4.835,4.8049,4.75,4.7083,4.7116,4.7113,4.701,4.6867,4.6741,4.6498,4.6786,4.7073,4.7225,4.7445,4.7784,4.8054,4.8257,4.8426,4.3479,4.3479,4.3479,4.3479,4.3479,4.3479,4.3479,4.3479,4.3479,4.3479,4.3479,4.3479,4.3479,4.3479,4.3479,4.3479,4.3479,4.3479,4.3479,4.3479,4.3479,4.3479,4.3479,4.3479,4.3479,4.3479,4.3479,4.3479,4.3479,4.3479,4.3479,4.3479,4.3479,4.3479,4.3479,4.3479,4.3479,4.3479,4.3479,4.3479,4.3479,4.3479,4.3479,4.3479,4.3479,4.3479,4.3479,4.3479,4.3479,4.3479,4.3479,4.3479,4.3479,4.3479,4.3479,4.3479,4.3479,4.3479,4.3479,4.3534,4.3828,4.4617,4.4892,4.5296,4.603,4.6764,4.7186,4.7443,4.7719,4.8086,4.8288,4.8196,4.8214,4.8269,4.8288,4.8324,4.8324,4.8324,4.8324,4.8324,4.8324,4.8324,4.8324,4.8324,4.8324,4.8324,4.8343,4.8343,4.8361,4.8508,4.8618,4.8893,4.9058,4.8946,4.8919,4.885,4.8915,4.872,4.84,4.7955,4.7464,4.7699,4.7848,4.7373,4.717,4.7192,4.7327,4.7581,4.7834,4.799,4.8125,4.8359,4.8646,4.8968,4.9001,4.3479,4.3479,4.3479,4.3479,4.3479,4.3479,4.3479,4.3479,4.3479,4.3479,4.3479,4.3479,4.3479,4.3479,4.3479,4.3479,4.3479,4.3479,4.3479,4.3479,4.3479,4.3479,4.3479,4.3479,4.3479,4.3479,4.3479,4.3479,4.3479,4.3479,4.3479,4.3479,4.3479,4.3479,4.3479,4.3479,4.3479,4.3479,4.3479,4.3479,4.3479,4.3479,4.3479,4.3479,4.3479,4.3479,4.3479,4.3479,4.3479,4.3479,4.3479,4.3479,4.3479,4.3479,4.3479,4.3479,4.3479,4.3479,4.3479,4.3552,4.3938,4.4617,4.5333,4.6067,4.6819,4.7535,4.7883,4.803,4.8141,4.8324,4.8324,4.8324,4.8324,4.8324,4.8324,4.8324,4.8324,4.8324,4.8324,4.8324,4.8324,4.8324,4.8343,4.8398,4.8471,4.8508,4.8545,4.8563,4.86,4.893,4.9297,4.9646,5.005,4.9849,4.9651,4.9559,4.9516,4.9286,4.9052,4.886,4.857,4.8683,4.8578,4.8037,4.8037,4.8308,4.8426,4.8392,4.846,4.8545,4.8714,4.8832,4.8917,4.9018,4.9018,4.3479,4.3479,4.3479,4.3479,4.3479,4.3479,4.3479,4.3479,4.3479,4.3479,4.3479,4.3479,4.3479,4.3479,4.3479,4.3479,4.3479,4.3479,4.3479,4.3479,4.3479,4.3479,4.3479,4.3479,4.3479,4.3479,4.3479,4.3479,4.3479,4.3479,4.3479,4.3479,4.3479,4.3479,4.3479,4.3479,4.3479,4.3479,4.3479,4.3479,4.3479,4.3479,4.3479,4.3479,4.3479,4.3479,4.3479,4.3479,4.3479,4.3479,4.3479,4.3479,4.3479,4.3479,4.3497,4.3516,4.3497,4.3497,4.3608,4.3828,4.4525,4.5278,4.6049,4.6874,4.7516,4.8049,4.8306,4.8324,4.8324,4.8324,4.8324,4.8324,4.8324,4.8324,4.8343,4.8343,4.8324,4.8324,4.8379,4.8398,4.8379,4.8398,4.8416,4.8489,4.8618,4.8691,4.8765,4.8857,4.8967,4.9426,4.9958,5.0435,5.0839,5.0777,5.0554,5.0398,5.0098,4.9836,4.9552,4.9378,4.9188,4.9127,4.8961,4.8612,4.8866,4.9001,4.8951,4.8731,4.89,4.9018,4.8968,4.8934,4.8968,4.9018,4.9018,4.3479,4.3479,4.3479,4.3479,4.3479,4.3479,4.3479,4.3479,4.3479,4.3479,4.3479,4.3479,4.3479,4.3479,4.3479,4.3479,4.3479,4.3479,4.3479,4.3479,4.3479,4.3479,4.3479,4.3479,4.3479,4.3479,4.3479,4.3479,4.3479,4.3479,4.3479,4.3479,4.3479,4.3479,4.3479,4.3479,4.3479,4.3479,4.3479,4.3479,4.3479,4.3479,4.3479,4.3479,4.3479,4.3479,4.3479,4.3479,4.3479,4.3479,4.3479,4.3479,4.3479,4.3479,4.3552,4.3698,4.3606,4.357,4.3883,4.425,4.5021,4.6049,4.6709,4.7443,4.8031,4.8233,4.8324,4.8324,4.8324,4.8324,4.8324,4.8324,4.8324,4.8379,4.8453,4.8526,4.8453,4.8489,4.8728,4.871,4.8563,4.8673,4.8875,4.8948,4.9169,4.9591,4.9682,4.9738,4.9866,5.0215,5.073,5.1224,5.155,5.165,5.1497,5.1266,5.088,5.0356,4.9973,4.9648,4.9448,4.9269,4.9053,4.8866,4.8917,4.9018,4.9018,4.9018,4.9018,4.9018,4.9018,4.9018,4.9018,4.9018,4.9018,4.3479,4.3479,4.3479,4.3479,4.3479,4.3479,4.3479,4.3479,4.3479,4.3479,4.3479,4.3479,4.3479,4.3479,4.3479,4.3479,4.3479,4.3479,4.3479,4.3479,4.3479,4.3479,4.3479,4.3479,4.3479,4.3479,4.3479,4.3479,4.3479,4.3479,4.3479,4.3479,4.3479,4.3479,4.3479,4.3479,4.3479,4.3479,4.3479,4.3479,4.3479,4.3479,4.3479,4.3479,4.3479,4.3479,4.3479,4.3479,4.3479,4.3479,4.3479,4.3479,4.3479,4.3479,4.3901,4.4103,4.4048,4.3828,4.4452,4.4856,4.5461,4.6562,4.7094,4.7535,4.803,4.8324,4.8324,4.8324,4.8324,4.8324,4.8324,4.8324,4.8324,4.86,4.893,4.8875,4.8746,4.9205,4.9407,4.9426,4.9426,4.9519,4.9665,4.9702,4.9794,5.0233,5.0582,5.0637,5.0802,5.1169,5.1536,5.2032,5.2231,5.2312,5.212,5.1951,5.1509,5.0928,5.0335,4.9907,4.9622,4.9359,4.9107,4.8984,4.9018,4.9018,4.9018,4.9018,4.9018,4.9018,4.9018,4.9018,4.9018,4.9018,4.9018,4.3479,4.3479,4.3479,4.3479,4.3479,4.3479,4.3479,4.3479,4.3479,4.3479,4.3479,4.3479,4.3479,4.3479,4.3479,4.3479,4.3479,4.3479,4.3479,4.3479,4.3479,4.3479,4.3479,4.3479,4.3479,4.3479,4.3479,4.3479,4.3479,4.3479,4.3479,4.3479,4.3479,4.3479,4.3479,4.3479,4.3479,4.3479,4.3479,4.3479,4.3479,4.3479,4.3479,4.3479,4.3479,4.3479,4.3479,4.3479,4.3479,4.3479,4.3479,4.3479,4.3626,4.3901,4.4397,4.4599,4.4874,4.5039,4.5388,4.5755,4.6397,4.6966,4.748,4.7975,4.8269,4.8324,4.8324,4.8324,4.8324,4.8324,4.8324,4.8324,4.8636,4.8985,4.9482,4.9664,4.9682,4.9994,5.027,5.027,5.0345,5.0492,5.0675,5.0896,5.0839,5.082,5.1242,5.1444,5.1738,5.2142,5.2509,5.2873,5.2944,5.2959,5.2652,5.2363,5.1932,5.1325,5.0372,4.9976,4.9693,4.9449,4.9168,4.9018,4.9018,4.9018,4.9018,4.9018,4.9018,4.9018,4.9018,4.9018,4.9018,4.9018,4.9018,4.3479,4.3479,4.3479,4.3479,4.3479,4.3479,4.3479,4.3479,4.3479,4.3479,4.3479,4.3479,4.3479,4.3479,4.3479,4.3479,4.3479,4.3479,4.3479,4.3479,4.3479,4.3479,4.3479,4.3479,4.3479,4.3497,4.3479,4.3479,4.3479,4.3479,4.3479,4.3479,4.3479,4.3479,4.3479,4.3479,4.3479,4.3479,4.3479,4.3479,4.3479,4.3479,4.3479,4.3479,4.3479,4.3479,4.3479,4.3479,4.3479,4.3846,4.3883,4.3993,4.4305,4.4764,4.5204,4.5498,4.5883,4.625,4.6507,4.6819,4.7168,4.7516,4.781,4.8233,4.8288,4.8324,4.8324,4.8324,4.8324,4.8324,4.8361,4.8489,4.8948,4.95,5.0033,5.038,5.0747,5.0949,5.1077,5.1096,5.1224,5.1591,5.1811,5.2123,5.2032,5.1646,5.1811,5.2179,5.2491,5.2839,5.2944,5.3164,5.3124,5.2999,5.2599,5.2335,5.2065,5.1519,5.0581,4.9936,4.9551,4.9316,4.9094,4.9018,4.9018,4.9018,4.9018,4.9018,4.9018,4.9018,4.9018,4.9018,4.9018,4.9018,4.9018,4.3479,4.3479,4.3479,4.3479,4.3479,4.3479,4.3479,4.3479,4.3479,4.3479,4.3479,4.3479,4.3479,4.3479,4.3497,4.3533,4.3534,4.3497,4.3663,4.3663,4.3497,4.3681,4.3681,4.3644,4.3589,4.3589,4.3681,4.3644,4.3608,4.392,4.3699,4.3497,4.3754,4.3589,4.3681,4.392,4.3773,4.3754,4.379,4.3718,4.3681,4.3663,4.3663,4.3606,4.3551,4.3515,4.3497,4.3681,4.4011,4.4599,4.4617,4.4856,4.5241,4.5645,4.603,4.647,4.6837,4.7223,4.7609,4.7461,4.7535,4.7957,4.8269,4.8324,4.8324,4.8324,4.8324,4.8324,4.8324,4.8324,4.8545,4.8948,4.939,4.9978,5.0583,5.1169,5.1499,5.1756,5.1867,5.1885,5.205,5.2325,5.2491,5.2692,5.2747,5.236,5.236,5.2729,5.2821,5.3057,5.3011,5.3082,5.3082,5.2831,5.2224,5.1838,5.1376,5.0858,5.0118,4.9593,4.9212,4.9063,4.9018,4.9018,4.9018,4.9018,4.9018,4.9018,4.9018,4.9018,4.9018,4.9018,4.9018,4.9018,4.9018,4.3479,4.3479,4.3479,4.3479,4.3479,4.3479,4.3479,4.3479,4.3479,4.3479,4.3479,4.3479,4.3479,4.3497,4.3534,4.3791,4.4176,4.4232,4.4507,4.4856,4.4966,4.4672,4.447,4.4232,4.425,4.4232,4.425,4.458,4.4984,4.48,4.4947,4.4874,4.4525,4.4672,4.4782,4.4782,4.4635,4.4452,4.4617,4.4764,4.4378,4.4745,4.4745,4.425,4.4837,4.4635,4.4452,4.4782,4.5112,4.5351,4.5424,4.57,4.6067,4.6416,4.6801,4.7186,4.7516,4.7938,4.8177,4.7975,4.8012,4.8122,4.8306,4.8324,4.8324,4.8324,4.8324,4.8324,4.8324,4.8324,4.8434,4.9058,4.9757,5.0417,5.1114,5.183,5.2215,5.2435,5.2527,5.2472,5.2637,5.2876,5.3004,5.3112,5.313,5.3093,5.3148,5.3185,5.3185,5.3042,5.2915,5.2702,5.264,5.2219,5.1618,5.112,5.0662,5.0226,4.9737,4.9581,4.9351,4.9049,4.9035,4.9018,4.9137,4.9255,4.9255,4.9069,4.9018,4.9035,4.9018,4.9018,4.9018,4.9052,4.9171,4.3479,4.3479,4.3479,4.3479,4.3479,4.3479,4.3479,4.3479,4.3479,4.3479,4.3479,4.3479,4.3479,4.3551,4.3828,4.4103,4.4617,4.4929,4.5369,4.5608,4.5681,4.5535,4.5241,4.5076,4.5057,4.5057,4.5094,4.5388,4.57,4.5865,4.5957,4.592,4.5773,4.5792,4.5645,4.5865,4.5608,4.5369,4.5461,4.57,4.5186,4.548,4.5663,4.5131,4.5516,4.5516,4.5259,4.5461,4.5902,4.614,4.6305,4.6397,4.6746,4.7095,4.7407,4.7645,4.7901,4.8306,4.8324,4.8306,4.8287,4.8324,4.8324,4.8324,4.8324,4.8324,4.8324,4.8324,4.8324,4.8398,4.86,4.9536,5.038,5.1114,5.1922,5.2582,5.2766,5.2968,5.3002,5.302,5.313,5.3112,5.313,5.3185,5.3185,5.3185,5.3185,5.3164,5.3143,5.2915,5.2554,5.2289,5.2012,5.1469,5.0903,5.0624,5.0404,5.029,4.9913,4.996,4.9729,4.9526,4.961,4.9965,4.9999,4.9729,4.9779,4.9982,4.9576,4.9069,4.9103,4.9187,4.9323,4.9407,4.9576,4.3479,4.3479,4.3479,4.3479,4.3479,4.3479,4.3479,4.3497,4.3571,4.3644,4.3736,4.3718,4.3717,4.3863,4.4452,4.4837,4.5149,4.5626,4.603,4.6195,4.6379,4.6049,4.5902,4.5883,4.5883,4.5883,4.592,4.5975,4.6122,4.6305,4.6581,4.6892,4.6874,4.6673,4.6012,4.5957,4.592,4.5902,4.5975,4.6049,4.5957,4.6085,4.614,4.5975,4.6177,4.625,4.603,4.6195,4.6636,4.7003,4.7058,4.7296,4.7847,4.7976,4.8122,4.8196,4.8233,4.8324,4.8324,4.8324,4.8324,4.8324,4.8324,4.8324,4.8324,4.8324,4.8434,4.8563,4.8508,4.8857,4.9462,5.0288,5.1077,5.1701,5.2472,5.2986,5.3112,5.3185,5.3185,5.3185,5.3185,5.3185,5.3185,5.3185,5.3185,5.3185,5.3185,5.3164,5.3103,5.2725,5.2312,5.1909,5.1579,5.1104,5.0634,5.0378,5.0176,5.0104,5.0198,5.0304,5.0507,5.0557,5.0727,5.098,5.0794,5.0456,5.076,5.1116,5.0456,4.9813,4.9458,4.9458,4.961,4.9847,5.0084,4.3479,4.3479,4.3479,4.3479,4.3479,4.3479,4.3479,4.3589,4.4048,4.458,4.5021,4.5094,4.5094,4.5223,4.5333,4.5736,4.625,4.6434,4.6801,4.7425,4.737,4.7113,4.6893,4.6709,4.6691,4.6691,4.6727,4.7021,4.7572,4.7315,4.7517,4.7865,4.7755,4.7755,4.7572,4.7443,4.7333,4.6929,4.7113,4.7297,4.6837,4.7113,4.7186,4.6746,4.7131,4.715,4.6764,4.704,4.748,4.7774,4.7773,4.7975,4.8269,4.8324,4.8324,4.8324,4.8324,4.8324,4.8324,4.8324,4.8324,4.8343,4.8398,4.8398,4.8324,4.8324,4.8581,4.9003,4.9132,4.9591,5.0325,5.1096,5.1756,5.1977,5.2546,5.2986,5.3185,5.3185,5.3185,5.3185,5.3185,5.3185,5.3185,5.3185,5.3185,5.3185,5.3185,5.3103,5.306,5.2509,5.2036,5.1592,5.1201,5.076,5.0424,5.0438,5.0655,5.0847,5.0877,5.0913,5.1133,5.1488,5.142,5.1454,5.1336,5.1234,5.1488,5.1589,5.1117,5.061,5.0541,5.0388,5.0557,5.0727,5.0811,4.3479,4.3479,4.3479,4.3479,4.3479,4.3479,4.3626,4.4011,4.4764,4.5443,4.5792,4.5865,4.5847,4.592,4.6232,4.6507,4.7131,4.7443,4.7608,4.8306,4.8288,4.7921,4.7626,4.748,4.7516,4.7516,4.7553,4.781,4.8141,4.8269,4.8251,4.8233,4.8324,4.8196,4.8177,4.8104,4.8012,4.7682,4.7884,4.792,4.7755,4.7847,4.7957,4.7755,4.7846,4.7993,4.781,4.7976,4.8324,4.8324,4.8324,4.8324,4.8324,4.8324,4.8324,4.8324,4.8324,4.8324,4.8324,4.8324,4.8453,4.8802,4.8728,4.8746,4.8838,4.9169,4.9517,4.9848,4.9996,5.049,5.1151,5.1903,5.2142,5.2344,5.2711,5.313,5.3185,5.3185,5.3185,5.3185,5.3185,5.3185,5.3185,5.3185,5.3185,5.3185,5.3185,5.3097,5.2941,5.2333,5.1879,5.152,5.1122,5.0785,5.0734,5.0898,5.1142,5.1505,5.1606,5.1623,5.208,5.2469,5.2181,5.2012,5.2181,5.2266,5.2164,5.2046,5.1978,5.1995,5.2046,5.1877,5.1674,5.1522,5.1471,4.3479,4.3479,4.3479,4.3479,4.3479,4.3588,4.403,4.48,4.5608,4.5993,4.6067,4.6177,4.6269,4.6269,4.6801,4.7168,4.7333,4.7939,4.8159,4.8269,4.8324,4.8214,4.8214,4.8177,4.8067,4.8177,4.8214,4.8085,4.8324,4.8324,4.8324,4.8324,4.8324,4.8324,4.8324,4.8306,4.8233,4.8177,4.8158,4.8195,4.8141,4.8214,4.8233,4.814,4.8195,4.8232,4.8159,4.8269,4.8324,4.8324,4.8324,4.8324,4.8324,4.8324,4.8324,4.8324,4.8324,4.8343,4.8526,4.8563,4.8967,4.9481,4.9719,4.9702,4.9757,5.0068,5.0398,5.0655,5.0857,5.1371,5.1958,5.2197,5.2435,5.2729,5.302,5.3185,5.3185,5.3185,5.3185,5.3185,5.3185,5.3185,5.3185,5.3185,5.3332,5.3451,5.3416,5.3062,5.2792,5.2086,5.1723,5.1636,5.1262,5.091,5.1014,5.1505,5.1894,5.235,5.2384,5.2469,5.2976,5.3213,5.2942,5.2875,5.3247,5.3281,5.2909,5.2976,5.3196,5.3196,5.2942,5.2807,5.2418,5.2046,5.2012,4.3479,4.3479,4.3479,4.3479,4.3571,4.4103,4.4819,4.5608,4.6416,4.7003,4.7609,4.7627,4.7443,4.7645,4.7846,4.7921,4.8031,4.8159,4.8251,4.8324,4.8324,4.8324,4.8324,4.8324,4.8324,4.8324,4.8324,4.8324,4.8324,4.8324,4.8324,4.8324,4.8324,4.8324,4.8324,4.8324,4.8324,4.8324,4.8324,4.8324,4.8324,4.8324,4.8324,4.8324,4.8324,4.8324,4.8324,4.8324,4.8324,4.8324,4.8324,4.8324,4.8324,4.8324,4.8324,4.8324,4.8379,4.8526,4.9058,4.9224,4.9572,5.038,5.0857,5.0857,5.0765,5.0802,5.1206,5.1481,5.1665,5.2087,5.2435,5.2692,5.2821,5.2965,5.3185,5.3185,5.3185,5.3185,5.3185,5.3185,5.3185,5.3314,5.3295,5.335,5.3494,5.3701,5.3672,5.3327,5.2834,5.22,5.1773,5.1721,5.173,5.1485,5.1944,5.2435,5.2807,5.3129,5.3061,5.3027,5.323,5.3399,5.3484,5.3518,5.3518,5.3518,5.3433,5.3518,5.3518,5.3518,5.3315,5.3281,5.3162,5.2739,5.2536,4.3479,4.3479,4.3479,4.3479,4.3626,4.436,4.5168,4.5957,4.6746,4.7553,4.8269,4.8269,4.8324,4.8251,4.8251,4.8269,4.8269,4.8269,4.8324,4.8324,4.8324,4.8324,4.8324,4.8324,4.8324,4.8324,4.8324,4.8324,4.8324,4.8324,4.8324,4.8324,4.8324,4.8324,4.8324,4.8324,4.8324,4.8324,4.8324,4.8324,4.8324,4.8324,4.8324,4.8324,4.8324,4.8324,4.8324,4.8324,4.8324,4.8324,4.8324,4.8324,4.8324,4.8324,4.8324,4.8379,4.8746,4.904,4.95,4.9922,5.0453,5.1114,5.1738,5.1848,5.1922,5.1995,5.2197,5.2399,5.2491,5.2656,5.2928,5.3185,5.3167,5.3185,5.3185,5.3185,5.3185,5.3185,5.3185,5.3185,5.3277,5.3463,5.3537,5.3592,5.3879,5.4356,5.4394,5.399,5.3398,5.2687,5.2276,5.209,5.22,5.2232,5.2756,5.3078,5.3213,5.3348,5.3365,5.3365,5.3518,5.3518,5.3518,5.3518,5.3518,5.3518,5.3518,5.3518,5.3518,5.3518,5.3518,5.3433,5.3399,5.3298,5.3213,4.3479,4.3479,4.3479,4.3479,4.3588,4.4268,4.5057,4.5938,4.6617,4.748,4.8177,4.8324,4.8324,4.8324,4.8324,4.8324,4.8324,4.8324,4.8324,4.8324,4.8324,4.8324,4.8324,4.8324,4.8324,4.8324,4.8324,4.8324,4.8324,4.8324,4.8324,4.8324,4.8324,4.8324,4.8324,4.8324,4.8324,4.8324,4.8324,4.8324,4.8324,4.8324,4.8324,4.8324,4.8324,4.8324,4.8324,4.8324,4.8324,4.8324,4.8324,4.8324,4.8508,4.8545,4.8526,4.8857,4.9389,4.9793,5.0196,5.0618,5.1279,5.1793,5.2123,5.2435,5.2637,5.269,5.28,5.2837,5.2892,5.2892,5.3112,5.3185,5.3185,5.3185,5.3185,5.3185,5.3185,5.3185,5.3185,5.3277,5.3534,5.372,5.4032,5.4139,5.459,5.5131,5.4913,5.4418,5.3957,5.323,5.2822,5.251,5.2651,5.2824,5.3078,5.3348,5.3416,5.3501,5.3518,5.3518,5.3518,5.3518,5.3518,5.3518,5.3518,5.3518,5.3518,5.3518,5.3518,5.3518,5.3518,5.3518,5.3518,5.3518,5.3518,4.3479,4.3479,4.3479,4.3479,4.3497,4.3699,4.4599,4.5883,4.6085,4.7003,4.8122,4.8306,4.8324,4.8324,4.8324,4.8324,4.8324,4.8324,4.8324,4.8324,4.8324,4.8324,4.8324,4.8324,4.8324,4.8324,4.8324,4.8324,4.8324,4.8324,4.8324,4.8324,4.8324,4.8324,4.8324,4.8324,4.8324,4.8324,4.8324,4.8324,4.8324,4.8324,4.8324,4.8324,4.8324,4.8324,4.8324,4.8324,4.8324,4.8324,4.8324,4.8655,4.9224,4.928,4.9609,5.0105,5.0325,5.071,5.1114,5.1499,5.205,5.2564,5.2876,5.3002,5.3112,5.3167,5.3185,5.3185,5.3185,5.3185,5.3185,5.3185,5.3185,5.3185,5.3185,5.3185,5.3185,5.3185,5.3185,5.3479,5.3794,5.4142,5.4491,5.4873,5.5318,5.5239,5.4826,5.4447,5.4236,5.3722,5.3337,5.3076,5.3178,5.3365,5.3518,5.3518,5.3518,5.3518,5.3518,5.3518,5.3518,5.3518,5.3518,5.3518,5.3518,5.3518,5.3518,5.3518,5.3518,5.3518,5.3518,5.3518,5.3518,5.3518,5.3518,4.3479,4.3479,4.3479,4.3479,4.3479,4.3479,4.4213,4.5296,4.5736,4.6599,4.7755,4.8122,4.8324,4.8324,4.8324,4.8324,4.8324,4.8324,4.8324,4.8324,4.8324,4.8324,4.8324,4.8324,4.8324,4.8324,4.8324,4.8324,4.8324,4.8324,4.8324,4.8324,4.8324,4.8324,4.8324,4.8324,4.8324,4.8324,4.8324,4.8324,4.8324,4.8324,4.8324,4.8324,4.8324,4.8324,4.8324,4.8361,4.8581,4.893,4.9297,4.9609,5.005,5.0123,5.0325,5.071,5.1077,5.1518,5.1958,5.2344,5.2674,5.3038,5.3185,5.3148,5.3167,5.3185,5.3185,5.3185,5.3185,5.3185,5.3185,5.3185,5.3185,5.3185,5.3185,5.3185,5.3185,5.3185,5.3479,5.3959,5.4326,5.4785,5.5096,5.5361,5.5771,5.5956,5.5427,5.4559,5.4319,5.4027,5.3701,5.3518,5.3518,5.3518,5.3518,5.3518,5.3518,5.3518,5.3518,5.3518,5.3518,5.3518,5.3518,5.3518,5.3518,5.3518,5.3518,5.3518,5.3518,5.3518,5.3518,5.3518,5.3518,5.3518,5.3518,4.3479,4.3479,4.3479,4.3479,4.3479,4.3479,4.3975,4.4782,4.5553,4.6342,4.7223,4.7994,4.8269,4.8324,4.8324,4.8324,4.8324,4.8324,4.8324,4.8324,4.8324,4.8324,4.8324,4.8324,4.8324,4.8324,4.8324,4.8324,4.8324,4.8324,4.8324,4.8324,4.8324,4.8324,4.8324,4.8324,4.8324,4.8324,4.8324,4.8324,4.8324,4.8324,4.8324,4.8324,4.8324,4.8343,4.8416,4.8618,4.8967,4.9554,5.0251,5.06,5.0857,5.0949,5.1169,5.1481,5.1903,5.2142,5.2362,5.2784,5.3002,5.3185,5.3185,5.3185,5.3185,5.3185,5.3185,5.3185,5.3185,5.3185,5.3185,5.3185,5.3185,5.3185,5.3185,5.3332,5.3332,5.3387,5.3885,5.4418,5.4987,5.5464,5.5577,5.5843,5.5991,5.6241,5.5826,5.5059,5.4374,5.3962,5.3584,5.3518,5.3518,5.3518,5.3518,5.3518,5.3518,5.3518,5.3518,5.3518,5.3518,5.3518,5.3518,5.3518,5.3518,5.3518,5.3518,5.3518,5.3518,5.3518,5.3518,5.3518,5.3518,5.3518,5.3518,4.3479,4.3479,4.3479,4.3479,4.3479,4.3479,4.3956,4.4745,4.5553,4.6361,4.7094,4.7865,4.8324,4.8324,4.8324,4.8324,4.8324,4.8324,4.8324,4.8324,4.8324,4.8324,4.8324,4.8324,4.8324,4.8324,4.8324,4.8324,4.8324,4.8324,4.8324,4.8324,4.8324,4.8324,4.8324,4.8361,4.8453,4.8489,4.8581,4.8618,4.8489,4.8453,4.8324,4.8324,4.8324,4.8746,4.9115,4.9335,4.9829,5.0362,5.082,5.1279,5.1573,5.1793,5.1995,5.227,5.2692,5.2747,5.2928,5.3038,5.3185,5.3185,5.3185,5.3185,5.3185,5.3185,5.3185,5.3185,5.3185,5.3185,5.3185,5.3185,5.3185,5.3185,5.3185,5.3647,5.3885,5.4087,5.4418,5.5152,5.5904,5.5967,5.5789,5.5893,5.583,5.5759,5.5089,5.4374,5.3929,5.3701,5.3518,5.3518,5.3518,5.3518,5.3518,5.3518,5.3518,5.3518,5.3518,5.3518,5.3518,5.3518,5.3518,5.3518,5.3518,5.3518,5.3518,5.3518,5.3518,5.3518,5.3518,5.3518,5.3518,5.3518,5.3518]}]]